[[{"header":{"parameterUnit":"m.s-1","parameterCategory":1,"la1":31.0,"la2":29.5877,"lo1":-88.7671,"lo2":-86.6584,"dx":0.0162,"dy":0.0185,"nx":115,"ny":88,"refTime":"2022-11-28T06:00:00:Z","depth":0,"parameterNumber":2,"parameterNumberName":"U-component_of_WINDS"},"data":[0.0,0.0,0.0,0.0,0.0,0.0,0.0,0.0,0.0,0.0,0.0,0.0,0.0,0.0,0.0,0.0,0.0,0.0,0.0,0.0,0.0,0.0,0.0,0.0,0.0,0.0,0.0,0.0,0.0,0.0,0.0,0.0,0.0,0.0,0.0,0.0,0.0,0.0,0.0,0.0,0.0,0.0,0.0,0.0,0.0,0.0,0.0,0.0,0.0,0.0,0.0,0.0,0.0,0.0,0.0,0.0,0.0,0.0,0.0,0.0,0.0,0.0,0.0,0.0,0.0,0.0,0.0,0.0,0.0,0.0,0.0,0.0,0.0,0.0,0.0,0.0,0.0,0.0,0.0,0.0,0.0,0.0,0.0,0.0,0.0,0.0,0.0,0.0,0.0,0.0,0.0,0.0,0.0,0.0,0.0,0.0,0.0,0.0,0.0,0.0,0.0,0.0,0.0,0.0,0.0,0.0,0.0,0.0,0.0,0.0,0.0,0.0,0.0,0.0,0.0,0.0,0.0,0.0,0.0,0.0,0.0,0.0,0.0,0.0,0.0,0.0,0.0,0.0,0.0,0.0,0.0,0.0,0.0,0.0,0.0,0.0,0.0,0.0,0.0,0.0,0.0,0.0,0.0,0.0,0.0,0.0,0.0,0.0,0.0,0.0,0.0,0.0,0.0,0.0,0.0,0.0,0.0,0.0,0.0,0.0,0.0,0.0,0.0,0.0,0.0,0.0,0.0,0.0,0.0,0.0,0.0,0.0,0.0,0.0,0.0,0.0,0.0,0.0,0.0,0.0,0.0,0.0,0.0,0.0,0.0,0.0,0.0,0.0,0.0,0.0,0.0,0.0,0.0,0.0,0.0,0.0,0.0,0.0,0.0,0.0,0.0,0.0,0.0,0.0,0.0,0.0,0.0,0.0,0.0,0.0,0.0,0.0,0.0,0.0,0.0,0.0,0.0,0.0,0.0,0.0,0.0,0.0,0.0,0.0,0.0,0.0,0.0,0.0,0.0,0.0,0.0,0.0,0.0,0.0,0.0,0.0,0.0,0.0,0.0,0.0,0.0,0.0,0.0,0.0,0.0,0.0,0.0,0.0,0.0,0.0,0.0,0.0,0.0,0.0,0.0,0.0,0.0,0.0,0.0,0.0,0.0,0.0,0.0,0.0,0.0,0.0,0.0,0.0,0.0,0.0,0.0,0.0,0.0,0.0,0.0,0.0,0.0,0.0,0.0,0.0,0.0,0.0,0.0,0.0,0.0,0.0,0.0,0.0,0.0,0.0,0.0,0.0,0.0,0.0,0.0,0.0,0.0,0.0,0.0,0.0,0.0,0.0,0.0,0.0,0.0,0.0,0.0,0.0,0.0,0.0,0.0,0.0,0.0,0.0,0.0,0.0,0.0,0.0,0.0,0.0,0.0,0.0,0.0,0.0,0.0,0.0,0.0,0.0,0.0,0.0,0.0,0.0,0.0,0.0,0.0,0.0,0.0,0.0,0.0,0.0,0.0,0.0,0.0,0.0,0.0,0.0,0.0,0.0,0.0,0.0,0.0,0.0,0.0,0.0,0.0,0.0,0.0,0.0,0.0,0.0,0.0,0.0,0.0,0.0,0.0,0.0,0.0,0.0,0.0,0.0,0.0,0.0,0.0,0.0,0.0,0.0,0.0,0.0,0.0,0.0,0.0,0.0,0.0,0.0,0.0,0.0,0.0,0.0,0.0,0.0,0.0,0.0,0.0,0.0,0.0,0.0,0.0,0.0,0.0,0.0,0.0,0.0,0.0,0.0,0.0,0.0,0.0,0.0,0.0,0.0,0.0,0.0,0.0,0.0,0.0,0.0,0.0,0.0,0.0,0.0,0.0,0.0,0.0,0.0,0.0,0.0,0.0,0.0,0.0,0.0,0.0,0.0,0.0,0.0,0.0,0.0,0.0,0.0,0.0,0.0,0.0,0.0,0.0,0.0,0.0,0.0,0.0,0.0,0.0,0.0,0.0,0.0,0.0,0.0,0.0,0.0,0.0,0.0,0.0,0.0,0.0,0.0,0.0,0.0,0.0,0.0,0.0,0.0,0.0,0.0,0.0,0.0,0.0,0.0,0.0,0.0,0.0,0.0,0.0,0.0,0.0,0.0,0.0,0.0,0.0,0.0,0.0,0.0,0.0,0.0,0.0,0.0,0.0,0.0,0.0,0.0,0.0,0.0,0.0,0.0,0.0,0.0,0.0,0.0,0.0,0.0,0.0,0.0,0.0,0.0,0.0,0.0,0.0,0.0,0.0,0.0,0.0,0.0,0.0,0.0,0.0,0.0,0.0,0.0,0.0,0.0,0.0,0.0,0.0,0.0,0.0,0.0,0.0,0.0,0.0,0.0,0.0,0.0,0.0,0.0,0.0,0.0,0.0,0.0,0.0,0.0,0.0,0.0,0.0,0.0,0.0,0.0,0.0,0.0,0.0,0.0,0.0,0.0,0.0,0.0,0.0,0.0,0.0,0.0,0.0,0.0,0.0,0.0,0.0,0.0,0.0,0.0,0.0,0.0,0.0,0.0,0.0,0.0,0.0,0.0,0.0,0.0,0.0,0.0,0.0,0.0,0.0,0.0,0.0,0.0,0.0,0.0,0.0,0.0,0.0,0.0,0.0,0.0,0.0,0.0,0.0,0.0,0.0,0.0,0.0,0.0,0.0,0.0,0.0,0.0,0.0,0.0,0.0,0.0,0.0,0.0,0.0,0.0,0.0,0.0,0.0,0.0,0.0,0.0,0.0,0.0,0.0,0.0,0.0,0.0,0.0,0.0,0.0,0.0,0.0,0.0,0.0,0.0,0.0,0.0,0.0,0.0,0.0,0.0,0.0,0.0,0.0,0.0,0.0,0.0,0.0,0.0,0.0,0.0,0.0,0.0,0.0,0.0,0.0,0.0,0.0,0.0,0.0,0.0,0.0,0.0,0.0,0.0,0.0,0.0,0.0,0.0,0.0,0.0,0.0,0.0,0.0,0.0,0.0,0.0,0.0,0.0,0.0,0.0,0.0,0.0,0.0,0.0,0.0,0.0,0.0,0.0,0.0,0.0,0.0,0.0,0.0,0.0,0.0,0.0,0.0,0.0,0.0,0.0,0.0,0.0,0.0,0.0,0.0,0.0,0.0,0.0,0.0,0.0,0.0,0.0,0.0,0.0,0.0,0.0,0.0,0.0,0.0,0.0,0.0,0.0,0.0,0.0,0.0,0.0,0.0,0.0,0.0,0.0,0.0,0.0,0.0,0.0,0.0,0.0,0.0,0.0,0.0,0.0,0.0,0.0,0.0,0.0,0.0,0.0,0.0,0.0,0.0,0.0,0.0,0.0,0.0,0.0,0.0,0.0,0.0,0.0,0.0,0.0,0.0,0.0,0.0,0.0,0.0,0.0,0.0,0.0,0.0,0.0,0.0,0.0,0.0,0.0,0.0,0.0,0.0,0.0,0.0,0.0,0.0,0.0,0.0,0.0,0.0,0.0,0.0,0.0,0.0,0.0,0.0,0.0,0.0,0.0,0.0,0.0,0.0,0.0,0.0,0.0,0.0,0.0,0.0,0.0,0.0,0.0,0.0,0.0,0.0,0.0,0.0,0.0,0.0,0.0,0.0,0.0,0.0,0.0,0.0,0.0,0.0,0.0,0.0,0.0,0.0,0.0,0.0,0.0,0.0,0.0,0.0,0.0,0.0,0.0,0.0,0.0,0.0,0.0,0.0,0.0,0.0,0.0,0.0,0.0,0.0,0.0,0.0,0.0,0.0,0.0,0.0,0.0,0.0,0.0,0.0,0.0,0.0,0.0,0.0,0.0,0.0,0.0,0.0,0.0,0.0,0.0,0.0,0.0,0.0,0.0,0.0,0.0,0.0,0.0,0.0,0.0,0.0,0.0,0.0,0.0,0.0,0.0,0.0,0.0,0.0,0.0,0.0,0.0,0.0,0.0,0.0,0.0,0.0,0.0,0.0,0.0,0.0,0.0,0.0,0.0,0.0,0.0,0.0,0.0,0.0,0.0,0.0,0.0,0.0,0.0,0.0,0.0,0.0,0.0,0.0,0.0,0.0,0.0,0.0,0.0,0.0,0.0,0.0,0.0,0.0,0.0,0.0,0.0,0.0,0.0,0.0,0.0,0.0,0.0,0.0,0.0,0.0,0.0,0.0,0.0,0.0,0.0,0.0,0.0,0.0,0.0,0.0,0.0,0.0,0.0,0.0,0.0,0.0,0.0,0.0,0.0,0.0,0.0,-0.1065,0.0,0.0,0.0,-0.2124,0.0,0.0,0.0,0.0,0.0,0.0,0.0,0.0,0.0,0.0,0.0,0.0,0.0,0.0,0.0,0.0,0.0,0.0,0.0,0.0,0.0,0.0,0.0,0.0,0.0,0.0,0.0,0.0,0.0,0.0,0.0,0.0,0.0,0.0,0.0,0.0,0.0,0.0,0.0,0.0,0.0,0.0,0.0,0.0,0.0,0.0,0.0,0.0,0.0,0.0,0.0,0.0,0.0,0.0,0.0,0.0,0.0,0.0,0.0,0.0,0.0,0.0,0.0,0.0,0.0,0.0,0.0,0.0,0.0,0.0,0.0,0.0,0.0,0.0,0.0,0.0,0.0,0.0,0.0,0.0,0.0,0.0,0.0,0.0,0.0,0.0,0.0,0.0,0.0,0.0,0.0,0.0,0.0,0.0,0.0,0.0,0.0,0.0,0.0,0.0,0.0,0.0,0.0,0.0,0.0,0.0,0.0,0.0,0.0,0.0,-0.1548,-0.2114,-0.2302,-0.2222,-0.1881,0.0,0.0,0.0,0.0,0.0,0.0,0.0,0.0,0.0,0.0,0.0,0.0,0.0,0.0,0.0,0.0,0.0,0.0,0.0,0.0,0.0,0.0,0.0,0.0,0.0,0.0,0.0,0.0,0.0,0.0,0.0,0.0,0.0,0.0,0.0,0.0,0.0,0.0,0.0,0.0,0.0,0.0,0.0,0.0,0.0,0.0,0.0,0.0,0.0,0.0,0.0,0.0,0.0,0.0,0.0,0.0,0.0,0.0,0.0,0.0,0.0,0.0,0.0,0.0,0.0,0.0,0.0,0.0,0.0,0.0,0.0,0.0,0.0,0.0,0.0,0.0,0.0,0.0,0.0,0.0,0.0,0.0,0.0,0.0,0.0,0.0,0.0,0.0,0.0,0.0,0.0,0.0,0.0,0.0,0.0,0.0,0.0,0.0,0.0,0.0,0.0,0.0,0.0,0.0,0.0,0.0,0.0,0.0,0.0,0.0,0.0,0.0,-0.2829,-0.2547,-0.1596,0.0,0.0,0.0,0.0,0.0,0.0,0.0,0.0,0.0,0.0,0.0,0.0,0.0,0.0,0.0,0.0,0.0,0.0,0.0,0.0,0.0,0.0,0.0,0.0,0.0,0.0,0.0,0.0,0.0,0.0,0.0,0.0,0.0,0.0,0.0,0.0,0.0,0.0,0.0,0.0,0.0,0.0,0.0,0.0,0.0,0.0,0.0,0.0,0.0,0.0,0.0,0.0,0.0,0.0,0.0,0.0,0.0,0.0,0.0,0.0,0.0,0.0,0.0,0.0,0.0,0.0,0.0,0.0,0.0,0.0,0.0,0.0,0.0,0.0,0.0,0.0,0.0,0.0,0.0,0.0,0.0,0.0,0.0,0.0,0.0,0.0,0.0,0.0,0.0,0.0,0.0,0.0,0.0,0.0,0.0,0.0,0.0,0.0,0.0,0.0,0.0,0.0,0.0,0.0,0.0,0.0,0.0,0.0,0.0,0.0,-0.2069,-0.2654,-0.3208,0.0,-0.1279,0.0,0.0,0.0,0.0,0.0,0.0,0.0,0.0,0.0,0.0,0.0,0.0,0.0,0.0,0.0,0.0,0.0,0.0,0.0,0.0,0.0,0.0,0.0,0.0,0.0,0.0,0.0,0.0,0.0,0.0,0.0,0.0,0.0,0.0,0.0,0.0,0.0,0.0,0.0,0.0,0.0,0.0,0.0,0.0,0.0,0.0,0.0,0.0,0.0,0.0,0.0,0.0,0.0,0.0,0.0,0.0,0.0,0.0,0.0,0.0,0.0,0.0,0.0,0.0,0.0,0.0,0.0,0.0,0.0,0.0,0.0,0.0,0.0,0.0,0.0,0.0,0.0,0.0,0.0,0.0,0.0,0.0,0.0,0.0,0.0,0.0,0.0,0.0,0.0,0.0,0.0,0.0,0.0,0.0,0.0,0.0,0.0,0.0,0.0,0.0,0.0,0.0,0.0,0.0,0.0,0.0,0.0,0.0,0.0,0.0,-0.2461,-0.2626,-0.2611,-0.2377,0.0,0.0,0.0,0.0,0.0,0.0,0.0,0.0,0.0,0.0,0.0,0.0,0.0,0.0,0.0,0.0,0.0,0.0,0.0,0.0,0.0,0.0,0.0,0.0,0.0,0.0,0.0,0.0,0.0,0.0,0.0,0.0,0.0,0.0,0.0,0.0,0.0,0.0,0.0,0.0,0.0,0.0,0.0,0.0,0.0,0.0,0.0,0.0,0.0,0.0,0.0,0.0,0.0,0.0,0.0,0.0,0.0,0.0,0.0,0.0,0.0,0.0,0.0,0.0,0.0,0.0,0.0,0.0,0.0,0.0,0.0,0.0,0.0,0.0,0.0,0.0,0.0,0.0,0.0,0.0,0.0,0.0,0.0,0.0,0.0,0.0,0.0,0.0,0.0,0.0,0.0,0.0,0.0,0.0,0.0,0.0,0.0,0.0,0.0,0.0,0.0,0.0,0.0,0.0,0.0,0.0,0.0,0.0,0.0,0.0,-0.2139,-0.2634,-0.2695,-0.2318,-0.2206,-0.2389,0.0,0.0,0.0,0.0,0.0,0.0,0.0,0.0,0.0,0.0,0.0,0.0,0.0,0.0,0.0,0.0,0.0,0.0,0.0,0.0,0.0,0.0,0.0,0.0,0.0,0.0,0.0,0.0,0.0,0.0,0.0,0.0,0.0,0.0,0.0,0.0,0.0,0.0,0.0,0.0,0.0,0.0,0.0,0.0,0.0,0.0,0.0,0.0,0.0,0.0,0.0,0.0,0.0,0.0,0.0,0.0,0.0,0.0,0.0,0.0,0.0,0.0,0.0,0.0,0.0,0.0,0.0,0.0,0.0,0.0,0.0,0.0,0.0,0.0,0.0,0.0,0.0,0.0,0.0,0.0,0.0,0.0,0.0,0.0,0.0,0.0,0.0,0.0,0.0,0.0,0.0,0.0,0.0,0.0,0.0,0.0,0.0,0.0,0.0,0.0,0.0,0.0,0.0,0.0,0.0,0.0,0.0,0.0,-0.1186,-0.1753,-0.2379,-0.3046,-0.2759,-0.2519,0.0,0.0,0.0,0.0,0.0,0.0,0.0,0.0,0.0,0.0,0.0,0.0,0.0,0.0,0.0,0.0,0.0,0.0,0.0,0.0,0.0,0.0,0.0,0.0,0.0,0.0,0.0,0.0,0.0,0.0,0.0,0.0,0.0,0.0,0.0,0.0,0.0,0.0,0.0,0.0,0.0,0.0,0.0,0.0,0.0,0.0,0.0,0.0,0.0,0.0,0.0,0.0,0.0,0.0,0.0,0.0,0.0,0.0,0.0,0.0,0.0,0.0,0.0,0.0,0.0,0.0,0.0,0.0,0.0,0.0,0.0,0.0,0.0,0.0,0.0,0.0,0.0,0.0,0.0,0.0,0.0,0.0,0.0,0.0,0.0,0.0,0.0,0.0,0.0,0.0,0.0,0.0,0.0,0.0,0.0,0.0,0.0,0.0,0.0,0.0,0.0,0.0,0.0,0.0,0.0,0.0,0.0,0.0,0.0,-0.0869,-0.1621,-0.2414,-0.3205,-0.2342,-0.2118,0.0,0.0,0.0,0.0,0.0,0.0,0.0,0.0,0.0,0.0,0.0,0.0,0.0,0.0,0.0,0.0,0.0,0.0,0.0,0.0,0.0,0.0,0.0,0.0,0.0,0.0,0.0,0.0,0.0,0.0,0.0,0.0,0.0,0.0,0.0,0.0,0.0,0.0,0.0,0.0,0.0,0.0,0.0,0.0,0.0,0.0,0.0,0.0,0.0,0.0,0.0,0.0,0.0,0.0,0.0,0.0,0.0,0.0,0.0,0.0,0.0,0.0,0.0,0.0,0.0,0.0,0.0,0.0,0.0,0.0,0.0,0.0,0.0,0.0,0.0,0.0,0.0,0.0,0.0,0.0,0.0,0.0,0.0,0.0,0.0,0.0,0.0,0.0,0.0,0.0,0.0,0.0,0.0,0.0,0.0,0.0,0.0,0.0,0.0,0.0,0.0,0.0,0.0,0.0,0.0,0.0,0.0,0.0,0.0,-0.0554,-0.1002,-0.1623,-0.2435,-0.1658,-0.153,0.0,0.0,0.0,0.0,0.0,0.0,0.0,0.0,0.0,0.0,0.0,0.0,0.0,0.0,0.0,0.0,0.0,0.0,0.0,0.0,0.0,0.0,0.0,0.0,0.0,0.0,0.0,0.0,0.0,0.0,0.0,0.0,0.0,0.0,0.0,0.0,0.0,0.0,0.0,0.0,0.0,0.0,0.0,0.0,0.0,0.0,0.0,0.0,0.0,0.0,0.0,0.0,0.0,0.0,0.0,0.0,0.0,0.0,0.0,0.0,0.0,0.0,0.0,0.0,0.0,0.0,0.0,0.0,0.0,0.0,0.0,0.0,0.0,0.0,0.0,0.0,0.0,0.0,0.0,0.0,0.0,0.0,0.0,0.0,0.0,0.0,0.0,0.0,0.0,0.0,0.0,0.0,0.0,0.0,0.0,0.0,0.0,0.0,0.0,0.0,0.0,0.0,0.0,0.0,0.0,0.0,0.0,0.0,0.03,-0.0195,0.0205,0.0078,-0.0582,-0.0706,-0.0786,0.0,0.0,0.0,0.0,0.0,0.0,0.0,0.0,0.0,0.0,0.0,0.0,0.0,0.0,0.0,0.0,0.0,0.0,0.0,0.0,0.0,0.0,0.0,0.0,0.0,0.0,0.0,0.0,0.0,0.0,0.0,0.0,0.0,0.0,0.0,0.0,0.0,0.0,0.0,0.0,0.0,0.0,0.0,0.0,0.0,0.0,0.0,0.0,0.0,0.0,0.0,0.0,0.0,0.0,0.0,0.0,0.0,0.0,0.0,0.0,0.0,0.0,0.0,0.0,0.0,0.0,0.0,0.0,0.0,0.0,0.0,0.0,0.0,0.0,0.0,0.0,0.0,0.0,0.0,0.0,0.0,0.0,0.0,0.0,0.0,0.0,0.0,0.0,0.0,0.0,0.0,0.0,0.0,0.0,0.0,0.0,0.0,0.0,0.0,0.0,0.0,0.0,0.0,0.0,0.0,0.0,0.0,0.0,0.0,0.1662,0.2058,0.1485,-0.0026,0.0221,-0.0041,0.0,0.0,0.0,0.0,0.0,0.0,0.0,0.0,0.0,0.0,0.0,0.0,0.0,0.0,0.0,0.0,0.0,0.0,0.0,0.0,0.0,0.0,0.0,0.0,0.0,0.0,0.0,0.0,0.0,0.0,0.0,0.0,0.0,0.0,0.0,0.0,0.0,0.0,0.0,0.0,0.0,0.0,0.0,0.0,0.0,0.0,0.0,0.0,0.0,0.0,0.0,0.0,0.0,0.0,0.0,0.0,0.0,0.0,0.0,0.0,0.0,0.0,0.0,0.0,0.0,0.0,0.0,0.0,0.0,0.0,0.0,0.0,0.0,0.0,0.0,0.0,0.0,0.0,0.0,0.0,0.0,0.0,0.0,0.0,0.0,0.0,0.0,0.0,0.0,0.0,0.0,0.0,0.0,0.0,0.0,0.0,0.0,0.0,0.0,0.0,0.0,0.0,0.0,0.0,0.0,0.0,0.0,0.0,0.0,0.3058,0.3205,0.2666,0.134,0.1273,0.0767,-0.0271,0.0,0.0,0.0,0.0,0.0,0.0,0.0,0.0,0.0,0.0,0.0,0.0,0.0,0.0,0.0,0.0,0.0,0.0,0.0,0.0,0.0,0.0,0.0,0.0,0.0,0.0,0.0,0.0,0.0,0.0,0.0,0.0,0.0,0.0,0.0,0.0,0.0,0.0,0.0,0.0,0.0,0.0,0.0,0.0,0.0,0.0,0.0,0.0,0.0,0.0,0.0,0.0,0.0,0.0,0.0,0.0,0.0,0.0,0.0,0.0,0.0,0.0,0.0,0.0,0.0,0.0,0.0,0.0,0.0,0.0,0.0,0.0,0.0,0.0,0.0,0.0,0.0,0.0,0.0,0.0,0.0,0.0,0.0,0.0,0.0,0.0,0.0,0.0,0.0,0.0,0.0,0.0,0.0,0.0,0.0,0.0,0.0,0.0,0.0,0.0,0.0,0.0,0.0,0.0,0.0,0.0,0.0,0.0,0.3996,0.3888,0.3744,0.3455,0.2537,0.1682,0.0,0.0,0.0,0.0,0.0,0.0,0.0,0.0,0.0,0.0,0.0,0.0,0.0,0.0,0.0,0.0,0.0,0.0,0.0,0.0,0.0,0.0,0.0,0.0,0.0,0.0,0.0,0.0,0.0,0.0,0.0,0.0,0.0,0.0,0.0,0.0,0.0,0.0,0.0,0.0,0.0,0.0,0.0,0.0,0.0,0.0,0.0,0.0,0.0,0.0,0.0,0.0,0.0,0.0,0.0,0.0,0.0,0.0,0.0,0.0,0.0,0.0,0.0,0.0,0.0,0.0,0.0,0.0,0.0,0.0,0.0,0.0,0.0,0.0,0.0,0.0,0.0,0.0,0.0,0.0,0.0,0.0,0.0,0.0,0.0,0.0,0.0,0.0,0.0,0.0,0.0,0.0,0.0,0.0,0.0,0.0,0.0,0.0,0.0,0.0,0.0,0.0,0.0,0.0,0.0,0.0,0.0,0.0,0.0,0.4948,0.55,0.5608,0.5234,0.4224,0.3382,0.0,0.0,0.0,0.0,0.0,0.0,0.0,0.0,0.0,0.0,0.0,0.0,0.0,0.0,0.0,0.0,0.0,0.0,0.0,0.0,0.0,0.0,0.0,0.0,0.0,0.0,0.0,0.0,0.0,0.0,0.0,0.0,0.0,0.0,0.0,0.0,0.0,0.0,0.0,0.0,0.0,0.0,0.0,0.0,0.0,0.0,0.0,0.0,0.0,0.0,0.0,0.0,0.0,0.0,0.0,0.0,0.0,0.0,0.0,0.0,0.0,0.0,0.0,0.0,0.0,0.0,0.0,0.0,0.0,0.0,0.0,0.0,0.0,0.0,0.0,0.0,0.0,0.0,0.0,0.0,0.0,0.0,0.0,0.0,0.0,0.0,0.0,0.0,0.0,0.0,0.0,0.0,0.0,0.0,0.0,0.0,0.0,0.0,0.0,0.0,0.0,0.0,0.0,0.0,0.0,0.0,0.0,0.0,0.4862,0.5163,0.6333,0.6763,0.6402,0.5613,0.4582,0.0,0.0,0.0,0.0,0.0,0.0,0.0,0.0,0.0,0.0,0.0,0.0,0.0,0.0,0.0,0.0,0.0,0.0,0.0,0.0,0.0,0.0,0.0,0.0,0.0,0.0,0.0,0.0,0.0,0.0,0.0,0.0,0.0,0.0,0.0,0.0,0.0,0.0,0.0,0.0,0.0,0.0,0.0,0.0,0.0,0.0,0.0,0.0,0.0,0.0,0.0,0.0,0.0,0.0,0.0,0.0,0.0,0.0,0.0,0.0,0.0,0.0,0.0,0.0,0.0,0.0,0.0,0.0,0.0,0.0,0.0,0.0,0.0,0.0,0.0,0.0,0.0,0.0,0.0,0.0,0.0,0.0,0.0,0.0,0.0,0.0,0.0,0.0,0.0,0.0,0.0,0.0,0.0,0.0,0.0,0.0,0.0,0.0,0.0,0.0,0.0,0.0,0.0,0.0,0.0,0.0,0.0,0.0,0.4594,0.5051,0.6652,0.7356,0.7106,0.6634,0.5411,0.0,0.0,0.0,0.0,0.0,0.0,0.0,0.0,0.0,0.0,0.0,0.0,0.0,0.0,0.0,0.0,0.0,0.0,0.0,0.0,0.0,0.0,0.0,0.0,0.0,0.0,0.0,0.0,0.0,0.0,0.0,0.0,0.0,0.0,0.0,0.0,0.0,0.0,0.0,0.0,0.0,0.0,0.0,0.0,0.0,0.0,0.0,0.0,0.0,0.0,0.0,0.0,0.0,0.0,0.0,0.0,0.0,0.0,0.0,0.0,0.0,0.0,0.0,0.0,0.0,0.0,0.0,0.0,0.0,0.0,0.0,0.0,0.0,0.0,0.0,0.0,0.0,0.0,0.0,0.0,0.0,0.0,0.0,0.0,0.0,0.0,0.0,0.0,0.0,0.0,0.0,0.0,0.0,0.0,0.0,0.0,0.0,0.0,0.0,0.0,0.0,0.0,0.0,0.0,0.0,0.0,0.0,0.0,0.5495,0.5982,0.7004,0.7446,0.7399,0.6684,0.5714,0.0,0.0,0.0,0.0,0.0,0.0,0.0,0.0,0.0,0.0,0.0,0.0,0.0,0.0,0.0,0.0,0.0,0.0,0.0,0.0,0.0,0.0,0.0,0.0,0.0,0.0,0.0,0.0,0.0,0.0,0.0,0.0,0.0,0.0,0.0,0.0,0.0,0.0,0.0,0.0,0.0,0.0,0.0,0.0,0.0,0.0,0.0,0.0,-0.1002,0.0,0.0,0.0,0.0,0.0,0.0,0.0,0.0,0.0,0.0,0.0,0.0,0.0,0.0,0.0,0.0,0.0,0.0,0.0,0.0,0.0,0.0,0.0,0.0,0.0,0.0,0.0,0.0,0.0,0.0,0.0,0.0,0.0,0.0,0.0,0.0,0.0,0.0,0.0,0.0,0.0,0.0,0.0,0.0,0.0,0.0,0.0,0.0,0.0,0.0,0.0,0.0,0.0,0.0,0.0,0.0,0.0,0.0,0.0,0.5968,0.6627,0.7584,0.7851,0.7507,0.684,0.588,0.0,0.0,0.0,0.0,0.0,0.0,0.0,0.0,0.0,0.0,0.0,0.0,0.0,0.0,0.0,0.0,0.0,0.0,0.0,0.0,0.0,0.0,0.0,0.0,0.0,0.0,0.0,0.0,0.0,0.0,0.0,0.0,0.0,0.0,0.0,0.0,0.0,0.0,0.0,0.0,0.0,0.0,0.0,0.0,0.0,0.0,0.0,0.0,0.0,0.0,0.0,0.0,0.0,0.0,0.0,0.0,0.0,0.0,0.0,0.0,0.0,0.0,0.0,0.0,0.0,0.0,0.0,0.0,0.0,0.0,0.0,0.0,0.0,0.0,0.0,0.0,0.0,0.0,0.0,0.0,0.0,0.0,0.0,0.0,0.0,0.0,0.0,0.0,0.0,0.0,0.0,0.0,0.0,0.0,0.0,0.0,0.0,0.0,0.0,0.0,0.0,0.0,0.0,0.0,0.0,0.0,0.0,0.491,0.6187,0.6976,0.7988,0.8237,0.7609,0.7183,0.6121,0.4457,0.0,0.0,0.0,0.0,0.0,0.0,0.0,0.0,0.0,0.0,0.0,0.0,0.0,0.0,0.0,0.0,0.0,0.0,0.0,0.0,0.0,0.0,0.0,0.0,0.0,0.0,0.0,0.0,0.0,0.0,0.0,0.0,0.0,0.0,0.0,0.0,0.0,0.0,0.0729,0.0684,0.0,0.0,0.0,0.0,0.0,0.0,0.0,0.0,0.097,0.0,0.0,0.0,0.0,0.0,0.0,0.0,0.0,0.0,0.0,0.0,0.0,0.0,0.0,0.0,0.0,0.0,0.0,0.0,0.0,0.0,0.0,0.0,0.0,0.0,0.0,0.0,0.0,0.0,0.0,0.0,0.0,0.0,0.0,0.0,0.0,0.0,0.0,0.0,0.0,0.0,0.0,0.0,0.0,0.0,0.0,0.0,0.0,0.0,0.0,0.0,0.0,0.0,0.0,0.0,0.0,0.4134,0.4986,0.6054,0.7358,0.7604,0.7783,0.7999,0.7578,0.6733,0.5376,0.0,0.0,0.0,0.0,0.0,0.0,0.0,0.0,0.0,0.0,0.0,0.0,0.0,0.0,0.0,0.0,0.0,0.0,0.0,0.0,0.0,0.0,0.0,0.0,0.0,0.0,0.0,0.0,0.0,0.0,0.0,0.0,0.0,0.0,0.0,0.0,0.0,0.0,0.0,0.3258,0.2598,0.0,0.0,0.0,0.0,0.0,0.0,0.0,0.0,0.1661,0.0,0.0,0.0,0.0,0.0,0.0,0.0,0.0,0.0,0.0,0.0,0.0,0.0,0.0,0.0,0.0,0.0,0.0,0.0,0.0,0.0,0.0,0.0,0.0,0.0,0.0,0.0,0.0,0.0,0.0,0.0,0.0,0.0,0.0,0.0,0.0,0.0,0.0,0.0,0.0,0.0,0.0,0.0,0.0,0.0,0.0,0.0,0.0,0.0,0.0,0.0,0.0,0.0,0.0,0.0,0.4392,0.5566,0.6749,0.8058,0.8089,0.8246,0.838,0.8093,0.7122,0.0,0.0,0.0,0.0,0.0,0.0,0.0,0.0,0.0,0.0,0.0,0.0,0.0,0.0,0.0,0.0,0.0,0.0,0.0,0.0,0.0,0.0,0.0,0.0,0.0,0.0,0.0,0.0,0.0,0.0,0.0,0.0,0.0,0.0,0.0,0.0,0.0,0.0,0.0,0.0,0.3357,0.3424,0.3579,0.0,0.0,0.0,0.0,0.0,0.0,0.2922,0.2577,0.0,0.0,0.0,0.0,0.0,0.0,0.0,0.0,0.0,0.0,0.0,0.0,0.0,0.0,0.0,0.0,0.0,0.0,0.0,0.0,0.0,0.0,0.0,0.0,0.0,0.0,0.0,0.0,0.0,0.0,0.0,0.0,0.0,0.0,0.0,0.0,0.0,0.0,0.0,0.0,0.0,0.0,0.0,0.0,0.0,0.0,0.0,0.0,0.0,0.0,0.0,0.0,0.0,0.0,0.0,0.4557,0.6018,0.7356,0.8579,0.8571,0.8672,0.8817,0.8311,0.7158,0.0,0.0,0.0,0.0,0.0,0.0,0.0,0.0,0.0,0.0,0.0,0.0,0.0,0.0,0.0,0.0,0.0,0.0,0.0,0.0,0.0,0.0,0.0,0.0,0.0,0.0,0.0,0.0,0.0,0.0,0.0,0.0,0.0,0.0,0.0,0.0,0.0,0.0,0.0,0.0,0.0,0.3824,0.4047,0.3439,0.0,0.0,0.0,0.0,0.3131,0.3203,0.0,0.0,0.0,0.0,0.0,0.0,0.0,0.0,0.0,0.0,0.0,0.0,0.0,0.0,0.0,0.0,0.0,0.0,0.0,0.0,0.0,0.0,0.0,0.0,0.0,0.0,0.0,0.0,0.0,0.0,0.0,0.0,0.0,0.0,0.0,0.0,0.0,0.0,0.0,0.0,0.0,0.0,0.0,0.0,0.0,0.0,0.0,0.0,0.0,0.0,0.0,0.0,0.0,0.0,0.0,0.0,0.4796,0.5783,0.7016,0.8299,0.8193,0.8436,0.9157,0.7746,0.6637,0.0,0.0,0.0,0.0,0.0,0.0,0.0,0.0,0.0,0.0,0.0,0.0,0.0,0.0,0.0,0.0,0.0,0.0,0.0,0.0,0.0,0.0,0.0,0.0,0.0,0.0,0.0,0.0,0.0,0.0,0.0,0.0,0.0,0.0,0.0,0.0,0.0,0.0,0.0,0.0,0.0,0.4082,0.3733,0.3474,0.3322,0.0,0.0,0.3716,0.3808,0.399,0.0,0.0,0.0,0.0,0.0,0.0,0.0,0.0,0.0,0.0,0.0,0.0,0.0,0.0,0.0,0.0,0.0,0.0,0.0,0.0,0.0,0.0,0.0,0.0,0.0,0.0,0.0,0.0,0.0,0.0,0.0,0.0,0.0,0.0,0.0,0.0,0.0,0.0,0.0,0.0,0.0,0.0,0.0,0.0,0.0,0.0,0.0,0.0,0.0,0.0,0.0,0.0,0.0,0.0,0.0,0.3556,0.4668,0.6288,0.7483,0.812,0.8057,0.8341,0.8919,0.7624,0.6544,0.0,0.0,0.0,0.0,0.0,0.0,0.0,0.0,0.0,0.0,0.0,0.0,0.0,0.0,0.0,0.0,0.0,0.0,0.0,0.0,0.0,0.0,0.0,0.0,0.0,0.0,0.0,0.0,0.0,0.0,0.0,0.0,0.0,0.0,0.0,0.0,0.0,0.0,0.0,0.0,0.0,0.0,0.4316,0.3989,0.0,0.0,0.0,0.3873,0.3925,0.0,0.0,0.0,0.0,0.0,0.0,0.0,0.0,0.0,0.0,0.0,0.0,0.0,0.0,0.0,0.0,0.0,0.0,0.0,0.0,0.0,0.0,0.0,0.0,0.0,0.0,0.0,0.0,0.0,0.0,0.0,0.0,0.0,0.0,0.0,0.0,0.0,0.0,0.0,0.0,0.0,0.0,0.0,0.0,0.0,0.0,0.0,0.0,0.0,0.0,0.0,0.0,0.0,0.0,0.0,0.0,0.0,0.4523,0.6789,0.7955,0.8077,0.813,0.8401,0.8813,0.7816,0.0,0.0,0.0,0.0,0.0,0.0,0.0,0.0,0.0,0.0,0.0,0.0,0.0,0.0,0.0,0.0,0.0,0.0,0.0,0.0,0.0,0.0,0.0,0.0,0.0,0.0,0.0,-0.2446,0.0,0.0,0.0,0.0,0.0,0.0,0.0,0.0,0.0,0.0,0.0,0.0,0.0,0.0,0.4478,0.4657,0.4395,0.4357,0.0,0.0,0.4238,0.426,0.4684,0.475,0.0,0.0,0.0,0.0,0.0,0.0,0.0,0.0,0.0,0.0,0.0,0.0,0.0,0.0,0.0,0.0,0.0,0.0,0.0,0.0,0.0,0.0,0.0,0.0,0.0,0.0,0.0,0.0,-0.0704,0.0,0.0,0.0,0.0,0.0,0.0,0.0,0.0,0.0,0.0,0.0,0.0,0.0,0.0,0.0,0.0,0.0,0.0,0.0,0.0,0.0,0.0,0.0,0.0,0.0,0.4215,0.4548,0.695,0.8256,0.8276,0.8438,0.8794,0.9213,0.8237,0.7174,0.0,0.0,0.0,0.0,0.0,0.0,0.0,0.0,0.0,0.0,0.0,0.0,0.0,0.0,0.0,0.0,0.0,0.0,0.0,0.0,0.0,0.0,0.0,0.0,0.0,0.0,0.0,0.0,0.0,0.0,0.0,0.0,0.0,0.0,0.0,0.0,0.0,0.0,0.0,0.0,0.0,0.4345,0.4328,0.4557,0.4856,0.0,0.0,0.5059,0.5301,0.5815,0.5762,0.455,0.0,0.0,0.0,0.0,0.0,0.0,0.0,0.0,0.0,0.0,0.0,0.0,0.0,0.0,0.0,0.0,0.0,0.0,0.0,0.0,0.0,0.0,0.0,0.0,0.0,-0.0067,0.0,0.0,-0.0401,0.0,0.0,0.0,0.0,0.0,0.0,0.0,0.0,0.0,0.0,0.0,0.0,0.0,0.0,0.0,0.0,0.0,0.0,0.0,0.0,0.0,0.0,0.0,0.0,0.4421,0.5147,0.7472,0.8764,0.8888,0.9071,0.925,0.9429,0.8492,0.759,0.0,0.0,0.0,0.0,0.0,0.0,0.0,0.0,0.0,0.0,0.0,0.0,0.0,0.0,0.0,0.0,0.0,0.0,0.0,0.0,0.0,0.0,0.0,0.0,0.0,0.0,0.0,0.0,0.1354,0.1284,0.2059,0.0,0.0,0.0,0.0,0.0,0.0,0.0,0.0,0.0,0.0,0.4752,0.5287,0.5184,0.0,0.0,0.5373,0.5204,0.4838,0.543,0.5459,0.4335,0.4371,0.0,0.0,0.0,0.0,0.0,0.0,0.0,0.0,0.0,0.0,0.0,0.0,0.0,0.0,0.0,0.0,0.0,0.0,0.0,0.0,0.0,0.0,0.0,0.0,0.0,0.0,0.0,0.0,0.0,0.0,0.0,0.0,0.0,0.0,0.0,0.0,0.0,0.0,0.0,0.0,0.0,0.0,0.0,0.0,0.0,0.0,0.0,0.0,0.0,0.0,0.0,0.0,0.4653,0.5344,0.7714,0.8974,0.9168,0.92,0.9293,0.9345,0.8779,0.8062,0.0,0.0,0.0,0.0,0.0,0.0,0.0,0.0,0.0,0.0,0.0,0.0,0.0,0.0,0.0,0.0,0.0,0.0,0.0,0.0,0.0,0.0,0.0,0.0,0.0,0.0,0.0,0.0,0.1664,0.15,0.238,0.0,0.0,0.0,0.0,0.0,0.0,0.0,0.0,0.0,0.0,0.4988,0.557,0.5537,0.5289,0.5039,0.5059,0.4924,0.4493,0.4875,0.4986,0.431,0.0,0.0,0.0,0.0,0.0,0.0,0.0,0.0,0.0,0.0,0.0,0.0,0.0,0.0,0.0,0.0,0.0,0.0,0.0,0.0,0.0,0.0,0.0,0.0,0.0,0.0,0.0,0.0667,0.0,0.0,0.0424,0.0,0.0,0.0,0.0,0.0,0.0,0.0,0.0,0.0,0.0,0.0,0.0,0.0,0.0,0.0,0.0,0.0,0.0,0.0,0.0,0.0,0.0,0.4841,0.5148,0.748,0.8738,0.8812,0.8824,0.8922,0.9088,0.9092,0.858,0.7496,0.0,0.0,0.0,0.0,0.0,0.0,0.0,0.0,0.0,0.0,0.0,0.0,0.0,0.0,0.0,0.0,0.0,0.0,0.0,0.0,0.0,0.0,0.0,0.0,0.0,0.0,0.1461,0.1288,0.1314,0.0,0.0,0.0,0.0,0.0,0.0,0.0,0.0,0.0,0.0,0.4192,0.502,0.5015,0.5393,0.5117,0.3559,0.3804,0.426,0.4556,0.4387,0.4373,0.0,0.0,0.0,0.0,0.0,0.0,0.0,0.0,0.0,0.0,0.0,0.0,0.0,0.0,0.0,0.0,0.0,0.0,0.0,0.0,0.0,0.0,0.0,0.0,0.0,0.0,0.0,0.266,0.0895,0.0,0.0,0.0,0.0,0.0,0.0,0.0,0.0,0.0,0.0,0.0,0.6302,0.6332,0.0,0.0,0.0,0.0,0.0,0.0,0.0,0.0,0.0,0.0,0.0,0.0,0.5293,0.5897,0.8142,0.94,0.9464,0.9703,0.9669,0.9449,0.9577,0.9045,0.771,0.0,0.0,0.0,0.0,0.0,0.0,0.0,0.0,0.0,0.0,0.0,0.0,0.0,0.0,0.0,0.0,0.0,0.0,0.0,0.0,0.0,0.0,0.0,0.0,0.0,0.1496,0.0,0.0,0.0,0.0,0.0,0.0,0.0,0.0,0.0,0.0,0.0,0.3757,0.4176,0.466,0.5183,0.567,0.5041,0.4467,0.0,0.0,0.0,0.0,0.0,0.0,0.0,0.0,0.0,0.0,0.0,0.0,0.0,0.0,0.7151,0.4935,0.4879,0.5023,0.4329,0.0,0.0,0.0,0.0,0.0,0.0,0.0,0.0,0.0,0.0,0.0,0.0,0.0,0.0,0.5404,0.0,0.258,0.0,0.0,0.0,0.0,0.0,0.0,0.0,0.0,0.6694,0.7985,0.757,0.7692,0.7481,0.0,0.6644,0.5804,0.0,0.0,0.0,0.0,0.0,0.0,0.0,0.0,0.567,0.6345,0.8488,0.9682,0.9569,0.9853,0.9846,0.9512,0.9622,0.9264,0.8306,0.7215,0.6284,0.0,0.0,0.0,0.0,0.0,0.0,0.0,0.0,0.0,0.0,0.0,0.0,0.0,0.0,0.0,0.0,0.0,0.0,0.0,0.0,0.0,0.0,0.0,0.2164,0.0,0.0,0.0,0.0,0.0,0.0,0.0,0.0,0.0,0.3969,0.4165,0.4169,0.3884,0.4409,0.4777,0.4476,0.0,0.0,0.0,0.0,0.0,0.0,0.0,0.2664,0.2487,0.2717,0.3301,0.4541,0.6923,0.8696,0.8549,0.0,0.0,0.5971,0.6086,0.637,0.5916,0.6525,0.7077,0.6889,0.7195,0.7361,0.0,0.0,0.0,0.0,0.0,0.0,0.0,0.0,0.9256,0.8572,0.0,0.5621,0.0,0.0,0.0,0.0,0.0,0.2472,0.0,0.0,0.7973,0.8913,0.8551,0.9113,0.9288,0.8937,0.8385,0.7883,0.7254,0.5818,0.0,0.0,0.0,0.0,0.0,0.0,0.5903,0.6495,0.8412,0.9372,0.9248,0.9415,0.948,0.9335,0.9347,0.9343,0.9298,0.8077,0.7321,0.708,0.3915,0.0,0.0,0.0,0.0,0.0,0.0,0.0,0.0,0.0,0.0,0.0,0.0,0.0,0.0,0.0,0.0,0.0,0.0,0.0,0.0,0.3076,0.0,0.0,0.0,0.0,0.0,0.0,0.0,0.0,0.0,0.0,0.4418,0.483,0.4227,0.2552,0.0,0.0,0.0,0.0,0.2306,0.1683,0.1377,0.1364,0.1451,0.1511,0.1936,0.3115,0.0,0.0,0.4348,0.6874,0.8663,0.8394,0.8772,0.9189,0.8633,0.7985,0.7746,0.8231,0.7994,0.774,0.7862,0.8197,0.8537,0.8218,0.0,0.0,0.0,0.0,0.6091,0.6793,0.8473,0.9857,0.9328,0.732,0.7158,0.0,0.0,0.0,0.0,0.0,0.0,0.4464,0.553,0.8228,0.9521,0.9657,0.9643,0.9537,0.9443,0.9409,0.925,0.897,0.866,0.6847,0.3708,0.0,0.0,0.0,0.0,0.7192,0.7627,0.8714,0.9347,0.9289,0.9444,0.961,0.9671,0.9675,0.9675,0.9675,0.9038,0.8311,0.748,0.6892,0.0,0.0,0.0,0.0,0.0,0.0,0.0,0.0,0.0,0.0,0.0,0.0,0.0,0.0,0.0,0.0,0.0,0.0,0.0,0.2391,0.3949,0.4136,0.0,0.0,0.0,0.0,0.0,0.0,0.0,0.0,0.0,0.233,0.4066,0.5363,0.0,0.0,0.2051,0.1519,0.176,0.2195,0.3033,0.2244,0.0,0.2696,0.2193,0.1761,0.2197,0.3196,0.4167,0.4586,0.6012,0.7246,0.7908,0.7586,0.7858,0.9694,0.9599,0.9351,0.9842,0.9581,0.9211,0.9252,0.9442,0.9642,1.0451,0.91,0.8337,0.8182,0.8468,0.793,0.8523,0.9785,1.0316,0.9839,0.8757,0.8663,0.7803,0.6464,0.6191,0.0,0.0,0.0,0.5992,0.6703,0.8893,0.9981,1.0369,1.0062,0.9839,0.9847,0.9945,0.9981,0.9945,1.0037,0.8597,0.5813,0.0,0.0,0.5706,0.6928,0.7871,0.8329,0.8989,0.9315,0.9213,0.9259,0.9279,0.9482,0.9379,0.9485,0.9485,0.9177,0.8822,0.8181,0.847,0.7431,0.0,0.0,0.0,0.0,0.0,0.0,0.0,0.0,0.0,0.0,0.0,0.1879,0.1599,0.0,0.0,0.0,0.3156,0.3376,0.3639,0.4896,0.0,0.0,0.0,0.0,0.0,0.0,0.0,0.2938,0.3165,0.2898,0.1571,0.3026,0.4411,0.4968,0.3515,0.2251,0.1695,0.0,0.251,0.2978,0.2353,0.2049,0.2653,0.2281,0.1844,0.1964,0.3198,0.404,0.3849,0.5167,0.6124,0.5869,0.6041,0.7018,0.8728,0.8738,0.9007,1.0535,1.0083,0.9463,0.945,0.8995,0.868,1.2102,1.1914,1.0114,0.9664,0.9905,0.9082,0.9381,1.0463,1.0501,1.0201,0.9885,1.0018,0.9364,0.8075,0.7467,0.0,0.8252,0.7537,0.7734,0.8726,0.9722,1.0455,1.071,1.0356,1.0233,1.0249,1.0245,1.0331,1.0469,1.0493,0.9957,0.8889,0.8177,0.7702,0.7635,0.762,0.8046,0.8724,0.9127,0.9355,0.9085,0.901,0.8974,0.8977,0.8974,0.8977,0.8974,0.8977,0.8974,0.8971,0.895,0.8937,0.8886,0.0,0.0,0.0,0.0,0.0,0.0,0.0,0.0,0.0,0.0,0.0,0.0,0.0,0.0,0.3539,0.414,0.0,0.5839,0.563,0.0,0.0,0.0,0.7077,0.3802,0.4415,0.5576,0.6972,0.0,0.0,0.199,0.2111,0.2333,0.272,0.3358,0.3364,0.202,0.2673,0.2971,0.2053,0.1847,0.1849,0.1945,0.1932,0.2062,0.2165,0.3334,0.3594,0.2717,0.4254,0.4887,0.2944,0.4344,0.6151,0.6148,0.6273,0.7141,0.979,0.9348,0.8636,0.8469,0.7633,0.6804,1.2294,1.1763,1.0861,1.0612,1.0909,1.0276,1.0239,1.0496,1.0327,1.0285,1.0183,1.0181,0.9949,0.9606,0.9376,0.9324,0.9468,0.9478,0.9445,0.9404,1.0223,1.0788,1.1065,1.0916,1.0846,1.0964,1.0968,1.0992,1.1021,1.0884,1.042,0.9579,0.9791,0.9112,0.7521,0.7912,0.8385,0.8747,0.8612,0.876,0.9319,0.9259,0.9276,0.9276,0.9168,0.9168,0.9276,0.9168,0.9168,0.9269,0.9059,0.8937,0.8913,0.6719,0.0,0.0,0.0,0.0,0.0,0.0,0.0,0.0,0.0,0.1713,0.2896,0.0,0.4062,0.0,0.3287,0.4323,0.4171,0.3957,0.0,0.0,0.2797,0.3319,0.2471,0.4472,0.6008,0.6236,0.5516,0.4268,0.2258,0.2086,0.2165,0.2267,0.2384,0.2242,0.1957,0.2098,0.2203,0.2071,0.2033,0.2107,0.2089,0.2144,0.2199,0.223,0.252,0.2664,0.2385,0.2803,0.2949,0.2405,0.2699,0.326,0.3371,0.4267,0.475,0.4749,0.5812,0.7122,0.6983,0.6707,0.6585,1.2314,1.1321,1.0907,1.0419,1.0023,1.0577,1.0343,0.9652,0.9226,0.9443,1.0277,1.0178,1.016,1.0156,1.0054,1.0054,1.0128,1.0132,1.0168,1.0144,1.056,1.0866,1.1163,1.0954,1.0711,1.0528,1.0185,0.9838,0.9491,0.9242,0.8778,0.8339,0.9347,0.8598,0.6391,0.6789,0.7455,0.8153,0.7644,0.7523,0.7602,0.7621,0.7695,0.7813,0.8431,0.8579,0.8295,0.8138,0.8151,0.8289,0.8765,0.8581,0.7428,0.5228,0.3639,0.0,0.0,0.0,0.0,0.0,0.0,0.0,0.0,0.0,0.0,0.0,0.4923,0.0993,0.3383,0.5179,0.5207,0.3694,0.2085,0.0572,0.1963,0.2982,0.3077,0.4805,0.6003,0.6074,0.5643,0.4501,0.2346,0.2122,0.216,0.2101,0.202,0.207,0.2058,0.2016,0.208,0.2097,0.2167,0.2221,0.222,0.1975,0.1853,0.1986,0.2134,0.2288,0.2298,0.2292,0.2288,0.2298,0.2305,0.2305,0.2289,0.2884,0.3204,0.2909,0.3456,0.4702,0.5549,0.5121,0.4709,1.1827,1.042,1.017,0.9294,0.8144,0.976,0.9686,0.8494,0.7808,0.8411,0.991,1.0019,1.0019,0.9906,0.9995,1.0083,1.0042,1.0108,1.0292,1.0406,1.037,1.0572,1.081,1.054,1.0204,0.966,0.897,0.8043,0.7117,0.6864,0.6616,0.6389,0.776,0.7118,0.4861,0.4918,0.5661,0.7117,0.6679,0.6222,0.5689,0.5662,0.5856,0.6178,0.7311,0.7613,0.691,0.6902,0.6929,0.7079,0.8317,0.8113,0.6036,0.3835,0.2405,0.0,0.269,0.0,0.0,0.0,0.0,0.0,0.0,0.0,0.0,0.6322,0.5841,0.0483,0.3352,0.585,0.6588,0.4019,0.2097,0.1511,0.2967,0.4044,0.4059,0.4941,0.5557,0.5812,0.4693,0.3499,0.235,0.2107,0.2114,0.2118,0.2134,0.2148,0.2054,0.2189,0.2198,0.2241,0.2248,0.2249,0.212,0.187,0.1598,0.1728,0.2024,0.2334,0.2337,0.2338,0.2339,0.2343,0.2346,0.2344,0.2342,0.2343,0.2347,0.2353,0.2496,0.2925,0.3928,0.3488,0.2624,0.9653,0.8089,0.8027,0.7524,0.669,0.6348,0.6855,0.7706,0.7849,0.8075,0.85,0.8958,0.8845,0.8494,0.8942,0.8862,0.8546,0.9728,0.9698,0.8768,0.8804,0.8813,0.8915,0.8896,0.9261,0.9652,0.8567,0.7077,0.5586,0.6311,0.6233,0.5611,0.6315,0.5682,0.3784,0.0,0.0,0.0,0.6404,0.658,0.6389,0.6785,0.7088,0.715,0.6897,0.0,0.7567,0.7208,0.7431,0.8077,0.7459,0.0,0.0,0.0,0.0,0.0,0.0,0.0,0.0,0.0,0.0,0.0,0.1764,0.322,0.6699,0.8529,0.6833,0.0673,0.0775,0.1885,0.3452,0.4005,0.3869,0.3302,0.2751,0.2432,0.2475,0.3621,0.4029,0.3063,0.3631,0.3541,0.2372,0.2129,0.2146,0.2149,0.2172,0.1927,0.1395,0.194,0.2213,0.2239,0.212,0.2281,0.2313,0.2182,0.2042,0.2182,0.2182,0.2342,0.2365,0.2369,0.238,0.2398,0.2407,0.2399,0.2386,0.2395,0.2408,0.2427,0.2416,0.2391,0.2635,0.2479,0.2333,0.8987,0.0,0.7576,0.6856,0.0,0.5402,0.5749,0.6508,0.6626,0.7019,0.746,0.821,0.8426,0.8127,0.8406,0.8374,0.8036,0.8536,0.8597,0.8249,0.7982,0.7622,0.7184,0.7674,0.8254,0.8685,0.6832,0.5369,0.4174,0.4208,0.4076,0.3672,0.3934,0.3658,0.277,0.2268,0.2709,0.4254,0.4728,0.4711,0.4281,0.4985,0.5349,0.5613,0.5074,0.0,0.0,0.0,0.0,0.0,0.0,0.0,0.0,0.0,0.0,0.2539,0.2134,0.1705,0.1306,0.131,0.1751,0.2639,0.2269,0.3392,0.6741,0.8193,0.7773,0.5088,0.2645,0.15,0.2446,0.2967,0.3243,0.287,0.2387,0.2026,0.2166,0.2694,0.2842,0.2345,0.2771,0.2935,0.2286,0.2166,0.2183,0.2197,0.2212,0.2094,0.1694,0.1973,0.2115,0.1998,0.2153,0.2311,0.2329,0.2336,0.2343,0.2351,0.2355,0.2367,0.2395,0.24,0.2407,0.2421,0.2423,0.242,0.2413,0.2418,0.2427,0.2435,0.2431,0.2416,0.2383,0.2378,0.2525,0.8507,0.7325,0.7318,0.6594,0.5384,0.5396,0.5453,0.5527,0.0,0.0,0.0,0.7464,0.7786,0.7783,0.7783,0.7722,0.753,0.718,0.7238,0.7749,0.7267,0.651,0.5642,0.6334,0.6771,0.6847,0.489,0.3466,0.2772,0.2231,0.1894,0.1896,0.1924,0.1939,0.1941,0.1841,0.206,0.2564,0.2869,0.2672,0.1933,0.2522,0.3108,0.3597,0.332,0.3598,0.4503,0.4475,0.4804,0.5606,0.539,0.4483,0.3041,0.1734,0.0848,0.0486,0.1703,0.2085,0.1141,0.1377,0.2,0.3095,0.2417,0.2876,0.5094,0.6073,0.7072,0.836,0.4639,0.2206,0.2197,0.2194,0.2065,0.2065,0.2065,0.2067,0.208,0.2101,0.2121,0.2133,0.2157,0.218,0.2203,0.2207,0.2217,0.2239,0.2248,0.2268,0.2297,0.2301,0.2161,0.1894,0.2188,0.2337,0.2349,0.2354,0.236,0.2383,0.2386,0.2397,0.2423,0.2432,0.2434,0.2444,0.244,0.2442,0.2441,0.2444,0.2439,0.2439,0.244,0.244,0.244,0.244,0.2587,0.6576,0.6021,0.6035,0.5822,0.5388,0.5457,0.5543,0.5858,0.5612,0.5614,0.5741,0.5988,0.594,0.5849,0.5963,0.5956,0.5836,0.5828,0.5913,0.0,0.5356,0.4661,0.4166,0.4275,0.4125,0.3845,0.3354,0.2735,0.212,0.191,0.1925,0.1928,0.1956,0.197,0.1971,0.1357,0.1231,0.1221,0.1829,0.1879,0.1224,0.1809,0.2271,0.2341,0.2747,0.3317,0.4006,0.3929,0.4568,0.5604,0.4215,0.2498,0.0716,0.3248,0.3933,0.1964,0.2096,0.1853,0.1118,0.1634,0.2033,0.2305,0.2189,0.2183,0.2411,0.1608,0.1733,0.3083,0.2635,0.212,0.2074,0.2067,0.2071,0.2069,0.2066,0.2084,0.2135,0.2146,0.2168,0.2213,0.223,0.2232,0.224,0.2241,0.2245,0.2251,0.1995,0.2162,0.2348,0.2347,0.2343,0.2214,0.2351,0.236,0.2392,0.2411,0.2414,0.2416,0.2417,0.2427,0.2457,0.2463,0.247,0.2495,0.2495,0.2497,0.2497,0.2502,0.2496,0.2494,0.2494,0.2495,0.2495,0.2495,0.2482,0.5886,0.5822,0.5601,0.5518,0.5461,0.5596,0.568,0.5843,0.5772,0.5763,0.572,0.5718,0.5667,0.558,0.5529,0.5277,0.494,0.502,0.5339,0.5548,0.4648,0.3694,0.2951,0.3299,0.3521,0.3498,0.2774,0.2284,0.1914,0.1577,0.1466,0.1467,0.1477,0.1606,0.1977,0.173,0.1359,0.0987,0.1669,0.1873,0.1521,0.1144,0.0904,0.0904,0.1262,0.1503,0.1735,0.2429,0.2777,0.2663,0.2546,0.1736,0.0232,0.2385,0.3315,0.2146,0.2164,0.2044,0.1661,0.1942,0.1697,0.1044,0.171,0.2122,0.2005,0.0776,0.0639,0.2086,0.2263,0.2151,0.2138,0.2138,0.2144,0.2161,0.2162,0.2173,0.2197,0.2204,0.2215,0.2241,0.2245,0.2258,0.2148,0.2151,0.2165,0.2188,0.1619,0.1336,0.18,0.2244,0.2388,0.2399,0.2392,0.2395,0.2421,0.2454,0.2463,0.2452,0.2448,0.2461,0.2487,0.2493,0.2499,0.251,0.2514,0.2514,0.2514,0.2514,0.2514,0.2514,0.2514,0.2514,0.2514,0.2514,0.2504,0.5591,0.568,0.5483,0.5453,0.5578,0.572,0.5794,0.5818,0.5515,0.5374,0.5425,0.5662,0.5612,0.5407,0.5338,0.4964,0.4398,0.4462,0.4773,0.5092,0.4169,0.308,0.2214,0.2679,0.303,0.3152,0.2062,0.1698,0.1823,0.1351,0.0865,0.0741,0.0741,0.0988,0.1483,0.1859,0.1615,0.0869,0.1242,0.1612,0.1483,0.0495,-0.0,-0.0,-0.0,-0.0,-0.0,0.1373,0.1622,0.0624,0.1372,0.1368,0.0618,0.1504,0.2168,0.2207,0.22,0.2071,0.2084,0.198,0.1331,0.0133,0.1349,0.2048,0.1513,0.0671,0.0661,0.1872,0.2164,0.2186,0.2202,0.2208,0.2219,0.2243,0.2245,0.2244,0.2254,0.226,0.2269,0.2273,0.2138,0.2019,0.2196,0.2209,0.2074,0.1655,0.1062,0.0912,0.1217,0.1981,0.2444,0.2442,0.2438,0.2436,0.2443,0.248,0.2499,0.2481,0.2479,0.2489,0.2507,0.2513,0.2514,0.2514,0.2514,0.2514,0.2514,0.2514,0.2514,0.2514,0.2514,0.2514,0.2514,0.2514,0.2514,0.5173,0.5263,0.5349,0.5527,0.5622,0.5774,0.5708,0.5649,0.4676,0.415,0.4216,0.5298,0.537,0.4947,0.4695,0.4339,0.3764,0.382,0.3876,0.3929,0.3575,0.2837,0.1849,0.1971,0.1849,0.1231,0.0492,0.0492,0.1477,0.111,0.0617,0.0124,0.0124,-0.0,0.0247,0.1251,0.126,0.0126,0.0126,0.025,0.0124,-0.0,-0.0,-0.0,-0.0,-0.0,-0.0,0.1415,0.2058,0.1931,0.1411,0.1395,0.1739,0.2006,0.2059,0.2132,0.2093,0.2087,0.214,0.1631,0.0957,0.0137,0.1384,0.1675,0.042,0.0139,0.0557,0.1813,0.2234,0.2239,0.2241,0.2241,0.2244,0.2252,0.2253,0.2256,0.2286,0.2309,0.2335,0.2216,0.1784,0.1506,0.1957,0.2112,0.1663,0.076,0.1226,0.1694,0.1541,0.2017,0.2497,0.2495,0.2476,0.247,0.2492,0.2507,0.2511,0.2508,0.2508,0.251,0.2513,0.2514,0.2514,0.2514,0.2514,0.2514,0.2514,0.2514,0.2514,0.2514,0.2514,0.2514,0.2514,0.2514,0.2514,0.5114,0.5251,0.5343,0.5537,0.5534,0.4983,0.4038,0.2951,0.2681,0.2419,0.2283,0.2739,0.2836,0.2818,0.2558,0.2106,0.1551,0.1922,0.2427,0.2583,0.1231,-0.0369,-0.1844,-0.1106,-0.0861,-0.123,-0.2337,-0.283,-0.2707,-0.2583,-0.1722,-0.0369,-0.1476,-0.3078,-0.4318,-0.2603,-0.1873,-0.2519,-0.2373,-0.2375,-0.2271,-0.0877,-0.0,-0.0,-0.0,-0.0754,-0.2013,-0.176,-0.0377,0.176,0.1131,0.1008,0.2028,0.2023,0.2028,0.205,0.2077,0.2109,0.2152,0.1895,0.1629,0.1357,0.1926,0.1808,0.0841,0.0281,0.0564,0.2006,0.2298,0.2293,0.2275,0.2272,0.2279,0.2296,0.2313,0.2328,0.2341,0.1924,0.1794,0.2104,0.2113,0.152,0.1071,0.0925,0.0928,0.062,0.1089,0.1246,0.1872,0.235,0.2512,0.2512,0.2499,0.2497,0.2512,0.2514,0.2514,0.2514,0.2514,0.2514,0.2514,0.2514,0.2514,0.2514,0.2514,0.2514,0.2514,0.2514,0.2514,0.2514,0.2514,0.2514,0.2514,0.2514,0.2514,0.4475,0.4517,0.441,0.4916,0.5585,0.4291,0.2332,0.0244,0.0725,0.0718,0.0237,-0.0235,-0.0469,-0.0352,-0.0,-0.0,-0.0481,-0.0242,0.0608,0.1229,-0.1107,-0.369,-0.5908,-0.5165,-0.4548,-0.4671,-0.5167,-0.5784,-0.6151,-0.6126,-0.4775,-0.3189,-0.43,-0.605,-0.7712,-0.5976,-0.5152,-0.5345,-0.5295,-0.5199,-0.5153,-0.3416,-0.1999,-0.1124,-0.0376,-0.1379,-0.4255,-0.4123,-0.237,0.0749,0.0125,0.0504,0.2059,0.1404,0.0759,0.0504,0.0521,0.0934,0.175,0.1897,0.2039,0.217,0.2195,0.2083,0.1541,0.0989,0.114,0.2012,0.2311,0.2301,0.2019,0.2021,0.1886,0.2045,0.2071,0.2089,0.2232,0.1808,0.1521,0.1675,0.1529,0.1534,0.0929,0.078,0.0941,0.1098,0.0942,0.0942,0.22,0.2514,0.2514,0.2514,0.2514,0.2513,0.2514,0.2514,0.2514,0.2514,0.2514,0.2514,0.2514,0.2514,0.2514,0.2514,0.2514,0.2514,0.2514,0.2514,0.2514,0.2514,0.2514,0.2514,0.2514,0.2514,0.2514,0.3145,0.2699,0.2235,0.3503,0.5671,0.3936,0.0975,-0.2529,-0.1082,-0.0828,-0.1851,-0.3272,-0.435,-0.4469,-0.2259,-0.144,-0.2049,-0.2801,-0.1836,0.0123,-0.3189,-0.665,-0.9532,-0.9532,-0.9271,-0.8735,-0.75,-0.7138,-0.7266,-0.8167,-0.9029,-0.9148,-0.8041,-0.7973,-0.8338,-0.7928,-0.7917,-0.7724,-0.7852,-0.8149,-0.789,-0.7928,-0.6304,-0.3726,-0.1428,-0.2074,-0.5018,-0.45,-0.321,-0.18,-0.1155,-0.0,0.1546,-0.0515,-0.2327,-0.2747,-0.2954,-0.1765,0.054,0.1235,0.1662,0.2065,0.2219,0.2242,0.2103,0.2,0.201,0.2117,0.2118,0.199,0.1016,0.1024,0.1175,0.1316,0.1193,0.1501,0.2088,0.1973,0.1539,-0.0,-0.0,-0.0,0.2038,0.2356,0.1885,0.1727,0.1884,0.2354,0.2352,0.2511,0.2511,0.2513,0.2514,0.2514,0.2514,0.2514,0.2514,0.2514,0.2514,0.2514,0.2514,0.2514,0.2514,0.2514,0.2514,0.2514,0.2514,0.2514,0.2514,0.2514,0.2514,0.2514,0.2514,0.2514,0.2514,0.1965,0.1822,0.1639,0.2273,0.3152,0.192,-0.0952,-0.4386,-0.3398,-0.3382,-0.4197,-0.5039,-0.5639,-0.5758,-0.5487,-0.5072,-0.4875,-0.5348,-0.4988,-0.4403,-0.6454,-0.8257,-0.9346,-0.9466,-0.9413,-0.9351,-0.8806,-0.8409,-0.8363,-0.8699,-0.8998,-0.9106,-0.8623,-0.8312,-0.8303,-0.8228,-0.8307,-0.8274,-0.7964,-0.7727,-0.7715,-0.7372,-0.6534,-0.5608,-0.5285,-0.4836,-0.4646,-0.4133,-0.338,-0.2382,-0.2024,-0.1392,-0.0503,-0.3886,-0.527,-0.3681,-0.411,-0.3742,-0.2015,-0.0,0.1498,0.2174,0.2199,0.208,0.2223,0.2253,0.1848,0.1134,0.169,0.0994,-0.1446,-0.0872,0.0436,-0.0,-0.0,-0.0,0.0753,0.0758,0.0612,-0.0,-0.0,-0.0,0.1096,0.1885,0.235,0.2178,0.233,0.2487,0.2487,0.2486,0.2494,0.2509,0.2514,0.2357,0.2042,0.2357,0.2514,0.2514,0.2514,0.2514,0.2514,0.2514,0.2514,0.2514,0.2514,0.2517,0.2518,0.2521,0.252,0.2523,0.2523,0.2526,0.2514,0.2521,0.2519,0.0112,-0.0,-0.0235,-0.0,0.0358,-0.0472,-0.2809,-0.5955,-0.565,-0.5639,-0.6021,-0.6279,-0.6527,-0.6892,-0.7696,-0.779,-0.7266,-0.7469,-0.7475,-0.7498,-0.8561,-0.9238,-0.9304,-0.9291,-0.9265,-0.9238,-0.9074,-0.8979,-0.8897,-0.8754,-0.8826,-0.8857,-0.8614,-0.8425,-0.8274,-0.8296,-0.8223,-0.8036,-0.7601,-0.7252,-0.7093,-0.6655,-0.6213,-0.6175,-0.6726,-0.6343,-0.4354,-0.4074,-0.3703,-0.3106,-0.3262,-0.3152,-0.3161,-0.6031,-0.6816,-0.477,-0.5053,-0.5342,-0.4571,-0.2167,-0.0136,0.0678,0.096,0.1106,0.1107,0.18,0.1117,-0.0141,-0.1707,-0.2717,-0.3308,-0.3305,-0.2157,-0.0,-0.0,-0.0,-0.0,-0.0,-0.0,0.0765,-0.0,0.077,0.093,0.1862,0.2324,0.2468,0.247,0.2471,0.2171,0.2173,0.2333,0.2509,0.2514,0.2357,0.22,0.2357,0.2514,0.2514,0.2514,0.2514,0.2514,0.2514,0.2514,0.2514,0.2517,0.252,0.2524,0.2527,0.2533,0.2538,0.2549,0.2557,0.2544,0.2532,0.2534,-0.2794,-0.2659,-0.3447,-0.3209,-0.2702,-0.2689,-0.4414,-0.6904,-0.7581,-0.7288,-0.6907,-0.7185,-0.7584,-0.8172,-0.8512,-0.8803,-0.87,-0.8787,-0.8676,-0.8494,-0.918,-0.9402,-0.9288,-0.9305,-0.9248,-0.8978,-0.876,-0.8666,-0.8898,-0.857,-0.8508,-0.8704,-0.8361,-0.8167,-0.8549,-0.816,-0.7944,-0.7612,-0.7353,-0.6971,-0.6451,-0.6309,-0.5872,-0.5414,-0.5524,-0.5447,-0.4925,-0.4229,-0.398,-0.4027,-0.4671,-0.55,-0.5768,-0.6419,-0.6329,-0.6207,-0.6395,-0.6675,-0.6777,-0.4826,-0.2912,-0.193,-0.1529,-0.0979,-0.0558,0.0687,0.0549,-0.2244,-0.5731,-0.7397,-0.4298,-0.6164,-0.648,-0.0,-0.0,-0.0,-0.0,-0.0,0.0606,0.1667,0.197,0.2272,0.2274,0.2134,0.2142,0.2157,0.2315,0.2166,0.1403,0.1249,0.1568,0.2042,0.2043,0.1885,0.22,0.2514,0.2514,0.2514,0.2514,0.2514,0.2514,0.2514,0.2514,0.2515,0.2526,0.2531,0.2555,0.256,0.2568,0.2575,0.2583,0.2583,0.257,0.2559,0.2559,-0.3466,-0.368,-0.3944,-0.4299,-0.473,-0.4676,-0.5886,-0.7685,-0.79,-0.7918,-0.785,-0.8115,-0.836,-0.8593,-0.898,-0.9057,-0.8868,-0.8879,-0.8974,-0.9265,-0.9435,-0.9198,-0.8819,-0.901,-0.8962,-0.8525,-0.8292,-0.8306,-0.8383,-0.827,-0.8248,-0.8315,-0.7837,-0.7367,-0.7188,-0.7071,-0.6962,-0.6713,-0.6315,-0.5915,-0.5647,-0.5247,-0.4832,-0.4677,-0.4635,-0.4849,-0.5195,-0.4483,-0.4334,-0.4736,-0.5041,-0.5657,-0.6201,-0.5627,-0.5529,-0.636,-0.6517,-0.6527,-0.6099,-0.4874,-0.3493,-0.2509,-0.1817,-0.14,-0.1402,-0.1119,-0.1681,-0.3686,-0.7073,-0.8297,-0.724,-0.7972,-0.8143,-0.6564,-0.0,-0.0,-0.0,0.0896,0.1198,0.0901,0.1649,0.2258,0.2131,0.1682,0.1073,0.1078,0.1697,0.1857,0.0775,-0.0,0.0467,0.0784,0.0941,-0.0,0.1728,0.22,0.2514,0.2514,0.2514,0.2514,0.2514,0.2515,0.2515,0.2525,0.2536,0.2553,0.2577,0.2592,0.2598,0.2601,0.2603,0.2598,0.2591,0.2589,0.2589,-0.4238,-0.4665,-0.4922,-0.5258,-0.5564,-0.583,-0.749,-0.93,-0.8722,-0.8536,-0.8943,-0.8845,-0.8739,-0.8735,-0.8845,-0.8907,-0.8725,-0.892,-0.9041,-0.9185,-0.9132,-0.8913,-0.8583,-0.8586,-0.8528,-0.8196,-0.8147,-0.8052,-0.8114,-0.7917,-0.777,-0.779,-0.729,-0.6653,-0.6166,-0.6313,-0.6319,-0.6051,-0.5647,-0.5247,-0.4978,-0.4575,-0.4307,-0.4301,-0.427,-0.4649,-0.5172,-0.487,-0.4965,-0.5474,-0.5663,-0.5889,-0.5988,-0.5121,-0.4881,-0.5527,-0.5655,-0.5651,-0.5245,-0.4567,-0.4032,-0.3478,-0.3072,-0.3079,-0.3228,-0.3685,-0.4297,-0.5718,-0.7807,-0.9037,-0.8729,-0.8892,-0.891,-0.7593,-0.5397,-0.2486,-0.0738,0.0887,0.1331,0.1186,0.1783,0.2249,0.1969,0.1681,0.0614,0.0462,0.0926,0.1393,-0.0,-0.0,-0.0,-0.0,-0.0,-0.0,-0.0,0.1885,0.2514,0.2514,0.2514,0.2514,0.2514,0.2515,0.2516,0.2545,0.2562,0.2578,0.26,0.2614,0.2624,0.2624,0.2628,0.263,0.263,0.2621,0.2619,-0.5111,-0.5609,-0.6372,-0.6353,-0.5933,-0.6808,-0.8933,-1.1533,-1.0181,-0.9717,-1.0036,-0.9393,-0.9061,-0.9054,-0.9061,-0.894,-0.8712,-0.9296,-0.9181,-0.8644,-0.8521,-0.8605,-0.866,-0.8402,-0.8207,-0.8113,-0.7929,-0.7972,-0.7959,-0.7415,-0.7151,-0.6956,-0.6569,-0.6046,-0.5642,-0.6049,-0.5783,-0.5381,-0.5247,-0.4978,-0.4441,-0.4307,-0.4307,-0.4307,-0.4437,-0.4835,-0.5367,-0.5624,-0.5865,-0.6347,-0.6269,-0.6049,-0.555,-0.4832,-0.4552,-0.4478,-0.4322,-0.4473,-0.4475,-0.4531,-0.483,-0.525,-0.5292,-0.5883,-0.6049,-0.5859,-0.6204,-0.7453,-0.8529,-0.916,-0.9163,-0.9323,-0.816,-0.5972,-0.5981,-0.4529,-0.0,-0.0,0.0588,0.1618,0.2219,0.2243,0.2111,0.1822,0.1222,-0.0,-0.0,-0.0,-0.0,-0.0,-0.0,-0.0,-0.0,-0.0,-0.0,0.1571,0.2042,0.2043,0.22,0.2357,0.2514,0.2515,0.2532,0.2562,0.2583,0.2601,0.2624,0.2641,0.2656,0.2663,0.2668,0.2672,0.2665,0.2488,0.2482,-0.5958,-0.6383,-0.6636,-0.7073,-0.749,-0.7811,-0.9258,-1.1515,-1.1674,-1.163,-1.1459,-1.0245,-1.0029,-1.0789,-1.0245,-1.0143,-1.0063,-1.0151,-1.0205,-0.9809,-0.8398,-0.8164,-0.8374,-0.8173,-0.7942,-0.7842,-0.7485,-0.7357,-0.7466,-0.6799,-0.6496,-0.604,-0.578,-0.5377,-0.4839,-0.4842,-0.471,-0.4575,-0.4575,-0.4575,-0.4307,-0.4307,-0.4307,-0.4307,-0.4844,-0.5381,-0.6183,-0.6715,-0.6708,-0.6423,-0.6435,-0.6227,-0.5737,-0.4916,-0.4503,-0.4522,-0.4549,-0.4707,-0.5121,-0.5273,-0.5566,-0.6266,-0.6264,-0.6465,-0.6671,-0.6715,-0.7193,-0.7935,-0.842,-0.8721,-0.916,-0.9321,-0.8752,-0.7888,-0.54,-0.2488,-0.0,-0.0,0.0148,0.0595,0.165,0.167,0.1076,-0.0,-0.0,-0.0,-0.0,-0.0,-0.0,-0.0,-0.0,-0.0,-0.0,-0.0,-0.0,-0.0,0.1571,0.1571,0.1728,0.22,0.2357,0.2515,0.2545,0.2581,0.2589,0.2604,0.2646,0.2678,0.269,0.2691,0.2688,0.2683,0.2517,0.2343,0.2509,-0.6932,-0.8036,-0.8146,-0.8582,-0.923,-0.8653,-1.0206,-1.293,-1.3686,-1.3426,-1.255,-1.1227,-1.0794,-1.1118,-1.0688,-1.0516,-1.0699,-1.0903,-1.0768,-1.009,-0.7937,-0.7422,-0.7856,-0.7747,-0.7503,-0.7401,-0.6916,-0.676,-0.6713,-0.6177,-0.5867,-0.5638,-0.5247,-0.4707,-0.4438,-0.4305,-0.4307,-0.4307,-0.4307,-0.4307,-0.4307,-0.4575,-0.4575,-0.4575,-0.5247,-0.6183,-0.6851,-0.7247,-0.7116,-0.6585,-0.6321,-0.6082,-0.5315,-0.5278,-0.5138,-0.5057,-0.5218,-0.5503,-0.5781,-0.592,-0.633,-0.6737,-0.6876,-0.7199,-0.7555,-0.7755,-0.8111,-0.8486,-0.8547,-0.8863,-0.916,-0.9321,-0.8604,-0.7003,-0.4081,-0.1466,-0.0297,-0.0,-0.0,-0.0,0.0609,-0.0,-0.0,-0.0,-0.0,-0.0,-0.0,-0.0,-0.0,-0.0,-0.0,-0.0,-0.0,-0.0,-0.0,-0.0,-0.0,0.1257,0.1885,0.22,0.22,0.2358,0.2543,0.2574,0.259,0.2613,0.2652,0.2683,0.2692,0.2692,0.2692,0.2524,0.2355,0.2355,0.2524,-0.8149,-0.9908,-1.0233,-1.0538,-1.0724,-0.9798,-1.1593,-1.5019,-1.5338,-1.463,-1.3315,-1.2091,-1.145,-1.0911,-1.1067,-1.0588,-1.0599,-1.098,-1.087,-0.9689,-0.7785,-0.6508,-0.7001,-0.6888,-0.6764,-0.6673,-0.6345,-0.6163,-0.5964,-0.5565,-0.5372,-0.5248,-0.4711,-0.4577,-0.4575,-0.4441,-0.4441,-0.4441,-0.4307,-0.4441,-0.4575,-0.4978,-0.5111,-0.4977,-0.5915,-0.6851,-0.7383,-0.7514,-0.725,-0.6585,-0.6317,-0.5518,-0.4581,-0.5651,-0.6319,-0.6055,-0.6205,-0.6341,-0.6462,-0.6478,-0.6866,-0.7411,-0.7548,-0.7711,-0.8407,-0.8809,-0.8922,-0.9042,-0.9247,-0.9294,-0.9304,-0.9321,-0.8307,-0.6702,-0.5388,-0.381,-0.163,-0.0,-0.0,-0.0,-0.0,-0.0,-0.0,-0.0,-0.0,-0.0,-0.0,-0.0,-0.0,-0.0,-0.0,-0.0,-0.0,-0.0,-0.0,-0.0,-0.0,0.1099,0.1885,0.2357,0.2043,0.2205,0.238,0.256,0.2577,0.2604,0.2639,0.2663,0.2679,0.2692,0.2692,0.2356,0.2188,0.2524,0.2524,-0.9467,-1.0233,-1.1214,-1.1755,-1.1964,-1.1729,-1.2512,-1.3867,-1.4407,-1.4266,-1.3645,-1.2323,-1.211,-1.2559,-1.2032,-1.1595,-1.0506,-1.074,-1.0848,-1.0364,-0.7334,-0.5527,-0.5282,-0.5655,-0.6154,-0.6073,-0.5586,-0.5404,-0.5316,-0.5022,-0.4574,-0.4704,-0.5091,-0.5111,-0.5108,-0.5103,-0.5111,-0.5112,-0.471,-0.4711,-0.5114,-0.5381,-0.5647,-0.5915,-0.6715,-0.7517,-0.8051,-0.7781,-0.7381,-0.6846,-0.5914,-0.5112,-0.4844,-0.5781,-0.6851,-0.7383,-0.6851,-0.6585,-0.6982,-0.725,-0.7519,-0.8202,-0.827,-0.8507,-0.8764,-0.9016,-0.9136,-0.9239,-0.9291,-0.9302,-0.9304,-0.9321,-0.8887,-0.816,-0.7879,-0.7776,-0.6685,-0.2996,-0.0,-0.0,-0.0,-0.0,-0.0,-0.0,-0.0,-0.0,-0.0,-0.0,-0.0,-0.0,-0.0,-0.0,-0.0,-0.0,-0.0,-0.0,-0.0,-0.0,0.1414,0.22,0.2042,0.2044,0.2215,0.2389,0.2566,0.2433,0.2294,0.2478,0.2493,0.2508,0.252,0.2346,0.2175,0.2515,0.2686,-1.1237,-1.2091,-1.2743,-1.329,-1.3614,-1.3851,-1.3959,-1.3732,-1.3418,-1.3537,-1.3527,-1.255,-1.2441,-1.2559,-1.1784,-1.085,-1.0311,-0.9834,-0.9766,-0.9174,-0.7081,-0.5533,-0.5161,-0.541,-0.591,-0.5935,-0.5713,-0.564,-0.5406,-0.5236,-0.517,-0.4879,-0.5407,-0.5818,-0.5988,-0.5863,-0.588,-0.5778,-0.5515,-0.5515,-0.5783,-0.6182,-0.6717,-0.7252,-0.7517,-0.7784,-0.8451,-0.8318,-0.8051,-0.7784,-0.6982,-0.5915,-0.5647,-0.6583,-0.7786,-0.8187,-0.8053,-0.7519,-0.7784,-0.792,-0.821,-0.8666,-0.8736,-0.8867,-0.8981,-0.9087,-0.9166,-0.9264,-0.9302,-0.9304,-0.9304,-0.931,-0.9318,-0.9321,-0.9329,-0.9389,-0.8762,-0.6462,-0.3047,-0.0,-0.0,-0.0,-0.0,-0.0,-0.0,-0.0,-0.0,-0.0,-0.0,-0.0,-0.0,-0.0,-0.0,-0.0,-0.0,-0.0,-0.0,-0.0,0.0628,0.1257,0.1414,0.1573,0.1891,0.1902,0.1913,0.1927,0.1785,0.1963,0.214,0.1984,0.1824,0.1991,0.2155,0.2149,0.2321,-1.2651,-1.3948,-1.4169,-1.4493,-1.4939,-1.529,-1.4849,-1.3943,-1.2793,-1.2601,-1.2975,-1.2772,-1.2223,-1.1796,-1.0843,-1.0262,-0.9635,-0.8239,-0.7657,-0.7367,-0.6909,-0.635,-0.6237,-0.6117,-0.6137,-0.6046,-0.6068,-0.5976,-0.5984,-0.6196,-0.5871,-0.568,-0.6058,-0.6513,-0.6701,-0.6718,-0.65,-0.6573,-0.6317,-0.6317,-0.6583,-0.7116,-0.765,-0.8184,-0.8051,-0.8051,-0.8454,-0.8587,-0.8587,-0.8587,-0.8587,-0.792,-0.7388,-0.7786,-0.8587,-0.8587,-0.8454,-0.8451,-0.8454,-0.8592,-0.8762,-0.8739,-0.8791,-0.8886,-0.9035,-0.912,-0.9338,-0.9253,-0.9304,-0.9304,-0.9304,-0.9304,-0.9304,-0.9304,-0.9304,-0.9356,-0.9459,-0.9612,-0.6526,-0.0,-0.0,-0.0,-0.0,-0.0,-0.0,-0.0,-0.0,-0.0,-0.0,-0.0,-0.0,-0.0,-0.0,-0.0,-0.0,-0.0,-0.0,-0.0,-0.0,-0.0,-0.0,0.0943,0.1101,0.1103,0.1109,-0.0,-0.0,0.113,0.1137,0.1143,0.1147,0.1149,0.131,0.1792,0.1964,-1.2666,-1.2762,-1.3738,-1.4272,-1.4385,-1.4498,-1.4078,-1.33,-1.2276,-1.1959,-1.2219,-1.1896,-1.1782,-1.1599,-1.1637,-1.0919,-0.9164,-0.7023,-0.5299,-0.5716,-0.63,-0.712,-0.7153,-0.6788,-0.6696,-0.6532,-0.6391,-0.6175,-0.6187,-0.6016,-0.6304,-0.6174,-0.6684,-0.7124,-0.7194,-0.7107,-0.7153,-0.7234,-0.6851,-0.6853,-0.725,-0.7517,-0.7917,-0.8587,-0.8318,-0.8454,-0.8587,-0.8587,-0.8587,-0.8587,-0.8587,-0.8459,-0.8336,-0.847,-0.872,-0.8856,-0.8987,-0.8987,-0.8856,-0.8856,-0.8862,-0.8792,-0.8796,-0.891,-0.9022,-0.915,-0.9247,-0.9277,-0.9304,-0.9304,-0.9304,-0.9304,-0.9304,-0.9304,-0.9307,-0.9321,-0.9378,-0.9047,-0.8288,-0.4594,-0.0,-0.0,-0.0,-0.0,-0.0,-0.0,-0.0,-0.0,-0.0,-0.0,-0.0,-0.0,-0.0,-0.0,-0.0,-0.0,-0.0,-0.0,-0.0,-0.0,-0.0,-0.0,-0.0,-0.0,-0.0,-0.0,-0.0,-0.0,-0.0,-0.0,-0.0,-0.0,0.0647,0.1129,0.162,-1.3213,-1.3403,-1.3954,-1.4062,-1.3856,-1.4094,-1.3547,-1.2545,-1.1864,-1.1651,-1.1673,-1.1459,-1.135,-1.1261,-1.0765,-0.9913,-0.8389,-0.6787,-0.5775,-0.645,-0.7031,-0.752,-0.7701,-0.7342,-0.7409,-0.7365,-0.7067,-0.6969,-0.6974,-0.7072,-0.7098,-0.7185,-0.7469,-0.7689,-0.7793,-0.7865,-0.7946,-0.7892,-0.7784,-0.7653,-0.8051,-0.8051,-0.8318,-0.8454,-0.8587,-0.8587,-0.8587,-0.8587,-0.8587,-0.8587,-0.8587,-0.8658,-0.8828,-0.9326,-0.9658,-0.9664,-0.9528,-0.9392,-0.9259,-0.9395,-0.9285,-0.9235,-0.9262,-0.9254,-0.9203,-0.9333,-0.9296,-0.9304,-0.9304,-0.9304,-0.9304,-0.9304,-0.9304,-0.9304,-0.9304,-0.931,-0.9343,-0.9296,-0.8234,-0.6543,-0.0,-0.0,-0.0,-0.0,-0.0,-0.0,-0.0,-0.0,-0.0,-0.0,-0.0,-0.0,-0.0,-0.0,-0.0,-0.0,-0.0,-0.0,-0.0,-0.0,-0.0,-0.0,-0.0,-0.0,-0.0,-0.0,-0.0,-0.0,-0.0,-0.0,-0.0,-0.0,-0.0,0.048,0.1124,-1.3524,-1.3709,-1.3756,-1.3434,-1.3091,-1.3593,-1.3131,-1.2004,-1.158,-1.1454,-1.1562,-1.1268,-1.1176,-1.0971,-1.0335,-0.9471,-0.8692,-0.8261,-0.8546,-0.8691,-0.7778,-0.7317,-0.7514,-0.7587,-0.7761,-0.7736,-0.7758,-0.7872,-0.7777,-0.7846,-0.7964,-0.7862,-0.7902,-0.8007,-0.8148,-0.8253,-0.8484,-0.8552,-0.8587,-0.8587,-0.8587,-0.8587,-0.8587,-0.8587,-0.8587,-0.8587,-0.8587,-0.8587,-0.872,-0.872,-0.8737,-0.8803,-0.9211,-1.004,-1.0734,-1.0611,-1.0066,-0.9933,-0.9797,-0.9797,-0.9695,-0.9633,-0.9683,-0.968,-0.9651,-0.9615,-0.9446,-0.9302,-0.9304,-0.9304,-0.9304,-0.9304,-0.9304,-0.9304,-0.9304,-0.931,-0.9332,-0.91,-0.8582,-0.6453,-0.3499,-0.0,-0.0,-0.0,-0.0,-0.0,-0.0,-0.0,-0.0,-0.0,-0.0,-0.0,-0.0,-0.0,-0.0,-0.0,-0.0,-0.0,-0.0,-0.0,-0.0,-0.0,-0.0,-0.0,-0.0,-0.0,-0.0,-0.0,-0.0,-0.0,-0.0,-0.0,-0.0,-0.0,0.0952,-1.2636,-1.2115,-1.2312,-1.2173,-1.2054,-1.2438,-1.2399,-1.1836,-1.123,-1.119,-1.1435,-1.1358,-1.1233,-1.128,-1.1298,-1.1227,-1.1059,-1.0838,-1.0783,-1.0671,-0.8768,-0.7616,-0.7565,-0.7657,-0.7761,-0.7853,-0.7872,-0.7872,-0.7883,-0.7902,-0.7956,-0.8011,-0.7945,-0.8033,-0.8359,-0.8418,-0.8475,-0.8568,-0.8587,-0.8587,-0.8587,-0.8587,-0.8587,-0.8587,-0.8587,-0.8587,-0.8587,-0.8587,-0.8717,-0.8984,-0.872,-0.9004,-0.9564,-1.0219,-1.0588,-1.0591,-1.0326,-1.006,-0.9927,-0.9924,-0.9927,-1.0015,-1.0048,-1.0178,-0.9906,-0.9906,-0.959,-0.9302,-0.9304,-0.9304,-0.9304,-0.9304,-0.9304,-0.9304,-0.9304,-0.9307,-0.9321,-0.9211,-0.8695,-0.8023,-0.5725,-0.2918,-0.0,-0.0,-0.0,-0.0,-0.0,-0.0,-0.0,-0.0,-0.0,-0.0,-0.0,-0.0,-0.0,-0.0,-0.0,-0.0,-0.0,-0.0,-0.0,-0.0,-0.0,-0.0,-0.0,-0.0,-0.0,-0.0,-0.0,-0.0,-0.0,-0.0,-0.0,-0.0,-0.0,-1.2002,-1.1935,-1.1921,-1.1902,-1.1836,-1.203,-1.1912,-1.1539,-1.1268,-1.1059,-1.1141,-1.1305,-1.1451,-1.1657,-1.176,-1.1887,-1.2051,-1.221,-1.219,-1.1625,-0.9831,-0.8344,-0.7856,-0.7679,-0.7761,-0.7845,-0.7872,-0.7872,-0.7886,-0.7943,-0.8013,-0.8062,-0.8057,-0.8173,-0.8432,-0.8484,-0.8535,-0.8579,-0.8587,-0.8587,-0.8587,-0.8587,-0.8587,-0.8587,-0.8587,-0.8587,-0.8587,-0.8587,-0.8717,-0.9117,-0.912,-0.9525,-0.9794,-1.0193,-1.0588,-1.0193,-1.0455,-1.0455,-1.0323,-1.0319,-1.0323,-1.0232,-1.0399,-1.0178,-0.9941,-0.9798,-0.9735,-0.9302,-0.9304,-0.9304,-0.9304,-0.9304,-0.9304,-0.9304,-0.931,-0.9315,-0.9323,-0.9203,-0.8962,-0.8587,-0.7616,-0.4103,-0.0,-0.0,-0.0,-0.0,-0.0,-0.0,-0.0,-0.0,-0.0,-0.0,-0.0,-0.0,-0.0,-0.0,-0.0,-0.0,-0.0,-0.0,-0.0,-0.0,-0.0,-0.0,-0.0,-0.0,-0.0,-0.0,-0.0,-0.0,-0.0,-0.0,-0.0,-0.0,0.0471,-1.1462,-1.1778,-1.1718,-1.1713,-1.1671,-1.1611,-1.1499,-1.1355,-1.12,-1.1088,-1.112,-1.1299,-1.1652,-1.1964,-1.2105,-1.211,-1.2346,-1.2437,-1.2567,-1.1872,-1.0394,-0.8775,-0.8034,-0.7848,-0.7793,-0.7872,-0.7872,-0.7872,-0.7907,-0.7981,-0.806,-0.81,-0.8111,-0.8258,-0.847,-0.853,-0.8581,-0.8584,-0.8587,-0.8587,-0.8587,-0.8587,-0.8587,-0.8587,-0.8587,-0.8587,-0.8587,-0.8587,-0.872,-0.9117,-0.9386,-0.9658,-1.006,-1.0057,-1.019,-0.9927,-1.019,-1.0323,-1.0323,-1.0455,-1.0588,-1.0512,-1.0515,-1.0209,-1.0031,-0.9997,-0.9882,-0.9304,-0.9304,-0.9304,-0.9304,-0.9304,-0.9304,-0.931,-0.9318,-0.9326,-0.9189,-0.8767,-0.8494,-0.825,-0.6829,-0.3746,-0.0,-0.0,-0.0,-0.0,-0.0,-0.0,-0.0,-0.0,-0.0,-0.0,-0.0,-0.0,-0.0,-0.0,-0.0,-0.0,-0.0,-0.0,-0.0,-0.0,-0.0,-0.0,-0.0,-0.0,-0.0,-0.0,-0.0,-0.0,-0.0,-0.0,-0.0,0.0471,0.0628,-1.1044,-1.1255,-1.1458,-1.1435,-1.1269,-1.1244,-1.1216,-1.1213,-1.1253,-1.1244,-1.1225,-1.1466,-1.1866,-1.2243,-1.2327,-1.2327,-1.2337,-1.1411,-1.1898,-1.1481,-0.9905,-0.8382,-0.7982,-0.7922,-0.785,-0.7867,-0.7872,-0.7872,-0.7902,-0.7994,-0.8108,-0.822,-0.828,-0.8399,-0.85,-0.8571,-0.8587,-0.8587,-0.8587,-0.8587,-0.8587,-0.8587,-0.8587,-0.8587,-0.8587,-0.8587,-0.8587,-0.8587,-0.872,-0.9117,-0.9253,-0.9655,-1.0057,-0.9924,-0.9658,-0.9658,-0.9794,-0.9924,-0.9927,-1.019,-1.019,-0.9999,-1.0008,-1.0194,-1.0082,-1.0102,-0.9867,-0.9416,-0.9247,-0.9275,-0.9283,-0.9304,-0.9304,-0.931,-0.9173,-0.8599,-0.8314,-0.7593,-0.7465,-0.7632,-0.0,-0.0,-0.0,-0.0,-0.0,-0.0,-0.0,-0.0,-0.0,-0.0,-0.0,-0.0,-0.0,-0.0,-0.0,-0.0,-0.0,-0.0,-0.0,-0.0,-0.0,-0.0,-0.0,-0.0,-0.0,-0.0,-0.0,-0.0,-0.0,-0.0,-0.0,-0.0,0.1257,0.1414,0.1728,-1.09,-1.1007,-1.1189,-1.1274,-1.1203,-1.118,-1.1171,-1.1212,-1.118,-1.1334,-1.1576,-1.1765,-1.2049,-1.2342,-1.2436,-1.2436,-1.227,-1.1673,-1.1553,-1.0798,-0.9564,-0.85,-0.8196,-0.7961,-0.7869,-0.7872,-0.7872,-0.7872,-0.7886,-0.7983,-0.8114,-0.8214,-0.8293,-0.8435,-0.8541,-0.8587,-0.8587,-0.8587,-0.8587,-0.8587,-0.8587,-0.8587,-0.8587,-0.8587,-0.8587,-0.8587,-0.8587,-0.8587,-0.8853,-0.8987,-0.9117,-0.9519,-0.9788,-0.9522,-0.9389,-0.9259,-0.9392,-0.9395,-0.9259,-0.9522,-0.9519,-0.9279,-0.9546,-0.9967,-0.9784,-0.9768,-0.9536,-0.9258,-0.9144,-0.9174,-0.9204,-0.9258,-0.9304,-0.9313,-0.9029,-0.8454,-0.6998,-0.6128,-0.0,-0.0,-0.0,-0.0,-0.0,-0.0,-0.0,-0.0,-0.0,-0.0,-0.0,-0.0,-0.0,-0.0,-0.0,-0.0,-0.0,-0.0,-0.0,-0.0,-0.0,-0.0,-0.0,-0.0,-0.0,-0.0,-0.0,-0.0,-0.0,-0.0,-0.0,-0.0,-0.0,-0.0,0.2042,0.22,0.2357,-1.0751,-1.09,-1.1096,-1.1194,-1.1194,-1.1194,-1.1194,-1.1194,-1.1198,-1.143,-1.1817,-1.1893,-1.2101,-1.2365,-1.2436,-1.2436,-1.2105,-1.1469,-1.0823,-1.0062,-0.9281,-0.8581,-0.8116,-0.7872,-0.7872,-0.7872,-0.7872,-0.7872,-0.7875,-0.7959,-0.8084,-0.8214,-0.8323,-0.8426,-0.856,-0.8587,-0.8587,-0.8587,-0.8587,-0.8587,-0.8587,-0.8587,-0.8587,-0.8587,-0.8587,-0.8587,-0.8587,-0.8587,-0.872,-0.8851,-0.8984,-0.8987,-0.9123,-0.9125,-0.8992,-0.8989,-0.8989,-0.9123,-0.8853,-0.8853,-0.912,-0.9137,-0.9238,-0.9304,-0.9083,-0.9206,-0.9302,-0.9052,-0.9052,-0.9071,-0.9147,-0.9264,-0.9302,-0.931,-0.9337,-0.8614,-0.5391,-0.0,-0.0,-0.0,-0.0,-0.0,-0.0,-0.0,-0.0,-0.0,-0.0,-0.0,-0.0,-0.0,-0.0,-0.0,-0.0,-0.0,-0.0,-0.0,-0.0,-0.0,-0.0,-0.0,-0.0,-0.0,-0.0,-0.0,-0.0,-0.0,-0.0,-0.0,-0.0,-0.0,0.22,0.2043,0.22,0.2357,0.2357,-1.083,-1.1184,-1.1194,-1.1194,-1.1194,-1.1194,-1.1194,-1.1198,-1.1222,-1.1458,-1.1846,-1.192,-1.2112,-1.2403,-1.2436,-1.2327,-1.1872,-1.0932,-1.0301,-0.9916,-0.8834,-0.8097,-0.7994,-0.7872,-0.7872,-0.7872,-0.7872,-0.7872,-0.7872,-0.7924,-0.8046,-0.8176,-0.8274,-0.8391,-0.8571,-0.8587,-0.8587,-0.8587,-0.8587,-0.8587,-0.8587,-0.8587,-0.8587,-0.8587,-0.8587,-0.8587,-0.8587,-0.8587,-0.872,-0.872,-0.872,-0.872,-0.872,-0.872,-0.872,-0.872,-0.872,-0.872,-0.8587,-0.8587,-0.8856,-0.9265,-0.9086,-0.8875,-0.8783,-0.8872,-0.8984,-0.9005,-0.903,-0.9087,-0.9193,-0.9299,-0.9299,-0.9315,-0.9343,-0.8622,-0.5686,-0.0,-0.0,-0.0,-0.0,-0.0,-0.0,-0.0,-0.0,-0.0,-0.0,-0.0,-0.0,-0.0,-0.0,-0.0,-0.0,-0.0,-0.0,-0.0,-0.0,-0.0,-0.0,-0.0,-0.0,-0.0,-0.0,-0.0,0.0471,0.0785,0.1571,-0.0,0.2514,0.2357,0.2514,0.2357,0.2357,0.2357,0.2514,-1.0918,-1.1194,-1.1194,-1.1194,-1.1194,-1.1194,-1.1194,-1.1222,-1.1364,-1.1642,-1.1978,-1.2014,-1.214,-1.2384,-1.2332,-1.2114,-1.1418,-1.0818,-1.0185,-1.0011,-0.8603,-0.8085,-0.7872,-0.7872,-0.7872,-0.7872,-0.7872,-0.7872,-0.7872,-0.7921,-0.8002,-0.8122,-0.8277,-0.8437,-0.8549,-0.8587,-0.8587,-0.8587,-0.8587,-0.8587,-0.8587,-0.8587,-0.8587,-0.8587,-0.8587,-0.8587,-0.8587,-0.8587,-0.8587,-0.8587,-0.8587,-0.8587,-0.8587,-0.8587,-0.8587,-0.8587,-0.8587,-0.8587,-0.8587,-0.8587,-0.8723,-0.8879,-0.8909,-0.8712,-0.8766,-0.8715,-0.8826,-0.8984,-0.9046,-0.9106,-0.9163,-0.9266,-0.9299,-0.9323,-0.9345,-0.9214,-0.0,-0.0,-0.0,-0.0,-0.0,-0.0,-0.0,-0.0,-0.0,-0.0,-0.0,-0.0,-0.0,-0.0,-0.0,-0.0,-0.0,-0.0,-0.0,-0.0,-0.0,-0.0,-0.0,-0.0,-0.0,-0.0,-0.0,-0.0,-0.0,0.1099,0.1728,0.2357,0.2514,0.2514,0.2514,0.2514,0.2514,0.2514,0.2514,-1.0943,-1.1189,-1.1194,-1.1194,-1.1194,-1.1194,-1.1236,-1.1434,-1.1534,-1.1822,-1.2096,-1.2205,-1.2313,-1.2413,-1.2332,-1.2223,-1.1498,-1.0599,-1.0185,-1.0015,-0.8606,-0.8091,-0.7872,-0.7872,-0.7872,-0.7872,-0.7872,-0.7872,-0.7872,-0.7948,-0.8011,-0.8106,-0.8291,-0.8424,-0.8519,-0.8549,-0.8587,-0.8587,-0.8587,-0.8587,-0.8587,-0.8587,-0.8587,-0.8587,-0.8587,-0.8587,-0.8587,-0.8587,-0.8587,-0.8587,-0.8587,-0.8587,-0.8587,-0.8587,-0.8587,-0.8587,-0.8587,-0.8587,-0.8587,-0.8587,-0.8606,-0.8795,-0.8649,-0.8712,-0.8796,-0.8799,-0.8872,-0.8992,-0.9084,-0.9144,-0.9201,-0.9294,-0.9163,-0.9184,-0.9197,-0.9211,-0.0,-0.0,-0.0,-0.0,-0.0,-0.0,-0.0,-0.0,-0.0,-0.0,-0.0,-0.0,-0.0,-0.0,-0.0,-0.0,-0.0,-0.0,-0.0,-0.0,-0.0,-0.0,-0.0,-0.0,-0.0,-0.0,-0.0,-0.0,-0.0,-0.0,-0.0,0.2199,0.2352,0.251,0.2514,0.2514,0.2514,0.2514,0.2514,-1.0834,-1.1184,-1.1198,-1.1203,-1.1208,-1.1208,-1.142,-1.175,-1.183,-1.194,-1.2167,-1.2356,-1.2422,-1.2432,-1.2436,-1.2219,-1.1863,-1.0721,-1.0145,-0.9573,-0.8359,-0.8071,-0.7872,-0.7872,-0.7872,-0.7872,-0.7872,-0.7872,-0.7872,-0.7896,-0.7954,-0.7942,-0.8244,-0.8356,-0.8552,-0.8497,-0.8554,-0.8576,-0.8587,-0.8587,-0.8587,-0.8587,-0.8587,-0.8587,-0.8587,-0.8587,-0.8587,-0.8587,-0.8587,-0.8587,-0.8587,-0.8587,-0.8587,-0.8587,-0.8587,-0.8587,-0.8587,-0.8587,-0.8592,-0.8592,-0.8682,-0.8758,-0.8793,-0.8856,-0.8902,-0.8924,-0.8976,-0.909,-0.9207,-0.925,-0.9302,-0.9163,-0.9168,-0.9184,-0.9197,-0.7438,-0.466,-0.0,-0.0,-0.0,-0.0,-0.0,-0.0,-0.0,-0.0,-0.0,-0.0,-0.0,-0.0,-0.0,-0.0,-0.0,-0.0,-0.0,-0.0,-0.0,-0.0,-0.0,-0.0,-0.0,-0.0,-0.0,-0.0,-0.0,-0.0,-0.0,-0.0,0.1716,0.25,0.2502,0.2495,0.2507,0.2505,0.2512,0.2514,-1.1127,-1.1595,-1.1321,-1.1283,-1.1392,-1.126,-1.1397,-1.1718,-1.1803,-1.2006,-1.2361,-1.2413,-1.2436,-1.2436,-1.2436,-1.2005,-1.1377,-1.0552,-0.931,-0.8645,-0.8336,-0.8071,-0.7872,-0.7872,-0.7872,-0.7872,-0.7872,-0.7872,-0.7872,-0.7872,-0.7932,-0.7937,-0.8144,-0.8217,-0.8307,-0.841,-0.8497,-0.8562,-0.8576,-0.8587,-0.8587,-0.8587,-0.8587,-0.8587,-0.8587,-0.8587,-0.8587,-0.8587,-0.8587,-0.8587,-0.8587,-0.8587,-0.8587,-0.8587,-0.8587,-0.8587,-0.8587,-0.859,-0.86,-0.8668,-0.8769,-0.8886,-0.8962,-0.903,-0.9054,-0.9049,-0.9068,-0.9185,-0.9266,-0.9294,-0.9304,-0.931,-0.8876,-0.8589,-0.8457,-0.7289,-0.4657,-0.0,-0.0,-0.0,-0.0,-0.0,-0.0,-0.0,-0.0,-0.0,-0.0,-0.0,-0.0,-0.0,-0.0,-0.0,-0.0,-0.0,-0.0,-0.0,-0.0,-0.0,-0.0,-0.0,-0.0,-0.0,-0.0,-0.0,-0.0,-0.0,-0.0,0.108,0.1853,0.2465,0.246,0.248,0.2497,0.2497,0.2501,-1.108,-1.152,-1.1401,-1.1401,-1.1363,-1.1283,-1.143,-1.1765,-1.1817,-1.2054,-1.2413,-1.2436,-1.2436,-1.2436,-1.2327,-1.2114,-1.1709,-1.106,-1.0089,-0.9189,-0.8304,-0.8162,-0.8091,-0.7869,-0.7872,-0.7872,-0.7872,-0.7872,-0.7872,-0.7875,-0.7921,-0.7967,-0.8013,-0.8089,-0.8193,-0.8331,-0.8446,-0.8511,-0.8554,-0.8579,-0.8587,-0.8587,-0.8587,-0.8587,-0.8587,-0.8587,-0.8587,-0.8587,-0.8587,-0.8587,-0.8587,-0.8587,-0.8587,-0.8587,-0.8587,-0.8587,-0.8587,-0.8625,-0.8666,-0.8725,-0.8856,-0.8989,-0.909,-0.9141,-0.9169,-0.9169,-0.9204,-0.9272,-0.9288,-0.9304,-0.9304,-0.9163,-0.8432,-0.7704,-0.7713,-0.7577,-0.5385,-0.3054,-0.0,-0.0,-0.0,-0.0,-0.0,-0.0,-0.0,-0.0,-0.0,-0.0,-0.0,-0.0,-0.0,-0.0,-0.0,-0.0,-0.0,-0.0,-0.0,-0.0,-0.0,-0.0,-0.0,-0.0,-0.0,-0.0,-0.0,-0.0,-0.0,-0.0,0.137,0.167,0.2125,0.2139,0.2304,0.2462,0.2466,-1.0872,-1.1326,-1.1482,-1.1461,-1.1194,-1.1227,-1.1458,-1.1686,-1.1817,-1.2049,-1.2384,-1.2436,-1.2436,-1.2436,-1.2327,-1.2327,-1.195,-1.1454,-1.0952,-1.0181,-0.9186,-0.8594,-0.806,-0.7864,-0.7869,-0.7872,-0.7872,-0.7872,-0.7872,-0.7875,-0.7877,-0.788,-0.797,-0.803,-0.794,-0.8269,-0.838,-0.8407,-0.8513,-0.8587,-0.8587,-0.8587,-0.8587,-0.8587,-0.8587,-0.8587,-0.8587,-0.8587,-0.8587,-0.8587,-0.8587,-0.8587,-0.8587,-0.8587,-0.8587,-0.8587,-0.8587,-0.8649,-0.872,-0.8788,-0.8921,-0.9044,-0.9147,-0.9204,-0.9237,-0.9247,-0.9277,-0.9285,-0.9299,-0.9304,-0.9304,-0.9307,-0.8871,-0.8579,-0.844,-0.8449,-0.7428,-0.5239,-0.0,-0.0,-0.0,-0.0,-0.0,-0.0,-0.0,-0.0,-0.0,-0.0,-0.0,-0.0,-0.0,-0.0,-0.0,-0.0,-0.0,-0.0,-0.0,-0.0,-0.0,-0.0,-0.0,-0.0,-0.0,-0.0,-0.0,-0.0,-0.0,-0.0,-0.0,0.105,0.1351,0.1657,0.1964,0.2269,0.2434,-1.125,-1.1912,-1.1968,-1.168,-1.1289,-1.1419,-1.1466,-1.1376,-1.1817,-1.2159,-1.2384,-1.2436,-1.2436,-1.2436,-1.2436,-1.2436,-1.2265,-1.1828,-1.166,-1.1036,-1.0054,-0.8878,-0.8125,-0.8077,-0.7983,-0.7872,-0.7872,-0.7994,-0.7994,-0.7994,-0.7872,-0.7872,-0.7926,-0.7934,-0.7951,-0.8174,-0.8299,-0.8315,-0.8486,-0.8579,-0.8587,-0.8587,-0.8587,-0.8587,-0.8587,-0.8587,-0.8587,-0.8587,-0.8587,-0.8587,-0.8587,-0.8587,-0.8587,-0.8587,-0.8587,-0.8587,-0.8606,-0.8682,-0.8785,-0.8878,-0.8995,-0.9109,-0.9201,-0.9258,-0.9294,-0.9302,-0.9304,-0.9304,-0.9304,-0.9304,-0.9304,-0.9307,-0.931,-0.931,-0.9313,-0.9321,-0.9332,-0.7434,-0.5392,-0.0,-0.0,-0.0,-0.0,-0.0,-0.0,-0.0,-0.0,-0.0,-0.0,-0.0,-0.0,-0.0,-0.0,-0.0,-0.0,-0.0,-0.0,-0.0,-0.0,-0.0,-0.0,-0.0,-0.0,-0.0,-0.0,-0.0,-0.0,-0.0,-0.0,-0.0,0.0889,0.1188,0.163,0.1926,0.2094,-1.1184,-1.1841,-1.1964,-1.1931,-1.1686,-1.1711,-1.1788,-1.1982,-1.2412,-1.275,-1.2939,-1.2606,-1.2436,-1.2436,-1.2436,-1.2436,-1.2346,-1.1986,-1.202,-1.1742,-1.0894,-0.9624,-0.8904,-0.8536,-0.8584,-0.8482,-0.8363,-0.8363,-0.8238,-0.8363,-0.8363,-0.7991,-0.7991,-0.8002,-0.803,-0.8095,-0.8231,-0.825,-0.8467,-0.8565,-0.8584,-0.8587,-0.8587,-0.8587,-0.8587,-0.8587,-0.8587,-0.8587,-0.8587,-0.8587,-0.8587,-0.8587,-0.8587,-0.8587,-0.8619,-0.8655,-0.8696,-0.8747,-0.8878,-0.8976,-0.9065,-0.9174,-0.9242,-0.9294,-0.9299,-0.9304,-0.9304,-0.9304,-0.9304,-0.9304,-0.9304,-0.9307,-0.9307,-0.9307,-0.9307,-0.9313,-0.9326,-0.8604,-0.6406,-0.0,-0.0,-0.0,-0.0,-0.0,-0.0,-0.0,-0.0,-0.0,-0.0,-0.0,-0.0,-0.0,-0.0,-0.0,-0.0,-0.0,-0.0,-0.0,-0.0,-0.0,-0.0,-0.0,-0.0,-0.0,-0.0,-0.0,-0.0,-0.0,-0.0,-0.0,-0.0,0.0878,0.1313,0.1605,0.2062,-1.0972,-1.1543,-1.1784,-1.2077,-1.2358,-1.1933,-1.2128,-1.2767,-1.3378,-1.3588,-1.3583,-1.2944,-1.2615,-1.2545,-1.255,-1.2441,-1.245,-1.2479,-1.2491,-1.2221,-1.1731,-1.0635,-0.9849,-0.9496,-0.907,-0.8854,-0.8854,-0.8854,-0.8732,-0.8732,-0.8482,-0.8108,-0.8113,-0.8247,-0.8066,-0.8068,-0.8204,-0.8274,-0.8418,-0.8549,-0.8579,-0.8587,-0.8587,-0.8587,-0.8587,-0.8587,-0.8587,-0.8587,-0.8587,-0.8587,-0.8587,-0.8587,-0.8587,-0.859,-0.8633,-0.8674,-0.869,-0.881,-0.8962,-0.9003,-0.912,-0.9226,-0.9269,-0.9285,-0.9285,-0.9302,-0.9302,-0.9302,-0.9302,-0.9299,-0.9299,-0.9304,-0.9304,-0.9304,-0.9304,-0.9304,-0.9321,-0.9192,-0.7131,-0.4937,-0.0,-0.0,-0.0,-0.0,-0.0,-0.0,-0.0,-0.0,-0.0,-0.0,-0.0,-0.0,-0.0,-0.0,-0.0,-0.0,-0.0,-0.0,-0.0,-0.0,-0.0,-0.0,-0.0,-0.0,-0.0,-0.0,-0.0,-0.0,-0.0,-0.0,-0.0,-0.0,0.1314,0.1751,0.2042,-1.1038,-1.1779,-1.1987,-1.2164,-1.2292,-1.1943,-1.2184,-1.2909,-1.3807,-1.3976,-1.3686,-1.3688,-1.3443,-1.3098,-1.3098,-1.2989,-1.2762,-1.2985,-1.2779,-1.2404,-1.2012,-1.1533,-1.0783,-0.961,-0.9076,-0.8976,-0.8976,-0.8976,-0.9098,-0.8976,-0.8854,-0.8726,-0.8726,-0.8613,-0.8144,-0.8151,-0.8399,-0.8364,-0.8364,-0.8497,-0.8568,-0.8581,-0.8587,-0.8587,-0.8587,-0.8587,-0.8587,-0.8587,-0.8587,-0.8587,-0.8587,-0.8587,-0.8587,-0.859,-0.8625,-0.8663,-0.8679,-0.8761,-0.8878,-0.8924,-0.9019,-0.9144,-0.9177,-0.9212,-0.9237,-0.9296,-0.9296,-0.9296,-0.9294,-0.9285,-0.9288,-0.9299,-0.9304,-0.9304,-0.9304,-0.931,-0.9323,-0.9044,-0.7879,-0.5535,-0.0,-0.0,-0.0,-0.0,-0.0,-0.0,-0.0,-0.0,-0.0,-0.0,-0.0,-0.0,-0.0,-0.0,-0.0,-0.0,-0.0,-0.0,-0.0,-0.0,-0.0,-0.0,-0.0,-0.0,-0.0,-0.0,-0.0,-0.0,-0.0,-0.0,-0.0,-0.0,-0.0,0.1893,0.218]},{"header":{"parameterUnit":"m.s-1","parameterCategory":1,"la1":31.0,"la2":29.5877,"lo1":-88.7671,"lo2":-86.6584,"dx":0.0162,"dy":0.0185,"nx":115,"ny":88,"refTime":"2022-11-28T06:00:00:Z","depth":0,"parameterNumber":3,"parameterNumberName":"V-component_of_WINDS"},"data":[0.0,0.0,0.0,0.0,0.0,0.0,0.0,0.0,0.0,0.0,0.0,0.0,0.0,0.0,0.0,0.0,0.0,0.0,0.0,0.0,0.0,0.0,0.0,0.0,0.0,0.0,0.0,0.0,0.0,0.0,0.0,0.0,0.0,0.0,0.0,0.0,0.0,0.0,0.0,0.0,0.0,0.0,0.0,0.0,0.0,0.0,0.0,0.0,0.0,0.0,0.0,0.0,0.0,0.0,0.0,0.0,0.0,0.0,0.0,0.0,0.0,0.0,0.0,0.0,0.0,0.0,0.0,0.0,0.0,0.0,0.0,0.0,0.0,0.0,0.0,0.0,0.0,0.0,0.0,0.0,0.0,0.0,0.0,0.0,0.0,0.0,0.0,0.0,0.0,0.0,0.0,0.0,0.0,0.0,0.0,0.0,0.0,0.0,0.0,0.0,0.0,0.0,0.0,0.0,0.0,0.0,0.0,0.0,0.0,0.0,0.0,0.0,0.0,0.0,0.0,0.0,0.0,0.0,0.0,0.0,0.0,0.0,0.0,0.0,0.0,0.0,0.0,0.0,0.0,0.0,0.0,0.0,0.0,0.0,0.0,0.0,0.0,0.0,0.0,0.0,0.0,0.0,0.0,0.0,0.0,0.0,0.0,0.0,0.0,0.0,0.0,0.0,0.0,0.0,0.0,0.0,0.0,0.0,0.0,0.0,0.0,0.0,0.0,0.0,0.0,0.0,0.0,0.0,0.0,0.0,0.0,0.0,0.0,0.0,0.0,0.0,0.0,0.0,0.0,0.0,0.0,0.0,0.0,0.0,0.0,0.0,0.0,0.0,0.0,0.0,0.0,0.0,0.0,0.0,0.0,0.0,0.0,0.0,0.0,0.0,0.0,0.0,0.0,0.0,0.0,0.0,0.0,0.0,0.0,0.0,0.0,0.0,0.0,0.0,0.0,0.0,0.0,0.0,0.0,0.0,0.0,0.0,0.0,0.0,0.0,0.0,0.0,0.0,0.0,0.0,0.0,0.0,0.0,0.0,0.0,0.0,0.0,0.0,0.0,0.0,0.0,0.0,0.0,0.0,0.0,0.0,0.0,0.0,0.0,0.0,0.0,0.0,0.0,0.0,0.0,0.0,0.0,0.0,0.0,0.0,0.0,0.0,0.0,0.0,0.0,0.0,0.0,0.0,0.0,0.0,0.0,0.0,0.0,0.0,0.0,0.0,0.0,0.0,0.0,0.0,0.0,0.0,0.0,0.0,0.0,0.0,0.0,0.0,0.0,0.0,0.0,0.0,0.0,0.0,0.0,0.0,0.0,0.0,0.0,0.0,0.0,0.0,0.0,0.0,0.0,0.0,0.0,0.0,0.0,0.0,0.0,0.0,0.0,0.0,0.0,0.0,0.0,0.0,0.0,0.0,0.0,0.0,0.0,0.0,0.0,0.0,0.0,0.0,0.0,0.0,0.0,0.0,0.0,0.0,0.0,0.0,0.0,0.0,0.0,0.0,0.0,0.0,0.0,0.0,0.0,0.0,0.0,0.0,0.0,0.0,0.0,0.0,0.0,0.0,0.0,0.0,0.0,0.0,0.0,0.0,0.0,0.0,0.0,0.0,0.0,0.0,0.0,0.0,0.0,0.0,0.0,0.0,0.0,0.0,0.0,0.0,0.0,0.0,0.0,0.0,0.0,0.0,0.0,0.0,0.0,0.0,0.0,0.0,0.0,0.0,0.0,0.0,0.0,0.0,0.0,0.0,0.0,0.0,0.0,0.0,0.0,0.0,0.0,0.0,0.0,0.0,0.0,0.0,0.0,0.0,0.0,0.0,0.0,0.0,0.0,0.0,0.0,0.0,0.0,0.0,0.0,0.0,0.0,0.0,0.0,0.0,0.0,0.0,0.0,0.0,0.0,0.0,0.0,0.0,0.0,0.0,0.0,0.0,0.0,0.0,0.0,0.0,0.0,0.0,0.0,0.0,0.0,0.0,0.0,0.0,0.0,0.0,0.0,0.0,0.0,0.0,0.0,0.0,0.0,0.0,0.0,0.0,0.0,0.0,0.0,0.0,0.0,0.0,0.0,0.0,0.0,0.0,0.0,0.0,0.0,0.0,0.0,0.0,0.0,0.0,0.0,0.0,0.0,0.0,0.0,0.0,0.0,0.0,0.0,0.0,0.0,0.0,0.0,0.0,0.0,0.0,0.0,0.0,0.0,0.0,0.0,0.0,0.0,0.0,0.0,0.0,0.0,0.0,0.0,0.0,0.0,0.0,0.0,0.0,0.0,0.0,0.0,0.0,0.0,0.0,0.0,0.0,0.0,0.0,0.0,0.0,0.0,0.0,0.0,0.0,0.0,0.0,0.0,0.0,0.0,0.0,0.0,0.0,0.0,0.0,0.0,0.0,0.0,0.0,0.0,0.0,0.0,0.0,0.0,0.0,0.0,0.0,0.0,0.0,0.0,0.0,0.0,0.0,0.0,0.0,0.0,0.0,0.0,0.0,0.0,0.0,0.0,0.0,0.0,0.0,0.0,0.0,0.0,0.0,0.0,0.0,0.0,0.0,0.0,0.0,0.0,0.0,0.0,0.0,0.0,0.0,0.0,0.0,0.0,0.0,0.0,0.0,0.0,0.0,0.0,0.0,0.0,0.0,0.0,0.0,0.0,0.0,0.0,0.0,0.0,0.0,0.0,0.0,0.0,0.0,0.0,0.0,0.0,0.0,0.0,0.0,0.0,0.0,0.0,0.0,0.0,0.0,0.0,0.0,0.0,0.0,0.0,0.0,0.0,0.0,0.0,0.0,0.0,0.0,0.0,0.0,0.0,0.0,0.0,0.0,0.0,0.0,0.0,0.0,0.0,0.0,0.0,0.0,0.0,0.0,0.0,0.0,0.0,0.0,0.0,0.0,0.0,0.0,0.0,0.0,0.0,0.0,0.0,0.0,0.0,0.0,0.0,0.0,0.0,0.0,0.0,0.0,0.0,0.0,0.0,0.0,0.0,0.0,0.0,0.0,0.0,0.0,0.0,0.0,0.0,0.0,0.0,0.0,0.0,0.0,0.0,0.0,0.0,0.0,0.0,0.0,0.0,0.0,0.0,0.0,0.0,0.0,0.0,0.0,0.0,0.0,0.0,0.0,0.0,0.0,0.0,0.0,0.0,0.0,0.0,0.0,0.0,0.0,0.0,0.0,0.0,0.0,0.0,0.0,0.0,0.0,0.0,0.0,0.0,0.0,0.0,0.0,0.0,0.0,0.0,0.0,0.0,0.0,0.0,0.0,0.0,0.0,0.0,0.0,0.0,0.0,0.0,0.0,0.0,0.0,0.0,0.0,0.0,0.0,0.0,0.0,0.0,0.0,0.0,0.0,0.0,0.0,0.0,0.0,0.0,0.0,0.0,0.0,0.0,0.0,0.0,0.0,0.0,0.0,0.0,0.0,0.0,0.0,0.0,0.0,0.0,0.0,0.0,0.0,0.0,0.0,0.0,0.0,0.0,0.0,0.0,0.0,0.0,0.0,0.0,0.0,0.0,0.0,0.0,0.0,0.0,0.0,0.0,0.0,0.0,0.0,0.0,0.0,0.0,0.0,0.0,0.0,0.0,0.0,0.0,0.0,0.0,0.0,0.0,0.0,0.0,0.0,0.0,0.0,0.0,0.0,0.0,0.0,0.0,0.0,0.0,0.0,0.0,0.0,0.0,0.0,0.0,0.0,0.0,0.0,0.0,0.0,0.0,0.0,0.0,0.0,0.0,0.0,0.0,0.0,0.0,0.0,0.0,0.0,0.0,0.0,0.0,0.0,0.0,0.0,0.0,0.0,0.0,0.0,0.0,0.0,0.0,0.0,0.0,0.0,0.0,0.0,0.0,0.0,0.0,0.0,0.0,0.0,0.0,0.0,0.0,0.0,0.0,0.0,0.0,0.0,0.0,0.0,0.0,0.0,0.0,0.0,0.0,0.0,0.0,0.0,0.0,0.0,0.0,0.0,0.0,0.0,0.0,0.0,0.0,0.0,0.0,0.0,0.0,0.0,0.0,0.0,0.0,0.0,0.0,0.0,0.0,0.0,0.0,0.0,0.0,0.0,0.0,0.0,0.0,0.0,0.0,0.0,0.0,0.0,0.0,0.0,0.0,0.0,0.0,0.0,0.0,0.0,0.0,0.0,0.0,0.0,0.0,0.0,0.0,0.0,0.0,0.0,0.0,0.0,0.0,0.0,0.0,0.0,0.0,0.0,0.0,0.0,0.0,0.0,0.0,0.0,-1.1062,0.0,0.0,0.0,-0.766,0.0,0.0,0.0,0.0,0.0,0.0,0.0,0.0,0.0,0.0,0.0,0.0,0.0,0.0,0.0,0.0,0.0,0.0,0.0,0.0,0.0,0.0,0.0,0.0,0.0,0.0,0.0,0.0,0.0,0.0,0.0,0.0,0.0,0.0,0.0,0.0,0.0,0.0,0.0,0.0,0.0,0.0,0.0,0.0,0.0,0.0,0.0,0.0,0.0,0.0,0.0,0.0,0.0,0.0,0.0,0.0,0.0,0.0,0.0,0.0,0.0,0.0,0.0,0.0,0.0,0.0,0.0,0.0,0.0,0.0,0.0,0.0,0.0,0.0,0.0,0.0,0.0,0.0,0.0,0.0,0.0,0.0,0.0,0.0,0.0,0.0,0.0,0.0,0.0,0.0,0.0,0.0,0.0,0.0,0.0,0.0,0.0,0.0,0.0,0.0,0.0,0.0,0.0,0.0,0.0,0.0,0.0,0.0,0.0,0.0,-1.0512,-1.0054,-0.9972,-0.9168,-0.7543,0.0,0.0,0.0,0.0,0.0,0.0,0.0,0.0,0.0,0.0,0.0,0.0,0.0,0.0,0.0,0.0,0.0,0.0,0.0,0.0,0.0,0.0,0.0,0.0,0.0,0.0,0.0,0.0,0.0,0.0,0.0,0.0,0.0,0.0,0.0,0.0,0.0,0.0,0.0,0.0,0.0,0.0,0.0,0.0,0.0,0.0,0.0,0.0,0.0,0.0,0.0,0.0,0.0,0.0,0.0,0.0,0.0,0.0,0.0,0.0,0.0,0.0,0.0,0.0,0.0,0.0,0.0,0.0,0.0,0.0,0.0,0.0,0.0,0.0,0.0,0.0,0.0,0.0,0.0,0.0,0.0,0.0,0.0,0.0,0.0,0.0,0.0,0.0,0.0,0.0,0.0,0.0,0.0,0.0,0.0,0.0,0.0,0.0,0.0,0.0,0.0,0.0,0.0,0.0,0.0,0.0,0.0,0.0,0.0,0.0,0.0,0.0,-1.0201,-0.9589,-0.8405,0.0,0.0,0.0,0.0,0.0,0.0,0.0,0.0,0.0,0.0,0.0,0.0,0.0,0.0,0.0,0.0,0.0,0.0,0.0,0.0,0.0,0.0,0.0,0.0,0.0,0.0,0.0,0.0,0.0,0.0,0.0,0.0,0.0,0.0,0.0,0.0,0.0,0.0,0.0,0.0,0.0,0.0,0.0,0.0,0.0,0.0,0.0,0.0,0.0,0.0,0.0,0.0,0.0,0.0,0.0,0.0,0.0,0.0,0.0,0.0,0.0,0.0,0.0,0.0,0.0,0.0,0.0,0.0,0.0,0.0,0.0,0.0,0.0,0.0,0.0,0.0,0.0,0.0,0.0,0.0,0.0,0.0,0.0,0.0,0.0,0.0,0.0,0.0,0.0,0.0,0.0,0.0,0.0,0.0,0.0,0.0,0.0,0.0,0.0,0.0,0.0,0.0,0.0,0.0,0.0,0.0,0.0,0.0,0.0,0.0,-1.0402,-1.1053,-1.1007,0.0,-1.0803,0.0,0.0,0.0,0.0,0.0,0.0,0.0,0.0,0.0,0.0,0.0,0.0,0.0,0.0,0.0,0.0,0.0,0.0,0.0,0.0,0.0,0.0,0.0,0.0,0.0,0.0,0.0,0.0,0.0,0.0,0.0,0.0,0.0,0.0,0.0,0.0,0.0,0.0,0.0,0.0,0.0,0.0,0.0,0.0,0.0,0.0,0.0,0.0,0.0,0.0,0.0,0.0,0.0,0.0,0.0,0.0,0.0,0.0,0.0,0.0,0.0,0.0,0.0,0.0,0.0,0.0,0.0,0.0,0.0,0.0,0.0,0.0,0.0,0.0,0.0,0.0,0.0,0.0,0.0,0.0,0.0,0.0,0.0,0.0,0.0,0.0,0.0,0.0,0.0,0.0,0.0,0.0,0.0,0.0,0.0,0.0,0.0,0.0,0.0,0.0,0.0,0.0,0.0,0.0,0.0,0.0,0.0,0.0,0.0,0.0,-1.1457,-1.126,-1.0279,-1.0195,0.0,0.0,0.0,0.0,0.0,0.0,0.0,0.0,0.0,0.0,0.0,0.0,0.0,0.0,0.0,0.0,0.0,0.0,0.0,0.0,0.0,0.0,0.0,0.0,0.0,0.0,0.0,0.0,0.0,0.0,0.0,0.0,0.0,0.0,0.0,0.0,0.0,0.0,0.0,0.0,0.0,0.0,0.0,0.0,0.0,0.0,0.0,0.0,0.0,0.0,0.0,0.0,0.0,0.0,0.0,0.0,0.0,0.0,0.0,0.0,0.0,0.0,0.0,0.0,0.0,0.0,0.0,0.0,0.0,0.0,0.0,0.0,0.0,0.0,0.0,0.0,0.0,0.0,0.0,0.0,0.0,0.0,0.0,0.0,0.0,0.0,0.0,0.0,0.0,0.0,0.0,0.0,0.0,0.0,0.0,0.0,0.0,0.0,0.0,0.0,0.0,0.0,0.0,0.0,0.0,0.0,0.0,0.0,0.0,0.0,-1.1403,-1.1639,-1.1224,-1.0349,-1.0054,-1.0453,0.0,0.0,0.0,0.0,0.0,0.0,0.0,0.0,0.0,0.0,0.0,0.0,0.0,0.0,0.0,0.0,0.0,0.0,0.0,0.0,0.0,0.0,0.0,0.0,0.0,0.0,0.0,0.0,0.0,0.0,0.0,0.0,0.0,0.0,0.0,0.0,0.0,0.0,0.0,0.0,0.0,0.0,0.0,0.0,0.0,0.0,0.0,0.0,0.0,0.0,0.0,0.0,0.0,0.0,0.0,0.0,0.0,0.0,0.0,0.0,0.0,0.0,0.0,0.0,0.0,0.0,0.0,0.0,0.0,0.0,0.0,0.0,0.0,0.0,0.0,0.0,0.0,0.0,0.0,0.0,0.0,0.0,0.0,0.0,0.0,0.0,0.0,0.0,0.0,0.0,0.0,0.0,0.0,0.0,0.0,0.0,0.0,0.0,0.0,0.0,0.0,0.0,0.0,0.0,0.0,0.0,0.0,0.0,-1.1285,-1.0618,-1.0515,-1.1174,-1.1951,-1.1245,0.0,0.0,0.0,0.0,0.0,0.0,0.0,0.0,0.0,0.0,0.0,0.0,0.0,0.0,0.0,0.0,0.0,0.0,0.0,0.0,0.0,0.0,0.0,0.0,0.0,0.0,0.0,0.0,0.0,0.0,0.0,0.0,0.0,0.0,0.0,0.0,0.0,0.0,0.0,0.0,0.0,0.0,0.0,0.0,0.0,0.0,0.0,0.0,0.0,0.0,0.0,0.0,0.0,0.0,0.0,0.0,0.0,0.0,0.0,0.0,0.0,0.0,0.0,0.0,0.0,0.0,0.0,0.0,0.0,0.0,0.0,0.0,0.0,0.0,0.0,0.0,0.0,0.0,0.0,0.0,0.0,0.0,0.0,0.0,0.0,0.0,0.0,0.0,0.0,0.0,0.0,0.0,0.0,0.0,0.0,0.0,0.0,0.0,0.0,0.0,0.0,0.0,0.0,0.0,0.0,0.0,0.0,0.0,0.0,-0.9021,-0.9194,-1.0668,-1.3351,-1.0904,-0.9653,0.0,0.0,0.0,0.0,0.0,0.0,0.0,0.0,0.0,0.0,0.0,0.0,0.0,0.0,0.0,0.0,0.0,0.0,0.0,0.0,0.0,0.0,0.0,0.0,0.0,0.0,0.0,0.0,0.0,0.0,0.0,0.0,0.0,0.0,0.0,0.0,0.0,0.0,0.0,0.0,0.0,0.0,0.0,0.0,0.0,0.0,0.0,0.0,0.0,0.0,0.0,0.0,0.0,0.0,0.0,0.0,0.0,0.0,0.0,0.0,0.0,0.0,0.0,0.0,0.0,0.0,0.0,0.0,0.0,0.0,0.0,0.0,0.0,0.0,0.0,0.0,0.0,0.0,0.0,0.0,0.0,0.0,0.0,0.0,0.0,0.0,0.0,0.0,0.0,0.0,0.0,0.0,0.0,0.0,0.0,0.0,0.0,0.0,0.0,0.0,0.0,0.0,0.0,0.0,0.0,0.0,0.0,0.0,0.0,-0.8458,-0.9537,-1.1192,-1.3136,-1.0178,-0.8675,0.0,0.0,0.0,0.0,0.0,0.0,0.0,0.0,0.0,0.0,0.0,0.0,0.0,0.0,0.0,0.0,0.0,0.0,0.0,0.0,0.0,0.0,0.0,0.0,0.0,0.0,0.0,0.0,0.0,0.0,0.0,0.0,0.0,0.0,0.0,0.0,0.0,0.0,0.0,0.0,0.0,0.0,0.0,0.0,0.0,0.0,0.0,0.0,0.0,0.0,0.0,0.0,0.0,0.0,0.0,0.0,0.0,0.0,0.0,0.0,0.0,0.0,0.0,0.0,0.0,0.0,0.0,0.0,0.0,0.0,0.0,0.0,0.0,0.0,0.0,0.0,0.0,0.0,0.0,0.0,0.0,0.0,0.0,0.0,0.0,0.0,0.0,0.0,0.0,0.0,0.0,0.0,0.0,0.0,0.0,0.0,0.0,0.0,0.0,0.0,0.0,0.0,0.0,0.0,0.0,0.0,0.0,0.0,-0.7631,-0.9939,-1.1756,-1.1933,-1.0257,-1.0093,-0.8558,0.0,0.0,0.0,0.0,0.0,0.0,0.0,0.0,0.0,0.0,0.0,0.0,0.0,0.0,0.0,0.0,0.0,0.0,0.0,0.0,0.0,0.0,0.0,0.0,0.0,0.0,0.0,0.0,0.0,0.0,0.0,0.0,0.0,0.0,0.0,0.0,0.0,0.0,0.0,0.0,0.0,0.0,0.0,0.0,0.0,0.0,0.0,0.0,0.0,0.0,0.0,0.0,0.0,0.0,0.0,0.0,0.0,0.0,0.0,0.0,0.0,0.0,0.0,0.0,0.0,0.0,0.0,0.0,0.0,0.0,0.0,0.0,0.0,0.0,0.0,0.0,0.0,0.0,0.0,0.0,0.0,0.0,0.0,0.0,0.0,0.0,0.0,0.0,0.0,0.0,0.0,0.0,0.0,0.0,0.0,0.0,0.0,0.0,0.0,0.0,0.0,0.0,0.0,0.0,0.0,0.0,0.0,0.0,0.0,-0.7574,-1.0841,-1.2313,-1.1738,-1.0134,-0.9297,0.0,0.0,0.0,0.0,0.0,0.0,0.0,0.0,0.0,0.0,0.0,0.0,0.0,0.0,0.0,0.0,0.0,0.0,0.0,0.0,0.0,0.0,0.0,0.0,0.0,0.0,0.0,0.0,0.0,0.0,0.0,0.0,0.0,0.0,0.0,0.0,0.0,0.0,0.0,0.0,0.0,0.0,0.0,0.0,0.0,0.0,0.0,0.0,0.0,0.0,0.0,0.0,0.0,0.0,0.0,0.0,0.0,0.0,0.0,0.0,0.0,0.0,0.0,0.0,0.0,0.0,0.0,0.0,0.0,0.0,0.0,0.0,0.0,0.0,0.0,0.0,0.0,0.0,0.0,0.0,0.0,0.0,0.0,0.0,0.0,0.0,0.0,0.0,0.0,0.0,0.0,0.0,0.0,0.0,0.0,0.0,0.0,0.0,0.0,0.0,0.0,0.0,0.0,0.0,0.0,0.0,0.0,0.0,0.0,-1.0664,-1.3351,-1.4563,-1.392,-1.1865,-1.0636,-1.0348,0.0,0.0,0.0,0.0,0.0,0.0,0.0,0.0,0.0,0.0,0.0,0.0,0.0,0.0,0.0,0.0,0.0,0.0,0.0,0.0,0.0,0.0,0.0,0.0,0.0,0.0,0.0,0.0,0.0,0.0,0.0,0.0,0.0,0.0,0.0,0.0,0.0,0.0,0.0,0.0,0.0,0.0,0.0,0.0,0.0,0.0,0.0,0.0,0.0,0.0,0.0,0.0,0.0,0.0,0.0,0.0,0.0,0.0,0.0,0.0,0.0,0.0,0.0,0.0,0.0,0.0,0.0,0.0,0.0,0.0,0.0,0.0,0.0,0.0,0.0,0.0,0.0,0.0,0.0,0.0,0.0,0.0,0.0,0.0,0.0,0.0,0.0,0.0,0.0,0.0,0.0,0.0,0.0,0.0,0.0,0.0,0.0,0.0,0.0,0.0,0.0,0.0,0.0,0.0,0.0,0.0,0.0,0.0,-1.7839,-1.8901,-1.8611,-1.6797,-1.4962,-1.2564,0.0,0.0,0.0,0.0,0.0,0.0,0.0,0.0,0.0,0.0,0.0,0.0,0.0,0.0,0.0,0.0,0.0,0.0,0.0,0.0,0.0,0.0,0.0,0.0,0.0,0.0,0.0,0.0,0.0,0.0,0.0,0.0,0.0,0.0,0.0,0.0,0.0,0.0,0.0,0.0,0.0,0.0,0.0,0.0,0.0,0.0,0.0,0.0,0.0,0.0,0.0,0.0,0.0,0.0,0.0,0.0,0.0,0.0,0.0,0.0,0.0,0.0,0.0,0.0,0.0,0.0,0.0,0.0,0.0,0.0,0.0,0.0,0.0,0.0,0.0,0.0,0.0,0.0,0.0,0.0,0.0,0.0,0.0,0.0,0.0,0.0,0.0,0.0,0.0,0.0,0.0,0.0,0.0,0.0,0.0,0.0,0.0,0.0,0.0,0.0,0.0,0.0,0.0,0.0,0.0,0.0,0.0,0.0,0.0,-2.2089,-2.4808,-2.4784,-2.1802,-1.7766,-1.5255,0.0,0.0,0.0,0.0,0.0,0.0,0.0,0.0,0.0,0.0,0.0,0.0,0.0,0.0,0.0,0.0,0.0,0.0,0.0,0.0,0.0,0.0,0.0,0.0,0.0,0.0,0.0,0.0,0.0,0.0,0.0,0.0,0.0,0.0,0.0,0.0,0.0,0.0,0.0,0.0,0.0,0.0,0.0,0.0,0.0,0.0,0.0,0.0,0.0,0.0,0.0,0.0,0.0,0.0,0.0,0.0,0.0,0.0,0.0,0.0,0.0,0.0,0.0,0.0,0.0,0.0,0.0,0.0,0.0,0.0,0.0,0.0,0.0,0.0,0.0,0.0,0.0,0.0,0.0,0.0,0.0,0.0,0.0,0.0,0.0,0.0,0.0,0.0,0.0,0.0,0.0,0.0,0.0,0.0,0.0,0.0,0.0,0.0,0.0,0.0,0.0,0.0,0.0,0.0,0.0,0.0,0.0,0.0,-2.1708,-2.5956,-2.8864,-2.9588,-2.8008,-2.2514,-1.8725,0.0,0.0,0.0,0.0,0.0,0.0,0.0,0.0,0.0,0.0,0.0,0.0,0.0,0.0,0.0,0.0,0.0,0.0,0.0,0.0,0.0,0.0,0.0,0.0,0.0,0.0,0.0,0.0,0.0,0.0,0.0,0.0,0.0,0.0,0.0,0.0,0.0,0.0,0.0,0.0,0.0,0.0,0.0,0.0,0.0,0.0,0.0,0.0,0.0,0.0,0.0,0.0,0.0,0.0,0.0,0.0,0.0,0.0,0.0,0.0,0.0,0.0,0.0,0.0,0.0,0.0,0.0,0.0,0.0,0.0,0.0,0.0,0.0,0.0,0.0,0.0,0.0,0.0,0.0,0.0,0.0,0.0,0.0,0.0,0.0,0.0,0.0,0.0,0.0,0.0,0.0,0.0,0.0,0.0,0.0,0.0,0.0,0.0,0.0,0.0,0.0,0.0,0.0,0.0,0.0,0.0,0.0,0.0,-2.5091,-2.9393,-3.1632,-3.3179,-3.3792,-2.7633,-2.2322,0.0,0.0,0.0,0.0,0.0,0.0,0.0,0.0,0.0,0.0,0.0,0.0,0.0,0.0,0.0,0.0,0.0,0.0,0.0,0.0,0.0,0.0,0.0,0.0,0.0,0.0,0.0,0.0,0.0,0.0,0.0,0.0,0.0,0.0,0.0,0.0,0.0,0.0,0.0,0.0,0.0,0.0,0.0,0.0,0.0,0.0,0.0,0.0,0.0,0.0,0.0,0.0,0.0,0.0,0.0,0.0,0.0,0.0,0.0,0.0,0.0,0.0,0.0,0.0,0.0,0.0,0.0,0.0,0.0,0.0,0.0,0.0,0.0,0.0,0.0,0.0,0.0,0.0,0.0,0.0,0.0,0.0,0.0,0.0,0.0,0.0,0.0,0.0,0.0,0.0,0.0,0.0,0.0,0.0,0.0,0.0,0.0,0.0,0.0,0.0,0.0,0.0,0.0,0.0,0.0,0.0,0.0,0.0,-2.7623,-3.1885,-3.3674,-3.4658,-3.4808,-2.8384,-2.3575,0.0,0.0,0.0,0.0,0.0,0.0,0.0,0.0,0.0,0.0,0.0,0.0,0.0,0.0,0.0,0.0,0.0,0.0,0.0,0.0,0.0,0.0,0.0,0.0,0.0,0.0,0.0,0.0,0.0,0.0,0.0,0.0,0.0,0.0,0.0,0.0,0.0,0.0,0.0,0.0,0.0,0.0,0.0,0.0,0.0,0.0,0.0,0.0,-1.6376,0.0,0.0,0.0,0.0,0.0,0.0,0.0,0.0,0.0,0.0,0.0,0.0,0.0,0.0,0.0,0.0,0.0,0.0,0.0,0.0,0.0,0.0,0.0,0.0,0.0,0.0,0.0,0.0,0.0,0.0,0.0,0.0,0.0,0.0,0.0,0.0,0.0,0.0,0.0,0.0,0.0,0.0,0.0,0.0,0.0,0.0,0.0,0.0,0.0,0.0,0.0,0.0,0.0,0.0,0.0,0.0,0.0,0.0,0.0,-2.8383,-3.2575,-3.4208,-3.5049,-3.4945,-3.0852,-2.6524,0.0,0.0,0.0,0.0,0.0,0.0,0.0,0.0,0.0,0.0,0.0,0.0,0.0,0.0,0.0,0.0,0.0,0.0,0.0,0.0,0.0,0.0,0.0,0.0,0.0,0.0,0.0,0.0,0.0,0.0,0.0,0.0,0.0,0.0,0.0,0.0,0.0,0.0,0.0,0.0,0.0,0.0,0.0,0.0,0.0,0.0,0.0,0.0,0.0,0.0,0.0,0.0,0.0,0.0,0.0,0.0,0.0,0.0,0.0,0.0,0.0,0.0,0.0,0.0,0.0,0.0,0.0,0.0,0.0,0.0,0.0,0.0,0.0,0.0,0.0,0.0,0.0,0.0,0.0,0.0,0.0,0.0,0.0,0.0,0.0,0.0,0.0,0.0,0.0,0.0,0.0,0.0,0.0,0.0,0.0,0.0,0.0,0.0,0.0,0.0,0.0,0.0,0.0,0.0,0.0,0.0,0.0,-2.4134,-2.8496,-3.2821,-3.4257,-3.4981,-3.5043,-3.3436,-2.9429,-2.293,0.0,0.0,0.0,0.0,0.0,0.0,0.0,0.0,0.0,0.0,0.0,0.0,0.0,0.0,0.0,0.0,0.0,0.0,0.0,0.0,0.0,0.0,0.0,0.0,0.0,0.0,0.0,0.0,0.0,0.0,0.0,0.0,0.0,0.0,0.0,0.0,0.0,0.0,-1.3907,-1.649,0.0,0.0,0.0,0.0,0.0,0.0,0.0,0.0,-1.7082,0.0,0.0,0.0,0.0,0.0,0.0,0.0,0.0,0.0,0.0,0.0,0.0,0.0,0.0,0.0,0.0,0.0,0.0,0.0,0.0,0.0,0.0,0.0,0.0,0.0,0.0,0.0,0.0,0.0,0.0,0.0,0.0,0.0,0.0,0.0,0.0,0.0,0.0,0.0,0.0,0.0,0.0,0.0,0.0,0.0,0.0,0.0,0.0,0.0,0.0,0.0,0.0,0.0,0.0,0.0,0.0,-2.4061,-2.5653,-2.9104,-3.4617,-3.5024,-3.5105,-3.4996,-3.3489,-2.9455,-2.2833,0.0,0.0,0.0,0.0,0.0,0.0,0.0,0.0,0.0,0.0,0.0,0.0,0.0,0.0,0.0,0.0,0.0,0.0,0.0,0.0,0.0,0.0,0.0,0.0,0.0,0.0,0.0,0.0,0.0,0.0,0.0,0.0,0.0,0.0,0.0,0.0,0.0,0.0,0.0,-1.9733,-2.0421,0.0,0.0,0.0,0.0,0.0,0.0,0.0,0.0,-1.7656,0.0,0.0,0.0,0.0,0.0,0.0,0.0,0.0,0.0,0.0,0.0,0.0,0.0,0.0,0.0,0.0,0.0,0.0,0.0,0.0,0.0,0.0,0.0,0.0,0.0,0.0,0.0,0.0,0.0,0.0,0.0,0.0,0.0,0.0,0.0,0.0,0.0,0.0,0.0,0.0,0.0,0.0,0.0,0.0,0.0,0.0,0.0,0.0,0.0,0.0,0.0,0.0,0.0,0.0,0.0,-2.3698,-2.7668,-3.1412,-3.4902,-3.5035,-3.5019,-3.4906,-3.3389,-2.9383,0.0,0.0,0.0,0.0,0.0,0.0,0.0,0.0,0.0,0.0,0.0,0.0,0.0,0.0,0.0,0.0,0.0,0.0,0.0,0.0,0.0,0.0,0.0,0.0,0.0,0.0,0.0,0.0,0.0,0.0,0.0,0.0,0.0,0.0,0.0,0.0,0.0,0.0,0.0,0.0,-2.1813,-2.2574,-2.4683,0.0,0.0,0.0,0.0,0.0,0.0,-1.9845,-1.8631,0.0,0.0,0.0,0.0,0.0,0.0,0.0,0.0,0.0,0.0,0.0,0.0,0.0,0.0,0.0,0.0,0.0,0.0,0.0,0.0,0.0,0.0,0.0,0.0,0.0,0.0,0.0,0.0,0.0,0.0,0.0,0.0,0.0,0.0,0.0,0.0,0.0,0.0,0.0,0.0,0.0,0.0,0.0,0.0,0.0,0.0,0.0,0.0,0.0,0.0,0.0,0.0,0.0,0.0,0.0,-2.2652,-2.8931,-3.3179,-3.5059,-3.5363,-3.5439,-3.5363,-3.3335,-2.9254,0.0,0.0,0.0,0.0,0.0,0.0,0.0,0.0,0.0,0.0,0.0,0.0,0.0,0.0,0.0,0.0,0.0,0.0,0.0,0.0,0.0,0.0,0.0,0.0,0.0,0.0,0.0,0.0,0.0,0.0,0.0,0.0,0.0,0.0,0.0,0.0,0.0,0.0,0.0,0.0,0.0,-2.4488,-2.7082,-2.4467,0.0,0.0,0.0,0.0,-2.2636,-2.2093,0.0,0.0,0.0,0.0,0.0,0.0,0.0,0.0,0.0,0.0,0.0,0.0,0.0,0.0,0.0,0.0,0.0,0.0,0.0,0.0,0.0,0.0,0.0,0.0,0.0,0.0,0.0,0.0,0.0,0.0,0.0,0.0,0.0,0.0,0.0,0.0,0.0,0.0,0.0,0.0,0.0,0.0,0.0,0.0,0.0,0.0,0.0,0.0,0.0,0.0,0.0,0.0,0.0,0.0,0.0,0.0,-2.2562,-2.7803,-3.2313,-3.5949,-3.6954,-3.728,-3.7069,-3.3551,-2.9036,0.0,0.0,0.0,0.0,0.0,0.0,0.0,0.0,0.0,0.0,0.0,0.0,0.0,0.0,0.0,0.0,0.0,0.0,0.0,0.0,0.0,0.0,0.0,0.0,0.0,0.0,0.0,0.0,0.0,0.0,0.0,0.0,0.0,0.0,0.0,0.0,0.0,0.0,0.0,0.0,0.0,-2.5416,-2.5746,-2.4718,-2.3635,0.0,0.0,-2.6025,-2.7097,-2.8393,0.0,0.0,0.0,0.0,0.0,0.0,0.0,0.0,0.0,0.0,0.0,0.0,0.0,0.0,0.0,0.0,0.0,0.0,0.0,0.0,0.0,0.0,0.0,0.0,0.0,0.0,0.0,0.0,0.0,0.0,0.0,0.0,0.0,0.0,0.0,0.0,0.0,0.0,0.0,0.0,0.0,0.0,0.0,0.0,0.0,0.0,0.0,0.0,0.0,0.0,0.0,0.0,0.0,0.0,0.0,-1.9423,-2.3466,-3.0232,-3.483,-3.701,-3.7504,-3.7622,-3.7509,-3.4039,-2.9518,0.0,0.0,0.0,0.0,0.0,0.0,0.0,0.0,0.0,0.0,0.0,0.0,0.0,0.0,0.0,0.0,0.0,0.0,0.0,0.0,0.0,0.0,0.0,0.0,0.0,0.0,0.0,0.0,0.0,0.0,0.0,0.0,0.0,0.0,0.0,0.0,0.0,0.0,0.0,0.0,0.0,0.0,-2.8878,-2.7939,0.0,0.0,0.0,-2.7561,-2.7929,0.0,0.0,0.0,0.0,0.0,0.0,0.0,0.0,0.0,0.0,0.0,0.0,0.0,0.0,0.0,0.0,0.0,0.0,0.0,0.0,0.0,0.0,0.0,0.0,0.0,0.0,0.0,0.0,0.0,0.0,0.0,0.0,0.0,0.0,0.0,0.0,0.0,0.0,0.0,0.0,0.0,0.0,0.0,0.0,0.0,0.0,0.0,0.0,0.0,0.0,0.0,0.0,0.0,0.0,0.0,0.0,0.0,-2.4111,-3.2641,-3.7426,-3.7999,-3.8247,-3.8288,-3.8175,-3.5257,0.0,0.0,0.0,0.0,0.0,0.0,0.0,0.0,0.0,0.0,0.0,0.0,0.0,0.0,0.0,0.0,0.0,0.0,0.0,0.0,0.0,0.0,0.0,0.0,0.0,0.0,0.0,-0.6132,0.0,0.0,0.0,0.0,0.0,0.0,0.0,0.0,0.0,0.0,0.0,0.0,0.0,0.0,-2.8676,-3.1158,-3.0782,-3.1004,0.0,0.0,-3.0153,-3.08,-3.2812,-3.2763,0.0,0.0,0.0,0.0,0.0,0.0,0.0,0.0,0.0,0.0,0.0,0.0,0.0,0.0,0.0,0.0,0.0,0.0,0.0,0.0,0.0,0.0,0.0,0.0,0.0,0.0,0.0,0.0,-0.5088,0.0,0.0,0.0,0.0,0.0,0.0,0.0,0.0,0.0,0.0,0.0,0.0,0.0,0.0,0.0,0.0,0.0,0.0,0.0,0.0,0.0,0.0,0.0,0.0,0.0,-2.2201,-2.4245,-3.3785,-3.8839,-3.8935,-3.9699,-4.0082,-3.9907,-3.7544,-3.2699,0.0,0.0,0.0,0.0,0.0,0.0,0.0,0.0,0.0,0.0,0.0,0.0,0.0,0.0,0.0,0.0,0.0,0.0,0.0,0.0,0.0,0.0,0.0,0.0,0.0,0.0,0.0,0.0,0.0,0.0,0.0,0.0,0.0,0.0,0.0,0.0,0.0,0.0,0.0,0.0,0.0,-2.7827,-3.0318,-3.1922,-3.4011,0.0,0.0,-3.5994,-3.8326,-4.0108,-3.8556,-3.0443,0.0,0.0,0.0,0.0,0.0,0.0,0.0,0.0,0.0,0.0,0.0,0.0,0.0,0.0,0.0,0.0,0.0,0.0,0.0,0.0,0.0,0.0,0.0,0.0,0.0,-0.5097,0.0,0.0,-0.5101,0.0,0.0,0.0,0.0,0.0,0.0,0.0,0.0,0.0,0.0,0.0,0.0,0.0,0.0,0.0,0.0,0.0,0.0,0.0,0.0,0.0,0.0,0.0,0.0,-2.248,-2.4744,-3.4053,-3.9128,-3.9681,-4.05,-4.088,-4.084,-3.9528,-3.5706,0.0,0.0,0.0,0.0,0.0,0.0,0.0,0.0,0.0,0.0,0.0,0.0,0.0,0.0,0.0,0.0,0.0,0.0,0.0,0.0,0.0,0.0,0.0,0.0,0.0,0.0,0.0,0.0,-1.6291,-1.6317,-1.4424,0.0,0.0,0.0,0.0,0.0,0.0,0.0,0.0,0.0,0.0,-3.1795,-3.4855,-3.6311,0.0,0.0,-3.8849,-3.8241,-3.8703,-3.9255,-3.7653,-3.1855,-2.9245,0.0,0.0,0.0,0.0,0.0,0.0,0.0,0.0,0.0,0.0,0.0,0.0,0.0,0.0,0.0,0.0,0.0,0.0,0.0,0.0,0.0,0.0,0.0,0.0,0.0,0.0,0.0,0.0,0.0,0.0,0.0,0.0,0.0,0.0,0.0,0.0,0.0,0.0,0.0,0.0,0.0,0.0,0.0,0.0,0.0,0.0,0.0,0.0,0.0,0.0,0.0,0.0,-2.2871,-2.5141,-3.444,-3.9661,-4.0519,-4.1072,-4.1491,-4.172,-4.1304,-3.8341,0.0,0.0,0.0,0.0,0.0,0.0,0.0,0.0,0.0,0.0,0.0,0.0,0.0,0.0,0.0,0.0,0.0,0.0,0.0,0.0,0.0,0.0,0.0,0.0,0.0,0.0,0.0,0.0,-1.8107,-1.7592,-1.5027,0.0,0.0,0.0,0.0,0.0,0.0,0.0,0.0,0.0,0.0,-3.4939,-3.7834,-3.8786,-3.9511,-4.0311,-3.9088,-3.8042,-3.7958,-3.8324,-3.7246,-3.3296,0.0,0.0,0.0,0.0,0.0,0.0,0.0,0.0,0.0,0.0,0.0,0.0,0.0,0.0,0.0,0.0,0.0,0.0,0.0,0.0,0.0,0.0,0.0,0.0,0.0,0.0,0.0,-0.5152,0.0,0.0,-0.51,0.0,0.0,0.0,0.0,0.0,0.0,0.0,0.0,0.0,0.0,0.0,0.0,0.0,0.0,0.0,0.0,0.0,0.0,0.0,0.0,0.0,0.0,-2.3531,-2.5302,-3.519,-4.0673,-4.1457,-4.1514,-4.1972,-4.2756,-4.2775,-4.0368,-3.5267,0.0,0.0,0.0,0.0,0.0,0.0,0.0,0.0,0.0,0.0,0.0,0.0,0.0,0.0,0.0,0.0,0.0,0.0,0.0,0.0,0.0,0.0,0.0,0.0,0.0,0.0,-1.1096,-1.2787,-1.4295,0.0,0.0,0.0,0.0,0.0,0.0,0.0,0.0,0.0,0.0,-3.2386,-3.6295,-3.8089,-3.8373,-3.8864,-3.9684,-3.6973,-3.533,-3.7104,-3.8501,-3.8384,0.0,0.0,0.0,0.0,0.0,0.0,0.0,0.0,0.0,0.0,0.0,0.0,0.0,0.0,0.0,0.0,0.0,0.0,0.0,0.0,0.0,0.0,0.0,0.0,0.0,0.0,0.0,-1.077,-0.9979,0.0,0.0,0.0,0.0,0.0,0.0,0.0,0.0,0.0,0.0,0.0,-2.2919,-2.4266,0.0,0.0,0.0,0.0,0.0,0.0,0.0,0.0,0.0,0.0,0.0,0.0,-2.5172,-2.716,-3.6725,-4.1968,-4.2254,-4.3321,-4.4069,-4.4456,-4.5547,-4.3483,-3.7895,0.0,0.0,0.0,0.0,0.0,0.0,0.0,0.0,0.0,0.0,0.0,0.0,0.0,0.0,0.0,0.0,0.0,0.0,0.0,0.0,0.0,0.0,0.0,0.0,0.0,-1.5534,0.0,0.0,0.0,0.0,0.0,0.0,0.0,0.0,0.0,0.0,0.0,-2.7163,-3.1718,-3.4807,-3.7475,-3.9714,-4.1059,-4.25,0.0,0.0,0.0,0.0,0.0,0.0,0.0,0.0,0.0,0.0,0.0,0.0,0.0,0.0,-3.3643,-2.2492,-2.3203,-2.4968,-2.3074,0.0,0.0,0.0,0.0,0.0,0.0,0.0,0.0,0.0,0.0,0.0,0.0,0.0,0.0,-1.6151,0.0,-1.5212,0.0,0.0,0.0,0.0,0.0,0.0,0.0,0.0,-2.4553,-2.7395,-2.9009,-3.0852,-3.0864,0.0,-2.8493,-2.4176,0.0,0.0,0.0,0.0,0.0,0.0,0.0,0.0,-2.639,-2.9221,-3.8289,-4.3226,-4.3611,-4.4908,-4.5829,-4.6239,-4.7293,-4.605,-4.2238,-3.7555,-3.31,0.0,0.0,0.0,0.0,0.0,0.0,0.0,0.0,0.0,0.0,0.0,0.0,0.0,0.0,0.0,0.0,0.0,0.0,0.0,0.0,0.0,0.0,0.0,-1.7622,0.0,0.0,0.0,0.0,0.0,0.0,0.0,0.0,0.0,-2.579,-2.8723,-3.2212,-3.6198,-3.8695,-4.0363,-4.0869,0.0,0.0,0.0,0.0,0.0,0.0,0.0,-3.809,-3.9257,-3.885,-3.8707,-3.9859,-4.31,-4.5266,-4.4499,0.0,0.0,-2.9679,-3.095,-3.3958,-3.3128,-3.4784,-3.6408,-3.6723,-3.8354,-3.9714,0.0,0.0,0.0,0.0,0.0,0.0,0.0,0.0,-2.3497,-2.2044,0.0,-2.0797,0.0,0.0,0.0,0.0,0.0,-2.0889,0.0,0.0,-3.4882,-3.7851,-3.6672,-3.7241,-3.76,-3.7585,-3.5267,-3.2836,-3.0216,-2.6518,0.0,0.0,0.0,0.0,0.0,0.0,-2.7478,-3.1924,-4.0004,-4.4572,-4.5455,-4.6278,-4.7122,-4.8027,-4.8084,-4.8065,-4.7835,-4.2541,-3.9026,-3.774,-2.1125,0.0,0.0,0.0,0.0,0.0,0.0,0.0,0.0,0.0,0.0,0.0,0.0,0.0,0.0,0.0,0.0,0.0,0.0,0.0,0.0,-1.9149,0.0,0.0,0.0,0.0,0.0,0.0,0.0,0.0,0.0,0.0,-2.7894,-3.2317,-3.7104,-4.029,0.0,0.0,0.0,0.0,-4.2242,-3.8557,-3.7103,-3.6752,-3.6925,-4.0734,-4.4333,-4.5988,0.0,0.0,-4.732,-4.8914,-5.0413,-4.822,-5.1049,-5.0816,-4.2431,-4.1564,-4.3376,-4.6682,-4.5336,-4.3893,-4.4586,-4.649,-4.8413,-2.7306,0.0,0.0,0.0,0.0,-2.2733,-2.5133,-2.9308,-2.9675,-2.8924,-2.756,-2.8711,0.0,0.0,0.0,0.0,0.0,0.0,-2.7412,-3.2184,-3.4943,-3.8186,-4.1829,-4.2614,-4.3018,-4.3039,-4.2886,-4.2161,-4.0883,-4.0311,-3.187,-1.6222,0.0,0.0,0.0,0.0,-3.3474,-3.7912,-4.381,-4.6989,-4.724,-4.8025,-4.8869,-4.9752,-4.9771,-4.9771,-4.9771,-4.7607,-4.4305,-3.9871,-3.8112,0.0,0.0,0.0,0.0,0.0,0.0,0.0,0.0,0.0,0.0,0.0,0.0,0.0,0.0,0.0,0.0,0.0,0.0,0.0,-1.6488,-2.08,-2.2315,0.0,0.0,0.0,0.0,0.0,0.0,0.0,0.0,0.0,-3.6782,-3.7888,-3.8771,0.0,0.0,-4.0847,-3.8661,-4.2424,-4.5689,-4.6268,-4.6723,0.0,-4.9379,-4.784,-4.7467,-5.0323,-5.4203,-5.6076,-5.377,-5.6026,-5.7967,-5.717,-5.8612,-5.8695,-5.5686,-5.3084,-5.3029,-5.5818,-5.4337,-5.2241,-5.2472,-5.3549,-5.4684,-3.5567,-3.122,-2.7922,-2.7846,-2.9776,-2.9338,-3.1808,-3.6201,-3.6276,-3.5477,-3.4169,-3.5401,-3.2816,-2.7452,-2.6814,0.0,0.0,0.0,-3.3134,-3.8503,-3.9299,-4.1573,-4.4912,-4.5862,-4.629,-4.6328,-4.6787,-4.6959,-4.6787,-4.6228,-3.9185,-2.6219,0.0,0.0,-2.6282,-3.2592,-3.7842,-4.1875,-4.6244,-4.8488,-4.8528,-4.9354,-5.0065,-5.0544,-5.0603,-5.0563,-5.0563,-5.0124,-4.8183,-4.4687,-4.7433,-4.2143,0.0,0.0,0.0,0.0,0.0,0.0,0.0,0.0,0.0,0.0,0.0,-1.2575,-0.8841,0.0,0.0,0.0,-2.1765,-2.3647,-2.2975,-2.5789,0.0,0.0,0.0,0.0,0.0,0.0,0.0,-3.1229,-3.7111,-4.1442,-4.2334,-4.3273,-4.3802,-4.3605,-4.4666,-4.4826,-4.3131,0.0,-4.9976,-5.0498,-5.1333,-5.2147,-5.2824,-5.2255,-5.2819,-5.6235,-5.8584,-5.9648,-5.8722,-6.0581,-6.2179,-6.2381,-6.2737,-6.2812,-6.2104,-6.0268,-5.9379,-6.1308,-6.0256,-5.8913,-5.8836,-5.9302,-5.9862,-4.2205,-4.1548,-3.3874,-3.2887,-3.633,-3.6424,-3.8703,-4.236,-4.2511,-4.1298,-3.9283,-4.094,-3.8265,-3.2387,-3.0807,0.0,-3.7221,-3.789,-4.0737,-4.5419,-4.6235,-4.6675,-4.6858,-4.7697,-4.8143,-4.822,-4.82,-4.8602,-4.9251,-4.6847,-4.4005,-4.0941,-3.9315,-3.7439,-3.5537,-3.7874,-4.0916,-4.4365,-4.751,-4.9276,-4.9624,-5.0452,-5.0894,-5.0914,-5.0894,-5.0914,-5.0894,-5.0914,-5.0894,-5.0875,-5.076,-5.0683,-5.0394,0.0,0.0,0.0,0.0,0.0,0.0,0.0,0.0,0.0,0.0,0.0,0.0,0.0,0.0,-2.4788,-3.0423,0.0,-3.443,-3.2762,0.0,0.0,0.0,-2.8651,-3.1529,-3.596,-3.7873,-3.5454,0.0,0.0,-4.5581,-4.8352,-5.0884,-5.1901,-5.2999,-5.3097,-5.1425,-5.3234,-5.4411,-5.2245,-5.2878,-5.2936,-5.2425,-5.5337,-5.9046,-6.1993,-6.3623,-6.3296,-6.2226,-6.2805,-6.3876,-6.421,-6.413,-6.3884,-6.3845,-6.3696,-6.3919,-6.3606,-6.3495,-6.3458,-6.3264,-6.3311,-6.3405,-4.3958,-4.39,-4.1997,-4.1033,-4.0712,-4.0836,-4.1449,-4.2492,-4.3859,-4.411,-4.3672,-4.5456,-4.5347,-4.3783,-4.2733,-4.2945,-4.4072,-4.3651,-4.4437,-4.6221,-4.7086,-4.8162,-4.9401,-5.0274,-5.1028,-5.1582,-5.1601,-5.1716,-5.1849,-5.066,-4.9022,-4.7082,-4.6061,-4.2411,-3.6559,-3.9329,-4.264,-4.6071,-4.7626,-4.9683,-5.2182,-5.251,-5.2606,-5.2606,-5.2665,-5.2665,-5.2606,-5.2665,-5.2665,-5.2568,-5.1375,-5.0683,-5.0548,-3.8599,0.0,0.0,0.0,0.0,0.0,0.0,0.0,0.0,0.0,-1.9103,-1.3481,0.0,-2.6013,0.0,-3.2647,-3.5854,-3.4593,-3.6878,0.0,0.0,-3.5535,-3.6117,-4.19,-4.3462,-4.4144,-4.4369,-4.8417,-5.1366,-5.1728,-5.3103,-5.5114,-5.7709,-5.4596,-5.1357,-4.9805,-5.3396,-5.607,-5.5801,-5.8207,-6.0334,-5.9827,-6.1388,-6.2969,-6.3848,-6.415,-6.4222,-6.4272,-6.4197,-6.4327,-6.4819,-6.5081,-6.4918,-6.4326,-6.5095,-6.5864,-6.5844,-6.4798,-6.3744,-6.3759,-6.3809,-6.3998,-4.5168,-4.5407,-4.587,-4.5582,-4.475,-4.4482,-4.4357,-4.4452,-4.5858,-4.6412,-4.6355,-4.7376,-4.7799,-4.778,-4.7302,-4.7302,-4.7646,-4.7665,-4.7837,-4.8242,-4.9152,-5.0045,-5.0879,-5.0985,-5.1495,-5.233,-5.2398,-5.2444,-5.2488,-5.2414,-5.1761,-5.0508,-5.043,-4.7549,-4.2135,-4.2864,-4.3962,-4.5089,-4.7593,-5.0339,-5.3249,-5.3384,-5.2269,-5.0038,-5.1066,-5.0586,-4.8277,-4.9294,-4.9371,-4.8238,-4.7876,-4.8663,-5.0452,-3.8415,-2.9109,0.0,0.0,0.0,0.0,0.0,0.0,0.0,0.0,0.0,0.0,0.0,-3.617,-3.4986,-3.9661,-4.1435,-3.826,-4.1182,-4.3407,-4.3707,-4.2826,-4.402,-4.8574,-4.9906,-5.072,-5.1321,-5.3689,-5.5638,-5.6553,-5.7187,-5.8222,-6.0159,-5.7855,-5.5782,-5.547,-5.7738,-5.9573,-6.0061,-6.2052,-6.3594,-6.3574,-6.4638,-6.5325,-6.4989,-6.518,-6.5507,-6.58,-6.5624,-6.5507,-6.58,-6.6014,-6.6014,-6.5546,-6.605,-6.67,-6.6616,-6.5945,-6.5202,-6.5057,-6.5072,-6.5299,-4.6145,-4.6523,-4.7338,-4.7816,-4.8025,-4.7444,-4.708,-4.6972,-4.7942,-4.8316,-4.8171,-4.8168,-4.8168,-4.8152,-4.8053,-4.8474,-4.936,-5.0243,-5.0585,-5.0581,-5.1545,-5.1963,-5.1973,-5.1232,-5.13,-5.212,-5.2204,-5.2256,-5.2291,-5.3034,-5.2928,-5.2031,-5.2713,-5.1463,-4.8271,-4.6793,-4.5292,-4.3701,-4.7521,-5.0674,-5.3016,-5.2763,-5.0423,-4.6151,-4.8199,-4.74,-4.3023,-4.4843,-4.5017,-4.2876,-4.329,-4.5433,-4.9162,-3.8933,-3.1432,0.0,-2.9271,0.0,0.0,0.0,0.0,0.0,0.0,0.0,0.0,-3.9913,-4.4363,-4.4236,-4.793,-4.8516,-4.4081,-4.5938,-4.8021,-4.9449,-5.0303,-5.1384,-5.3048,-5.5091,-5.6426,-5.6479,-5.8013,-5.933,-5.9817,-6.0334,-6.0549,-6.0646,-6.1115,-6.1525,-6.274,-6.2696,-6.295,-6.416,-6.4375,-6.4414,-6.475,-6.5911,-6.6563,-6.5993,-6.6238,-6.6834,-6.6932,-6.6951,-6.699,-6.7107,-6.7185,-6.7127,-6.7068,-6.7088,-6.7205,-6.7381,-6.7258,-6.6987,-6.6603,-6.6549,-6.6784,-4.7446,-4.7698,-4.7966,-4.8186,-4.8368,-4.9044,-4.8778,-4.7979,-4.8866,-4.9581,-5.0124,-5.0163,-5.0164,-5.0086,-4.9452,-4.9625,-5.0394,-5.0636,-5.108,-5.1703,-5.2608,-5.3379,-5.3995,-5.388,-5.3897,-5.4047,-5.4091,-5.3755,-5.3145,-5.3319,-5.266,-5.1236,-5.143,-4.9873,-4.6781,0.0,0.0,0.0,-4.7835,-4.9151,-5.022,-4.8275,-4.6731,-4.5793,-4.7569,0.0,-4.7111,-4.7523,-4.7587,-4.7006,-4.3407,0.0,0.0,0.0,0.0,0.0,0.0,0.0,0.0,0.0,0.0,0.0,-3.8475,-3.7753,-3.7512,-4.2393,-4.5051,-4.4077,-5.0717,-5.3971,-5.0957,-5.2347,-5.365,-5.3981,-5.4775,-5.5709,-5.6684,-5.7151,-5.7613,-5.8455,-5.9362,-6.0052,-6.0363,-6.0978,-6.1447,-6.1544,-6.2208,-6.3076,-6.393,-6.3505,-6.3379,-6.4121,-6.475,-6.5312,-6.6249,-6.6663,-6.6844,-6.6644,-6.6663,-6.7068,-6.7712,-6.7849,-6.8142,-6.8669,-6.8923,-6.8708,-6.8337,-6.8591,-6.8942,-6.9508,-6.9196,-6.8474,-6.7077,-6.6809,-6.6815,-4.849,0.0,-4.9225,-4.9567,0.0,-5.0336,-5.0455,-5.0284,-5.0327,-5.0747,-5.1454,-5.1834,-5.174,-5.1313,-5.0912,-5.072,-5.0735,-5.1702,-5.2068,-5.2085,-5.3411,-5.4233,-5.4568,-5.3752,-5.3626,-5.4072,-5.3708,-5.3324,-5.3039,-5.3467,-5.3282,-5.2508,-5.294,-5.2314,-5.0745,-5.1943,-5.1687,-4.9877,-5.0247,-5.1268,-5.2913,-5.1772,-4.985,-4.7423,-4.931,0.0,0.0,0.0,0.0,0.0,0.0,0.0,0.0,0.0,0.0,-5.0561,-4.4421,-4.1097,-4.2734,-4.289,-4.4575,-4.8346,-4.9499,-4.8514,-4.5104,-4.7066,-4.9076,-5.0526,-5.5073,-5.7285,-5.6021,-5.6621,-5.7115,-5.7154,-5.7548,-5.8011,-5.8378,-5.8766,-5.917,-5.968,-6.0444,-6.1101,-6.1618,-6.2032,-6.252,-6.2911,-6.334,-6.395,-6.4704,-6.4579,-6.4594,-6.5379,-6.5765,-6.617,-6.6697,-6.6893,-6.7088,-6.7322,-6.7439,-6.7791,-6.8591,-6.8727,-6.8923,-6.9333,-6.9391,-6.9294,-6.9098,-6.9235,-6.9508,-6.9742,-6.9606,-6.9176,-6.8239,-6.8083,-6.8058,-4.9509,-4.9757,-5.0468,-5.0942,-5.1222,-5.1338,-5.1882,-5.2581,0.0,0.0,0.0,-5.3111,-5.2887,-5.2078,-5.2078,-5.1672,-5.1148,-5.2756,-5.3182,-5.2636,-5.4281,-5.5007,-5.4828,-5.3513,-5.3223,-5.3824,-5.3213,-5.2875,-5.2896,-5.3782,-5.4225,-5.4303,-5.5103,-5.5532,-5.5571,-5.6239,-5.5509,-5.3376,-5.2558,-5.3214,-5.5357,-5.5001,-5.2701,-4.8402,-5.0653,-4.989,-4.5716,-4.7563,-4.7708,-4.5653,-4.5541,-4.2656,-3.6593,-4.18,-4.8606,-5.5662,-5.2023,-5.0269,-5.2292,-5.2599,-5.3889,-5.6693,-5.827,-5.7271,-5.29,-5.2285,-5.3716,-5.7659,-5.8939,-5.9451,-5.9217,-5.9119,-5.9124,-5.9124,-5.9124,-5.9183,-5.9553,-6.0178,-6.0725,-6.1076,-6.1779,-6.2423,-6.3086,-6.3204,-6.3477,-6.4121,-6.4375,-6.4941,-6.578,-6.5897,-6.6019,-6.677,-6.6839,-6.6912,-6.7264,-6.74,-6.7595,-6.8239,-6.8337,-6.8649,-6.9372,-6.9645,-6.9703,-6.9977,-6.986,-6.9918,-6.9899,-6.9977,-6.984,-6.984,-6.986,-6.986,-6.986,-6.986,-6.9717,-5.0807,-5.0875,-5.0992,-5.1095,-5.126,-5.1921,-5.2737,-5.3489,-5.3397,-5.3417,-5.3501,-5.3592,-5.3165,-5.235,-5.2337,-5.2279,-5.2233,-5.3217,-5.3993,0.0,-5.5622,-5.6096,-5.6056,-5.5872,-5.5511,-5.4983,-5.4839,-5.4462,-5.3962,-5.4693,-5.5123,-5.522,-5.6001,-5.6411,-5.643,-5.6527,-5.6412,-5.5963,-5.237,-5.0629,-5.0981,-4.8755,-4.727,-4.6621,-4.8379,-4.897,-4.8213,-4.8572,-4.8555,-4.825,-4.8175,-4.7669,-4.6889,-4.9562,-5.292,-5.6255,-5.6484,-5.661,-5.6942,-5.7613,-5.8207,-5.8666,-5.9002,-5.8827,-5.8133,-5.6696,-5.6712,-5.8825,-6.0353,-6.0705,-5.9378,-5.9202,-5.93,-5.9241,-5.9163,-5.9671,-6.1134,-6.1466,-6.2091,-6.3379,-6.3848,-6.3906,-6.414,-6.4179,-6.4277,-6.4453,-6.5301,-6.6039,-6.7244,-6.7205,-6.7107,-6.762,-6.7322,-6.7576,-6.8493,-6.904,-6.9118,-6.9196,-6.9215,-6.9489,-7.0367,-7.0523,-7.0738,-7.1441,-7.1441,-7.1499,-7.1519,-7.1636,-7.148,-7.1421,-7.1421,-7.146,-7.1441,-7.146,-7.1089,-5.0675,-5.1095,-5.1139,-5.1423,-5.196,-5.3242,-5.4038,-5.4453,-5.4912,-5.4835,-5.4427,-5.4407,-5.3922,-5.3086,-5.2601,-5.2411,-5.2502,-5.3358,-5.421,-5.5092,-5.594,-5.6363,-5.6309,-5.5938,-5.5572,-5.5221,-5.5243,-5.507,-5.481,-5.5583,-5.5996,-5.6016,-5.6406,-5.6618,-5.6606,-5.6614,-5.6605,-5.6573,-5.4642,-5.3639,-5.3611,-5.2429,-5.1808,-5.1808,-5.2582,-5.2986,-5.2999,-5.2991,-5.2994,-5.3019,-5.3005,-5.3018,-5.3124,-5.4616,-5.6211,-5.7831,-5.8319,-5.8538,-5.8551,-5.9324,-5.982,-5.9815,-6.0288,-6.0764,-6.1237,-5.9272,-5.8532,-5.9749,-6.0993,-6.1603,-6.1213,-6.1213,-6.1408,-6.1896,-6.1915,-6.2228,-6.2911,-6.3106,-6.3438,-6.416,-6.4297,-6.4667,-6.5609,-6.5707,-6.6136,-6.6839,-6.7461,-6.8014,-6.8746,-6.8537,-6.8396,-6.8708,-6.8493,-6.8591,-6.9333,-7.027,-7.0523,-7.0211,-7.0113,-7.0465,-7.1206,-7.1382,-7.1558,-7.189,-7.1987,-7.1987,-7.1987,-7.1987,-7.1987,-7.1987,-7.1987,-7.1987,-7.1987,-7.1987,-7.1694,-5.004,-5.0836,-5.1093,-5.1882,-5.3067,-5.4427,-5.5126,-5.5359,-5.5998,-5.5816,-5.5085,-5.5022,-5.4536,-5.3693,-5.3013,-5.2755,-5.2923,-5.3702,-5.4557,-5.5411,-5.6095,-5.642,-5.6363,-5.5775,-5.5503,-5.5516,-5.5567,-5.5579,-5.5693,-5.6292,-5.6614,-5.6616,-5.6616,-5.6612,-5.6621,-5.6786,-5.6911,-5.6907,-5.69,-5.6813,-5.6621,-5.6775,-5.6875,-5.6894,-5.7051,-5.7187,-5.7187,-5.719,-5.7184,-5.7184,-5.7171,-5.6995,-5.6676,-5.7422,-5.8417,-5.9471,-5.9295,-5.93,-5.969,-6.0495,-6.1001,-6.0996,-6.1802,-6.2564,-6.3029,-6.152,-6.0602,-6.126,-6.1974,-6.2598,-6.3067,-6.3223,-6.3555,-6.4219,-6.4297,-6.4258,-6.455,-6.4726,-6.498,-6.5077,-6.5316,-6.6082,-6.7093,-6.7464,-6.7898,-6.8945,-6.9562,-6.9681,-6.9716,-6.9816,-6.9996,-6.9938,-6.9801,-6.9762,-6.9957,-7.1031,-7.1558,-7.105,-7.0992,-7.1285,-7.1792,-7.1968,-7.1987,-7.1987,-7.1987,-7.1987,-7.1987,-7.1987,-7.1987,-7.1987,-7.1987,-7.1987,-7.1987,-7.1987,-7.1987,-4.9221,-5.0076,-5.0891,-5.2581,-5.4633,-5.4932,-5.5469,-5.6103,-5.6271,-5.5842,-5.5112,-5.5019,-5.4521,-5.3836,-5.3662,-5.3633,-5.3833,-5.4632,-5.5431,-5.6191,-5.643,-5.6491,-5.6493,-5.645,-5.6474,-5.6432,-5.6424,-5.6384,-5.6387,-5.6512,-5.6598,-5.6621,-5.6621,-5.6601,-5.6679,-5.7349,-5.774,-5.7773,-5.7773,-5.7382,-5.6699,-5.7383,-5.7793,-5.7773,-5.8515,-5.8965,-5.873,-5.8967,-5.8929,-5.8972,-5.8792,-5.8128,-5.6926,-5.7445,-5.8948,-6.1056,-5.9944,-5.9768,-6.1291,-6.2283,-6.2649,-6.2812,-6.3422,-6.3982,-6.412,-6.3925,-6.3806,-6.3919,-6.3984,-6.4121,-6.416,-6.416,-6.4258,-6.4492,-6.4531,-6.4609,-6.5448,-6.6131,-6.6854,-6.7678,-6.8121,-6.9007,-6.8996,-6.9128,-6.9277,-6.9664,-7.0243,-7.0565,-7.0628,-7.1104,-7.1499,-7.1441,-7.0914,-7.0738,-7.1363,-7.1792,-7.1909,-7.1812,-7.1831,-7.189,-7.1968,-7.1987,-7.1987,-7.1987,-7.1987,-7.1987,-7.1987,-7.1987,-7.1987,-7.1987,-7.1987,-7.1987,-7.1987,-7.1987,-7.1987,-4.8658,-4.9959,-5.0833,-5.2678,-5.4956,-5.5558,-5.5987,-5.6309,-5.5814,-5.5396,-5.505,-5.4541,-5.4105,-5.3774,-5.3259,-5.3611,-5.4665,-5.5025,-5.5591,-5.6347,-5.6432,-5.6405,-5.6337,-5.6337,-5.636,-5.6354,-5.6358,-5.6355,-5.6361,-5.6347,-5.636,-5.6366,-5.6367,-5.6381,-5.6437,-5.6776,-5.7215,-5.7699,-5.7216,-5.7255,-5.7807,-5.7415,-5.7129,-5.7148,-5.7441,-5.7612,-5.7641,-5.759,-5.7557,-5.761,-5.7586,-5.7745,-5.807,-5.7933,-5.807,-5.8714,-5.9475,-6.0393,-6.1622,-6.2022,-6.2225,-6.2212,-6.3037,-6.3724,-6.4252,-6.4296,-6.4665,-6.5653,-6.5819,-6.5663,-6.5155,-6.5058,-6.5273,-6.5761,-6.6229,-6.6658,-6.7029,-6.7805,-6.8492,-6.8854,-6.9167,-6.9651,-7.0128,-7.0638,-7.0912,-7.0993,-7.1281,-7.1395,-7.1479,-7.1778,-7.1948,-7.1948,-7.1558,-7.1519,-7.1929,-7.1987,-7.1987,-7.1987,-7.1987,-7.1987,-7.1987,-7.1987,-7.1987,-7.1987,-7.1987,-7.1987,-7.1987,-7.1987,-7.1987,-7.1987,-7.1987,-7.1987,-7.1987,-7.1987,-7.1987,-4.8701,-5.0364,-5.1707,-5.3505,-5.5462,-5.6086,-5.6221,-5.5976,-5.5386,-5.4839,-5.4355,-5.3964,-5.3787,-5.371,-5.3359,-5.3965,-5.5076,-5.539,-5.5778,-5.6315,-5.6356,-5.6305,-5.6214,-5.6208,-5.6222,-5.6212,-5.6228,-5.6207,-5.6168,-5.5935,-5.5988,-5.6159,-5.6203,-5.6375,-5.6665,-5.6855,-5.7445,-5.8173,-5.7628,-5.797,-5.8896,-5.7927,-5.7231,-5.7254,-5.7421,-5.7444,-5.7264,-5.7176,-5.7138,-5.7222,-5.7207,-5.7791,-5.8948,-5.8479,-5.7944,-5.7791,-5.9724,-6.1184,-6.1674,-6.21,-6.2271,-6.2149,-6.2852,-6.3618,-6.422,-6.4738,-6.5302,-6.5848,-6.619,-6.5897,-6.6082,-6.6141,-6.6497,-6.6941,-6.7781,-6.8386,-6.8166,-6.9058,-6.9729,-6.9765,-7.0061,-7.0315,-7.0951,-7.1539,-7.1869,-7.1886,-7.1927,-7.1986,-7.1997,-7.1987,-7.1987,-7.1987,-7.1987,-7.1968,-7.1987,-7.1987,-7.1987,-7.1987,-7.1987,-7.1987,-7.1987,-7.1987,-7.1987,-7.1987,-7.1987,-7.1987,-7.1987,-7.1987,-7.1987,-7.1987,-7.1987,-7.1987,-7.1987,-7.1987,-7.1987,-4.9646,-5.1492,-5.3879,-5.5299,-5.6317,-5.6288,-5.587,-5.5157,-5.5106,-5.4212,-5.2995,-5.3494,-5.377,-5.3779,-5.4465,-5.5001,-5.5216,-5.5769,-5.6083,-5.6191,-5.6159,-5.619,-5.6209,-5.6209,-5.6154,-5.5943,-5.6024,-5.611,-5.6133,-5.5476,-5.5441,-5.6174,-5.6323,-5.6728,-5.7504,-5.8252,-5.914,-5.9678,-5.9641,-5.9878,-5.9932,-5.9218,-5.8745,-5.8808,-5.9494,-5.9378,-5.8829,-5.8812,-5.8799,-5.8898,-5.8797,-5.8926,-5.9042,-5.9002,-5.9232,-5.9917,-6.1491,-6.2221,-6.1872,-6.2898,-6.3474,-6.3091,-6.3535,-6.4199,-6.4243,-6.5458,-6.5789,-6.4653,-6.4692,-6.5145,-6.6555,-6.7062,-6.7314,-6.7038,-6.8329,-6.8792,-6.8327,-6.9542,-7.051,-7.0683,-7.1094,-7.1523,-7.1826,-7.1953,-7.1967,-7.1932,-7.1948,-7.1914,-7.1856,-7.1909,-7.1909,-7.1968,-7.1987,-7.1987,-7.1987,-7.1987,-7.1987,-7.1987,-7.1987,-7.1987,-7.1987,-7.1987,-7.1987,-7.1987,-7.1987,-7.1987,-7.1987,-7.1987,-7.1987,-7.1987,-7.1987,-7.1987,-7.1987,-7.1987,-7.1987,-5.002,-5.2175,-5.3647,-5.4797,-5.5516,-5.4986,-5.4542,-5.4217,-5.3642,-5.3389,-5.3331,-5.3552,-5.365,-5.3657,-5.449,-5.5197,-5.5725,-5.5544,-5.5616,-5.594,-5.5564,-5.5246,-5.5111,-5.5091,-5.4783,-5.4417,-5.4824,-5.544,-5.596,-5.5711,-5.602,-5.6695,-5.685,-5.733,-5.816,-5.8546,-5.9106,-5.9821,-5.9489,-5.9697,-6.0644,-6.0037,-5.9663,-5.96,-5.8924,-5.8198,-5.7429,-5.7312,-5.7322,-5.7431,-5.7972,-5.801,-5.7693,-5.9287,-6.0239,-6.018,-6.0681,-6.1175,-6.1549,-6.2129,-6.2423,-6.2267,-6.2969,-6.354,-6.3652,-6.4511,-6.5149,-6.499,-6.4548,-6.507,-6.6254,-6.6635,-6.662,-6.7012,-6.793,-6.8769,-6.9,-6.9527,-7.0075,-7.0605,-7.1015,-7.1347,-7.1769,-7.1987,-7.1778,-7.1295,-7.1173,-7.1206,-7.1206,-7.1187,-7.1421,-7.1851,-7.1987,-7.1993,-7.1983,-7.1993,-7.1987,-7.1987,-7.1987,-7.1987,-7.1987,-7.1987,-7.1987,-7.1987,-7.1987,-7.2065,-7.2104,-7.2202,-7.2163,-7.226,-7.2241,-7.2339,-7.1987,-7.2182,-7.2124,-5.1211,-5.2617,-5.3769,-5.4414,-5.4647,-5.4041,-5.3598,-5.3301,-5.2647,-5.255,-5.2842,-5.3048,-5.3155,-5.3247,-5.3906,-5.4564,-5.5188,-5.4885,-5.4923,-5.5097,-5.4824,-5.4476,-5.4148,-5.4071,-5.3917,-5.3763,-5.4226,-5.5133,-5.6175,-5.6059,-5.6522,-5.7545,-5.7641,-5.8103,-5.8874,-5.9029,-5.9453,-6.0031,-5.9753,-6.015,-6.1074,-6.0769,-6.0384,-6.0015,-5.9032,-5.7915,-5.6904,-5.6494,-5.65,-5.6888,-5.7446,-5.7726,-5.7902,-5.9892,-6.1007,-6.0613,-6.0806,-6.1056,-6.151,-6.2052,-6.2343,-6.2164,-6.2883,-6.3389,-6.3408,-6.3451,-6.3974,-6.4668,-6.5192,-6.551,-6.5874,-6.5815,-6.5883,-6.6797,-6.7851,-6.8613,-6.8984,-6.9238,-6.9668,-7.0113,-7.0254,-7.0562,-7.1009,-7.1108,-7.0997,-7.0679,-7.0718,-7.0757,-7.106,-7.1139,-7.1251,-7.1851,-7.1987,-7.1993,-7.1997,-7.1993,-7.1987,-7.1987,-7.1987,-7.1987,-7.1987,-7.1987,-7.1987,-7.1987,-7.2065,-7.2163,-7.228,-7.2378,-7.2534,-7.267,-7.2983,-7.3217,-7.2846,-7.2495,-7.2553,-5.3306,-5.2941,-5.4403,-5.4417,-5.3799,-5.3546,-5.3118,-5.2438,-5.2285,-5.1854,-5.159,-5.1947,-5.2305,-5.2334,-5.2993,-5.3321,-5.3417,-5.3957,-5.4015,-5.3628,-5.4129,-5.4012,-5.3358,-5.3454,-5.382,-5.4381,-5.4535,-5.5499,-5.6985,-5.6502,-5.6926,-5.824,-5.8566,-5.9047,-5.9881,-5.9955,-6.0339,-6.0893,-6.0984,-6.1186,-6.1381,-6.1317,-6.0987,-6.0363,-6.0118,-5.9281,-5.7739,-5.6913,-5.6912,-5.7594,-5.7741,-5.8453,-5.9899,-6.107,-6.1511,-6.1641,-6.2152,-6.2201,-6.1876,-6.3077,-6.3507,-6.3174,-6.3692,-6.4074,-6.3884,-6.3004,-6.2888,-6.4258,-6.5511,-6.6209,-6.5582,-6.5511,-6.5795,-6.664,-6.8008,-6.8613,-6.8535,-6.8906,-6.9392,-6.9433,-6.9425,-6.9416,-6.9474,-6.9831,-7.0123,-7.0592,-7.0724,-7.0904,-7.1451,-7.1551,-7.1838,-7.1963,-7.2002,-7.1987,-7.1997,-7.1987,-7.1987,-7.1987,-7.1987,-7.1987,-7.1987,-7.1987,-7.1987,-7.2026,-7.2339,-7.2475,-7.3178,-7.3315,-7.3529,-7.3724,-7.3959,-7.3978,-7.3607,-7.3275,-7.3275,-5.2875,-5.2625,-5.3076,-5.3147,-5.2737,-5.2134,-5.1658,-5.1421,-5.1329,-5.1445,-5.1752,-5.1968,-5.2048,-5.2049,-5.2261,-5.203,-5.1607,-5.2358,-5.2916,-5.3223,-5.351,-5.3532,-5.3417,-5.3841,-5.4285,-5.4592,-5.4668,-5.5574,-5.6945,-5.704,-5.7773,-5.9165,-5.9525,-5.9998,-6.0728,-6.088,-6.1108,-6.1294,-6.1375,-6.1434,-6.146,-6.1515,-6.1392,-6.113,-6.0585,-5.9941,-5.9382,-5.8598,-5.8316,-5.8539,-5.9102,-6.0125,-6.1583,-6.2736,-6.3196,-6.3157,-6.3337,-6.3434,-6.334,-6.37,-6.3987,-6.3857,-6.4056,-6.4184,-6.4242,-6.4092,-6.4177,-6.4915,-6.5911,-6.6378,-6.6108,-6.6123,-6.6318,-6.665,-6.7207,-6.7812,-6.8105,-6.8412,-6.8642,-6.8803,-6.8691,-6.8967,-6.9752,-7.0077,-7.0285,-7.0597,-7.0702,-7.0913,-7.107,-7.1308,-7.1424,-7.1831,-7.1888,-7.1992,-7.1991,-7.1997,-7.1987,-7.1987,-7.1987,-7.1987,-7.1987,-7.2007,-7.2007,-7.2319,-7.2631,-7.31,-7.3783,-7.4212,-7.4408,-7.4486,-7.4544,-7.4408,-7.4193,-7.4134,-7.4134,-5.2387,-5.2018,-5.2308,-5.2216,-5.1851,-5.1173,-5.0877,-5.0796,-5.076,-5.1009,-5.1376,-5.1472,-5.153,-5.1511,-5.1472,-5.1164,-5.0779,-5.1241,-5.1934,-5.2761,-5.3147,-5.3263,-5.3436,-5.4207,-5.4612,-5.484,-5.5341,-5.6401,-5.7733,-5.8175,-5.9022,-6.0181,-6.046,-6.075,-6.1233,-6.1356,-6.1414,-6.1441,-6.146,-6.1515,-6.1537,-6.1568,-6.1588,-6.151,-6.1062,-6.076,-6.0639,-6.0194,-5.9755,-5.9573,-6.0183,-6.1162,-6.2193,-6.3309,-6.3798,-6.3176,-6.3048,-6.3009,-6.3122,-6.3331,-6.3642,-6.3714,-6.395,-6.4106,-6.4274,-6.4895,-6.5562,-6.5356,-6.5965,-6.6399,-6.6303,-6.6419,-6.6555,-6.6639,-6.6715,-6.7005,-6.7613,-6.7728,-6.778,-6.7939,-6.8082,-6.8694,-6.9406,-7.0019,-7.0368,-7.0584,-7.0716,-7.0943,-7.1035,-7.125,-7.1582,-7.1855,-7.1933,-7.1992,-7.1992,-7.1987,-7.1987,-7.1987,-7.1987,-7.1987,-7.1987,-7.2026,-7.2046,-7.2885,-7.3373,-7.3822,-7.4466,-7.4857,-7.513,-7.513,-7.5266,-7.5325,-7.5305,-7.5052,-7.4993,-5.1897,-5.1217,-5.1895,-5.174,-5.1082,-5.0855,-5.0664,-5.0456,-5.0607,-5.0579,-5.0457,-5.068,-5.074,-5.0702,-5.074,-5.0702,-5.0702,-5.0777,-5.1413,-5.2357,-5.305,-5.3571,-5.3918,-5.4591,-5.4917,-5.5109,-5.6418,-5.7635,-5.8484,-5.9323,-6.0418,-6.105,-6.1211,-6.1383,-6.1401,-6.1421,-6.1467,-6.1503,-6.1515,-6.1537,-6.1578,-6.1588,-6.1588,-6.1588,-6.152,-6.1431,-6.1348,-6.1207,-6.091,-6.039,-6.0928,-6.1421,-6.188,-6.3155,-6.3117,-6.2085,-6.1802,-6.2026,-6.2046,-6.2825,-6.3136,-6.3181,-6.3687,-6.4027,-6.4286,-6.5324,-6.5939,-6.5416,-6.5895,-6.6225,-6.6244,-6.634,-6.6454,-6.6588,-6.6685,-6.6858,-6.6992,-6.7129,-6.7321,-6.7402,-6.7776,-6.8518,-6.9108,-6.9585,-7.0028,-7.0664,-7.0918,-7.125,-7.1601,-7.1777,-7.1914,-7.1992,-7.1992,-7.1992,-7.1992,-7.1994,-7.1983,-7.2002,-7.1997,-7.1993,-7.1987,-7.2026,-7.2514,-7.3373,-7.3959,-7.4486,-7.5149,-7.5637,-7.6047,-7.6262,-7.6399,-7.6516,-7.632,-7.5994,-7.5819,-5.1296,-5.1067,-5.1271,-5.1134,-5.0877,-5.075,-5.0566,-5.038,-5.0564,-5.0374,-5.0133,-5.0355,-5.0418,-5.0221,-5.0355,-5.0416,-5.0591,-5.1031,-5.1897,-5.2927,-5.3782,-5.4628,-5.5208,-5.5515,-5.5627,-5.5799,-5.6853,-5.7835,-5.8687,-5.9672,-6.0531,-6.1324,-6.1428,-6.1464,-6.1489,-6.1528,-6.1558,-6.1568,-6.1568,-6.1568,-6.1588,-6.1588,-6.1588,-6.1588,-6.1548,-6.1503,-6.1408,-6.1313,-6.1255,-6.1109,-6.1225,-6.1836,-6.2432,-6.2463,-6.2435,-6.2708,-6.3078,-6.3341,-6.3309,-6.3453,-6.3624,-6.3618,-6.3598,-6.4206,-6.4833,-6.5261,-6.5681,-6.5812,-6.6185,-6.6245,-6.6225,-6.6321,-6.6477,-6.6644,-6.6754,-6.7063,-6.7637,-6.7871,-6.7929,-6.82,-6.873,-6.957,-7.046,-7.0644,-7.0683,-7.1367,-7.1601,-7.1621,-7.1914,-7.1992,-7.1992,-7.1992,-7.1992,-7.1992,-7.1992,-7.1992,-7.1994,-7.1994,-7.1991,-7.1997,-7.1993,-7.2007,-7.2885,-7.392,-7.4134,-7.4564,-7.5774,-7.6691,-7.7023,-7.7062,-7.6984,-7.6828,-7.6892,-7.6702,-7.6638,-5.0937,-5.0735,-5.0717,-5.0605,-5.0412,-5.0356,-5.0164,-4.9996,-5.0199,-5.0107,-4.9871,-5.0125,-5.024,-5.0149,-5.0283,-5.0558,-5.0879,-5.1295,-5.2341,-5.3788,-5.474,-5.5443,-5.5896,-5.601,-5.6043,-5.6214,-5.7358,-5.8202,-5.8916,-6.0034,-6.0929,-6.1362,-6.1515,-6.1519,-6.1539,-6.1568,-6.1588,-6.1588,-6.1588,-6.1588,-6.1588,-6.1568,-6.1568,-6.1568,-6.1515,-6.1408,-6.1318,-6.1233,-6.1268,-6.1366,-6.1433,-6.1752,-6.2313,-6.1885,-6.1838,-6.251,-6.2791,-6.2904,-6.2918,-6.2925,-6.2866,-6.2784,-6.2788,-6.3185,-6.3832,-6.4319,-6.4886,-6.5566,-6.6031,-6.6206,-6.6225,-6.6321,-6.6477,-6.6625,-6.6731,-6.7171,-6.8105,-6.8164,-6.8574,-6.914,-6.9743,-7.041,-7.1816,-7.1504,-7.1562,-7.1836,-7.1914,-7.1933,-7.1992,-7.1992,-7.1992,-7.1992,-7.1992,-7.1992,-7.1992,-7.1992,-7.1992,-7.2001,-7.1987,-7.1997,-7.1997,-7.2032,-7.2827,-7.3705,-7.4173,-7.4837,-7.593,-7.6828,-7.7082,-7.7082,-7.7082,-7.7087,-7.7093,-7.7093,-7.7087,-5.0736,-5.0383,-5.0298,-5.0115,-4.9916,-4.9827,-4.9721,-4.951,-4.978,-4.9789,-4.9692,-4.9884,-5.0095,-5.0255,-5.0441,-5.0903,-5.1519,-5.1658,-5.2839,-5.4259,-5.5393,-5.6029,-5.6009,-5.6102,-5.6097,-5.6384,-5.7935,-5.8642,-5.9232,-6.0565,-6.1406,-6.1534,-6.1578,-6.1588,-6.1568,-6.1578,-6.1578,-6.1578,-6.1588,-6.1578,-6.1568,-6.1537,-6.1507,-6.1518,-6.1434,-6.1318,-6.1236,-6.12,-6.1252,-6.1366,-6.1394,-6.153,-6.1646,-6.1499,-6.1414,-6.148,-6.1622,-6.1628,-6.1478,-6.1633,-6.1453,-6.1469,-6.1472,-6.1688,-6.2799,-6.369,-6.4503,-6.5374,-6.5799,-6.6127,-6.6205,-6.6321,-6.6455,-6.6558,-6.6599,-6.7099,-6.789,-6.8262,-6.8867,-7.0215,-7.0683,-7.1211,-7.1699,-7.1992,-7.1992,-7.1914,-7.1992,-7.1992,-7.1992,-7.1992,-7.1992,-7.1992,-7.1992,-7.1992,-7.1992,-7.1992,-7.1992,-7.1984,-7.1987,-7.1993,-7.2002,-7.2173,-7.2715,-7.3295,-7.3803,-7.4564,-7.5579,-7.6262,-7.6711,-7.7101,-7.7101,-7.7112,-7.7117,-7.7087,-7.7087,-5.0467,-5.0298,-5.0068,-4.9924,-4.9834,-4.981,-4.9719,-4.9582,-4.9834,-4.9753,-4.9623,-4.9887,-4.9959,-4.9909,-5.0601,-5.1243,-5.1637,-5.2207,-5.3322,-5.4591,-5.5711,-5.6115,-5.6139,-5.6161,-5.6187,-5.6589,-5.8013,-5.8815,-5.9274,-6.0436,-6.1549,-6.148,-6.1273,-6.1507,-6.1468,-6.1409,-6.1507,-6.1526,-6.1558,-6.1578,-6.1546,-6.1503,-6.146,-6.1434,-6.1313,-6.122,-6.1152,-6.1167,-6.1217,-6.1279,-6.1415,-6.1526,-6.1548,-6.1447,-6.1318,-6.1236,-6.1318,-6.1366,-6.1283,-6.1252,-6.1239,-6.127,-6.1773,-6.251,-6.3361,-6.4155,-6.5006,-6.574,-6.6108,-6.6185,-6.6205,-6.6321,-6.638,-6.6454,-6.6566,-6.6952,-6.7875,-6.8626,-6.9668,-7.0898,-7.1523,-7.1777,-7.1972,-7.1992,-7.1992,-7.1992,-7.1992,-7.1992,-7.1992,-7.1992,-7.1992,-7.1992,-7.1992,-7.1992,-7.1992,-7.1992,-7.1992,-7.1992,-7.1998,-7.1997,-7.1983,-7.2061,-7.2505,-7.2988,-7.3471,-7.4315,-7.5082,-7.5701,-7.615,-7.6619,-7.699,-7.678,-7.6668,-7.6834,-7.6906,-4.9662,-4.9884,-4.9721,-4.9598,-4.951,-4.9525,-4.9495,-4.9518,-4.9644,-4.9653,-4.9615,-4.9871,-4.9898,-4.9909,-5.0539,-5.1047,-5.1836,-5.3061,-5.4007,-5.4823,-5.5665,-5.6173,-5.6169,-5.6185,-5.6233,-5.6466,-5.8,-5.8577,-5.8834,-5.9849,-6.062,-6.0311,-6.0285,-6.0424,-6.0799,-6.089,-6.1065,-6.1408,-6.1491,-6.1491,-6.1467,-6.1389,-6.1332,-6.1271,-6.122,-6.1186,-6.1098,-6.1116,-6.1152,-6.1186,-6.1283,-6.1434,-6.146,-6.1347,-6.1206,-6.1154,-6.1171,-6.1239,-6.1186,-6.1189,-6.1328,-6.166,-6.2162,-6.3091,-6.3903,-6.4657,-6.5218,-6.5915,-6.6185,-6.6205,-6.6205,-6.6243,-6.6301,-6.6321,-6.6379,-6.6804,-6.7697,-6.8681,-6.9777,-7.1015,-7.164,-7.1855,-7.1992,-7.1992,-7.1992,-7.1992,-7.1992,-7.1992,-7.1992,-7.1992,-7.1992,-7.1992,-7.1992,-7.1992,-7.1992,-7.1992,-7.1992,-7.1992,-7.1989,-7.2001,-7.1998,-7.2073,-7.2202,-7.2631,-7.3061,-7.3607,-7.4353,-7.4955,-7.5419,-7.5775,-7.5994,-7.6028,-7.5946,-7.5751,-7.596,-4.8918,-4.9457,-4.9415,-4.9321,-4.9249,-4.9243,-4.9337,-4.9439,-4.9466,-4.9616,-4.9722,-4.9835,-4.9952,-5.0095,-5.0469,-5.1009,-5.1986,-5.353,-5.4484,-5.413,-5.5273,-5.5733,-5.5824,-5.5857,-5.6032,-5.6337,-5.7729,-5.8072,-5.815,-5.8952,-5.9614,-5.8985,-5.8869,-5.9469,-5.9978,-6.0134,-6.057,-6.125,-6.1394,-6.1394,-6.1347,-6.1268,-6.1203,-6.1134,-6.1152,-6.1152,-6.1117,-6.1099,-6.1099,-6.1099,-6.1099,-6.1189,-6.1275,-6.1206,-6.1099,-6.1099,-6.1117,-6.1098,-6.1117,-6.1137,-6.137,-6.2182,-6.2549,-6.3226,-6.429,-6.4889,-6.5411,-6.5837,-6.6205,-6.6205,-6.6205,-6.6205,-6.6205,-6.6205,-6.6205,-6.6572,-6.7307,-6.839,-6.9361,-7.0566,-7.1465,-7.1953,-7.1992,-7.1992,-7.1992,-7.1992,-7.1992,-7.1992,-7.1992,-7.1992,-7.1992,-7.1992,-7.1992,-7.1992,-7.1992,-7.1992,-7.1992,-7.1992,-7.1992,-7.1992,-7.1992,-7.2044,-7.212,-7.2198,-7.2609,-7.3105,-7.3515,-7.3995,-7.4444,-7.4815,-7.5108,-7.5245,-7.5027,-7.4646,-7.5013,-4.8975,-4.9797,-4.9537,-4.9365,-4.9352,-4.934,-4.9502,-4.9636,-4.9698,-4.9815,-4.9933,-5.0031,-5.0038,-5.0241,-5.0913,-5.1372,-5.1972,-5.3348,-5.3802,-5.3268,-5.4245,-5.501,-5.5262,-5.5288,-5.5535,-5.6243,-5.7203,-5.7541,-5.7657,-5.8461,-5.8745,-5.8739,-5.8663,-5.9084,-5.9665,-6.0049,-6.0437,-6.1116,-6.1318,-6.1337,-6.1252,-6.122,-6.1169,-6.1099,-6.1116,-6.1117,-6.1099,-6.1099,-6.1099,-6.1099,-6.1099,-6.1156,-6.1252,-6.1233,-6.108,-6.108,-6.1041,-6.1041,-6.108,-6.108,-6.1119,-6.1582,-6.2588,-6.34,-6.4193,-6.5102,-6.5799,-6.6011,-6.6205,-6.6205,-6.6205,-6.6205,-6.6205,-6.6205,-6.6224,-6.6321,-6.6727,-6.7581,-6.874,-7.0084,-7.1133,-7.1914,-7.1797,-7.1855,-7.1992,-7.1992,-7.1992,-7.1992,-7.1992,-7.1992,-7.1992,-7.1992,-7.1992,-7.1992,-7.1992,-7.1992,-7.1992,-7.1992,-7.1992,-7.1992,-7.1992,-7.1992,-7.2051,-7.2129,-7.2129,-7.2363,-7.2754,-7.3144,-7.3203,-7.3418,-7.3926,-7.4472,-7.4177,-7.3897,-7.4259,-4.8465,-4.9588,-4.9476,-4.9446,-4.9544,-4.9558,-4.969,-4.9852,-4.9898,-4.9968,-5.0063,-5.0133,-5.0158,-5.0278,-5.0646,-5.0998,-5.1509,-5.2434,-5.2731,-5.2535,-5.3406,-5.4365,-5.4793,-5.4843,-5.5346,-5.5943,-5.6533,-5.6761,-5.68,-5.7595,-5.7808,-5.7482,-5.7702,-5.8402,-5.9196,-5.9738,-6.0358,-6.0976,-6.1186,-6.1223,-6.1152,-6.1152,-6.1116,-6.1117,-6.1099,-6.1099,-6.1099,-6.1099,-6.1099,-6.1099,-6.1099,-6.1601,-6.1834,-6.1484,-6.0978,-6.1017,-6.1018,-6.102,-6.104,-6.1039,-6.1214,-6.1794,-6.2915,-6.3825,-6.4463,-6.5372,-6.6147,-6.6205,-6.6205,-6.6205,-6.6205,-6.6205,-6.6205,-6.6205,-6.6205,-6.6243,-6.6475,-6.7212,-6.8294,-6.9536,-7.0469,-7.1094,-7.1367,-7.1523,-7.1875,-7.1992,-7.1992,-7.1992,-7.1992,-7.1992,-7.1992,-7.1992,-7.1992,-7.1992,-7.1992,-7.1992,-7.1992,-7.1992,-7.1992,-7.1992,-7.1992,-7.1992,-7.1992,-7.2031,-7.1992,-7.1992,-7.2109,-7.2539,-7.2285,-7.2129,-7.2734,-7.3222,-7.3203,-7.328,-7.3585,-4.7953,-4.9017,-4.9187,-4.9276,-4.9287,-4.9435,-4.9438,-4.9523,-4.9664,-4.9613,-4.9588,-4.9796,-4.9896,-5.0002,-5.0237,-5.0486,-5.0587,-5.1431,-5.176,-5.1934,-5.2829,-5.3762,-5.4326,-5.4849,-5.5219,-5.5932,-5.6087,-5.6012,-5.6222,-5.6725,-5.667,-5.6842,-5.7132,-5.7886,-5.8912,-5.9666,-6.0364,-6.0847,-6.1099,-6.1099,-6.1099,-6.1099,-6.1099,-6.1099,-6.1099,-6.1099,-6.1099,-6.1099,-6.108,-6.108,-6.1196,-6.166,-6.2568,-6.1649,-6.0877,-6.0958,-6.0971,-6.0993,-6.0995,-6.0995,-6.121,-6.1694,-6.2911,-6.3821,-6.4576,-6.5311,-6.6165,-6.6185,-6.6205,-6.6205,-6.6205,-6.6205,-6.6205,-6.6205,-6.6205,-6.6243,-6.6398,-6.6864,-6.7464,-6.8584,-6.9678,-7.0566,-7.1133,-7.1523,-7.1953,-7.1992,-7.1992,-7.1992,-7.1992,-7.1992,-7.1992,-7.1992,-7.1992,-7.1992,-7.1992,-7.1992,-7.1992,-7.1992,-7.1992,-7.1992,-7.1992,-7.1992,-7.1992,-7.1992,-7.1992,-7.1992,-7.1992,-7.1992,-7.2031,-7.2051,-7.2012,-7.2148,-7.248,-7.2558,-7.2708,-4.7993,-4.7704,-4.848,-4.8375,-4.7901,-4.8529,-4.8378,-4.7915,-4.8642,-4.8471,-4.8093,-4.8713,-4.9143,-4.9352,-4.9929,-5.0125,-5.0403,-5.099,-5.1281,-5.1304,-5.2396,-5.3346,-5.3826,-5.4484,-5.5219,-5.5877,-5.6012,-5.6012,-5.6089,-5.6225,-5.6611,-5.6998,-5.7441,-5.808,-5.9474,-5.9899,-6.0306,-6.0963,-6.1099,-6.1099,-6.1099,-6.1099,-6.1099,-6.1099,-6.1099,-6.1099,-6.1099,-6.1099,-6.106,-6.1022,-6.108,-6.1157,-6.125,-6.1065,-6.0823,-6.0843,-6.0888,-6.0933,-6.0955,-6.0935,-6.0955,-6.1494,-6.2557,-6.3367,-6.4359,-6.5308,-6.6144,-6.6185,-6.6205,-6.6205,-6.6205,-6.6205,-6.6205,-6.6205,-6.6205,-6.6224,-6.6321,-6.6592,-6.7174,-6.7788,-6.8903,-7.035,-7.1367,-7.1699,-7.1992,-7.1992,-7.1992,-7.1992,-7.1992,-7.1992,-7.1992,-7.1992,-7.1992,-7.1992,-7.1992,-7.1992,-7.1992,-7.1992,-7.1992,-7.1992,-7.1992,-7.1992,-7.1992,-7.1992,-7.1992,-7.1992,-7.1992,-7.1992,-7.1992,-7.1992,-7.1992,-7.1992,-7.2031,-7.2051,-7.209,-4.7693,-4.7427,-4.7813,-4.7738,-4.7472,-4.7806,-4.7776,-4.7606,-4.7851,-4.79,-4.7781,-4.8485,-4.9112,-4.9505,-4.9943,-4.9993,-5.0195,-5.0859,-5.1266,-5.1377,-5.2406,-5.3434,-5.4179,-5.4639,-5.5219,-5.5818,-5.6012,-5.6012,-5.6109,-5.6515,-5.7018,-5.7366,-5.8254,-5.9086,-5.9996,-6.0364,-6.0731,-6.1041,-6.1099,-6.1099,-6.1099,-6.1099,-6.1099,-6.1099,-6.1099,-6.1099,-6.1099,-6.1099,-6.106,-6.1002,-6.1021,-6.0999,-6.0976,-6.0911,-6.0823,-6.0911,-6.0846,-6.0846,-6.0869,-6.085,-6.0869,-6.1142,-6.2144,-6.3367,-6.4591,-6.5561,-6.6123,-6.6185,-6.6205,-6.6205,-6.6205,-6.6205,-6.6205,-6.6205,-6.6243,-6.6282,-6.634,-6.6534,-6.6942,-6.7503,-6.8169,-6.9566,-7.0898,-7.1523,-7.1816,-7.1992,-7.1992,-7.1992,-7.1992,-7.1992,-7.1992,-7.1992,-7.1992,-7.1992,-7.1992,-7.1992,-7.1992,-7.1992,-7.1992,-7.1992,-7.1992,-7.1992,-7.1992,-7.1992,-7.1992,-7.1992,-7.1992,-7.1992,-7.1992,-7.1992,-7.1992,-7.1992,-7.1992,-7.1992,-7.203,-4.6841,-4.6802,-4.6999,-4.698,-4.6809,-4.7005,-4.6992,-4.6846,-4.7105,-4.7091,-4.7224,-4.7984,-4.9005,-4.9834,-4.994,-4.9959,-4.9982,-5.0825,-5.1356,-5.1942,-5.2855,-5.388,-5.4568,-5.497,-5.5451,-5.6012,-5.6012,-5.6012,-5.6263,-5.6786,-5.7346,-5.7637,-5.8641,-5.9705,-6.0267,-6.0692,-6.106,-6.1079,-6.1099,-6.1099,-6.1099,-6.1099,-6.1099,-6.1099,-6.1099,-6.1099,-6.1099,-6.1099,-6.108,-6.1002,-6.0981,-6.0978,-6.0933,-6.0914,-6.0891,-6.0955,-6.0891,-6.0869,-6.0869,-6.0846,-6.0823,-6.1174,-6.2005,-6.356,-6.517,-6.5906,-6.6121,-6.6205,-6.6205,-6.6205,-6.6205,-6.6205,-6.6205,-6.6243,-6.6301,-6.6359,-6.6438,-6.6593,-6.6766,-6.7191,-6.7821,-6.8609,-6.9883,-7.0996,-7.1562,-7.1894,-7.1992,-7.1992,-7.1992,-7.1992,-7.1992,-7.1992,-7.1992,-7.1992,-7.1992,-7.1992,-7.1992,-7.1992,-7.1992,-7.1992,-7.1992,-7.1992,-7.1992,-7.1992,-7.1992,-7.1992,-7.1992,-7.1992,-7.1992,-7.1992,-7.1992,-7.1992,-7.1992,-7.199,-7.1989,-4.5133,-4.5141,-4.5956,-4.5862,-4.5198,-4.5949,-4.5835,-4.5393,-4.5987,-4.5949,-4.5873,-4.686,-4.8491,-4.9565,-4.9906,-4.9906,-4.9944,-5.0945,-5.1535,-5.2329,-5.3445,-5.4456,-5.5049,-5.5492,-5.5857,-5.5973,-5.6012,-5.6012,-5.6225,-5.6882,-5.7695,-5.8488,-5.8913,-5.9764,-6.048,-6.0983,-6.1099,-6.1099,-6.1099,-6.1099,-6.1099,-6.1099,-6.1099,-6.1099,-6.1099,-6.1099,-6.1099,-6.1099,-6.108,-6.1002,-6.1001,-6.0959,-6.0914,-6.0935,-6.0978,-6.0978,-6.0976,-6.0935,-6.0955,-6.0891,-6.0891,-6.1398,-6.2307,-6.3464,-6.4569,-6.5633,-6.6024,-6.5952,-6.5799,-6.5992,-6.605,-6.6205,-6.6205,-6.6243,-6.6322,-6.6438,-6.6513,-6.6639,-6.6811,-6.6988,-6.748,-6.8183,-6.8789,-6.9883,-7.0996,-7.1387,-7.1972,-7.1992,-7.1992,-7.1992,-7.1992,-7.1992,-7.1992,-7.1992,-7.1992,-7.1992,-7.1992,-7.1992,-7.1992,-7.1992,-7.1992,-7.1992,-7.1992,-7.1992,-7.1992,-7.1992,-7.1992,-7.1992,-7.1992,-7.1992,-7.1992,-7.1992,-7.2001,-7.1998,-7.1991,-4.4967,-4.4981,-4.5299,-4.5217,-4.4933,-4.5261,-4.5223,-4.4971,-4.5261,-4.5886,-4.643,-4.7188,-4.8325,-4.95,-4.9879,-4.9879,-5.0142,-5.1586,-5.2113,-5.3073,-5.4241,-5.5228,-5.5669,-5.5763,-5.5993,-5.6012,-5.6012,-5.6012,-5.6109,-5.6805,-5.7733,-5.8449,-5.901,-6.0016,-6.077,-6.1099,-6.1099,-6.1099,-6.1099,-6.1099,-6.1099,-6.1099,-6.1099,-6.1099,-6.1099,-6.1099,-6.1099,-6.1099,-6.1061,-6.1041,-6.1002,-6.096,-6.0938,-6.098,-6.1,-6.104,-6.102,-6.1039,-6.104,-6.098,-6.096,-6.1175,-6.2023,-6.2926,-6.3568,-6.44,-6.477,-6.485,-6.5064,-6.5276,-6.5489,-6.5876,-6.6205,-6.6263,-6.6341,-6.6456,-6.6586,-6.6692,-6.6797,-6.6953,-6.7168,-6.7578,-6.8164,-6.8769,-6.9883,-7.0859,-7.1484,-7.1992,-7.1992,-7.1992,-7.1992,-7.1992,-7.1992,-7.1992,-7.1992,-7.1992,-7.1992,-7.1992,-7.1992,-7.1992,-7.1992,-7.1992,-7.1992,-7.1992,-7.1992,-7.1992,-7.1992,-7.1992,-7.1992,-7.1992,-7.1992,-7.1992,-7.1983,-7.1997,-7.1993,-4.4782,-4.4967,-4.4919,-4.4895,-4.4895,-4.4895,-4.4895,-4.4895,-4.4914,-4.5843,-4.7397,-4.77,-4.8534,-4.9595,-4.9879,-4.9879,-5.0423,-5.1732,-5.2609,-5.3635,-5.4726,-5.575,-5.5977,-5.6012,-5.6012,-5.6012,-5.6012,-5.6012,-5.6031,-5.6631,-5.7521,-5.8449,-5.9223,-5.9957,-6.0905,-6.1099,-6.1099,-6.1099,-6.1099,-6.1099,-6.1099,-6.1099,-6.1099,-6.1099,-6.1099,-6.1099,-6.1099,-6.1099,-6.108,-6.1041,-6.1022,-6.1041,-6.1041,-6.106,-6.108,-6.106,-6.106,-6.1041,-6.1061,-6.1061,-6.1021,-6.1137,-6.1813,-6.2258,-6.2646,-6.3496,-6.4153,-6.4406,-6.4406,-6.4541,-6.5083,-6.5915,-6.6185,-6.6243,-6.6437,-6.6554,-6.6638,-6.6719,-6.6816,-6.6933,-6.709,-6.7226,-6.7578,-6.8203,-6.9355,-7.0351,-7.0996,-7.1601,-7.1992,-7.1992,-7.1992,-7.1992,-7.1992,-7.1992,-7.1992,-7.1992,-7.1992,-7.1992,-7.1992,-7.1992,-7.1992,-7.1992,-7.1992,-7.1992,-7.1992,-7.1992,-7.1992,-7.1992,-7.1992,-7.1992,-7.1997,-7.2002,-7.1997,-7.1993,-7.1993,-4.426,-4.4857,-4.4895,-4.4895,-4.4895,-4.4895,-4.4895,-4.4914,-4.5009,-4.5956,-4.751,-4.8257,-4.9034,-4.9746,-4.9879,-4.9906,-5.0418,-5.1988,-5.2992,-5.3503,-5.4998,-5.5842,-5.5995,-5.6012,-5.6012,-5.6012,-5.6012,-5.6012,-5.6012,-5.6379,-5.725,-5.8178,-5.8874,-5.9706,-6.0983,-6.1099,-6.1099,-6.1099,-6.1099,-6.1099,-6.1099,-6.1099,-6.1099,-6.1099,-6.1099,-6.1099,-6.1099,-6.1099,-6.108,-6.108,-6.108,-6.108,-6.108,-6.108,-6.108,-6.108,-6.108,-6.108,-6.1099,-6.1099,-6.108,-6.1079,-6.1717,-6.2163,-6.2491,-6.3129,-6.3922,-6.4077,-6.4251,-6.4657,-6.5412,-6.6166,-6.6166,-6.6282,-6.6475,-6.6612,-6.6672,-6.6758,-6.6855,-6.6894,-6.6894,-6.6972,-6.7226,-6.7754,-6.8906,-6.9824,-7.0469,-7.1074,-7.1621,-7.1992,-7.1992,-7.1992,-7.1992,-7.1992,-7.1992,-7.1992,-7.1992,-7.1992,-7.1992,-7.1992,-7.1992,-7.1992,-7.1992,-7.1992,-7.199,-7.1988,-7.1994,-7.1992,-7.1987,-7.1993,-7.1987,-7.1993,-7.1993,-7.1993,-7.1987,-4.4199,-4.4895,-4.4895,-4.4895,-4.4895,-4.4895,-4.4895,-4.5009,-4.5577,-4.6695,-4.8041,-4.8636,-4.9148,-4.9671,-4.9925,-4.9978,-5.0462,-5.2012,-5.3015,-5.3366,-5.5094,-5.5764,-5.6012,-5.6012,-5.6012,-5.6012,-5.6012,-5.6012,-5.6012,-5.636,-5.694,-5.7791,-5.8894,-6.0035,-6.0828,-6.1099,-6.1099,-6.1099,-6.1099,-6.1099,-6.1099,-6.1099,-6.1099,-6.1099,-6.1099,-6.1099,-6.1099,-6.1099,-6.1099,-6.1099,-6.1099,-6.1099,-6.1099,-6.1099,-6.1099,-6.1099,-6.1099,-6.1099,-6.1099,-6.1099,-6.1099,-6.1235,-6.1447,-6.1988,-6.2375,-6.2008,-6.2801,-6.3922,-6.4367,-6.4793,-6.5199,-6.5934,-6.6166,-6.634,-6.6495,-6.6612,-6.668,-6.6797,-6.6894,-6.6894,-6.6894,-6.6894,-6.7051,-6.7207,-6.8164,-6.9062,-6.9687,-7.0371,-7.0957,-7.166,-7.1972,-7.1992,-7.1992,-7.1992,-7.1992,-7.1992,-7.1992,-7.1992,-7.1992,-7.1992,-7.1992,-7.1992,-7.1992,-7.1992,-7.1992,-7.1984,-7.1991,-7.1993,-7.1987,-7.1987,-7.1987,-7.1987,-7.1987,-7.1987,-7.1987,-4.3891,-4.4876,-4.4895,-4.4895,-4.4895,-4.4895,-4.5066,-4.5439,-4.6259,-4.7416,-4.8515,-4.8951,-4.9386,-4.9784,-4.9925,-4.9952,-5.0304,-5.2097,-5.3015,-5.3385,-5.5113,-5.5803,-5.6012,-5.6012,-5.6012,-5.6012,-5.6012,-5.6012,-5.6012,-5.6553,-5.6998,-5.7675,-5.899,-5.9938,-6.0615,-6.0828,-6.1099,-6.1099,-6.1099,-6.1099,-6.1099,-6.1099,-6.1099,-6.1099,-6.1099,-6.1099,-6.1099,-6.1099,-6.1099,-6.1099,-6.1099,-6.1099,-6.1099,-6.1099,-6.1099,-6.1099,-6.1099,-6.1099,-6.1099,-6.1099,-6.1234,-6.1602,-6.1543,-6.1988,-6.2588,-6.2607,-6.3129,-6.398,-6.4638,-6.5064,-6.547,-6.6127,-6.6244,-6.6399,-6.6496,-6.6592,-6.668,-6.6797,-6.6894,-6.6894,-6.6894,-6.6894,-6.6894,-6.6972,-6.7363,-6.8144,-6.8906,-6.9551,-7.0176,-7.084,-7.1465,-7.1562,-7.1758,-7.1875,-7.1914,-7.1992,-7.1992,-7.1992,-7.1933,-7.1855,-7.1992,-7.1992,-7.1992,-7.1972,-7.1933,-7.1914,-7.1972,-7.1978,-7.1856,-7.189,-7.1987,-7.1987,-7.1987,-7.1987,-7.1987,-4.3455,-4.4857,-4.4914,-4.4933,-4.4952,-4.4952,-4.5382,-4.6266,-4.7011,-4.7889,-4.8799,-4.9557,-4.9822,-4.986,-4.9879,-4.9933,-5.038,-5.2112,-5.2804,-5.3605,-5.5112,-5.5668,-5.6012,-5.6012,-5.6012,-5.6012,-5.6012,-5.6012,-5.6012,-5.6186,-5.6592,-5.7422,-5.8662,-5.9455,-5.99,-6.046,-6.0867,-6.1021,-6.1099,-6.1099,-6.1099,-6.1099,-6.1099,-6.1099,-6.1099,-6.1099,-6.1099,-6.1099,-6.1099,-6.1099,-6.1099,-6.1099,-6.1099,-6.1099,-6.1099,-6.1099,-6.1099,-6.1099,-6.1137,-6.1137,-6.1776,-6.2317,-6.2569,-6.3013,-6.3342,-6.3497,-6.3864,-6.4677,-6.5508,-6.5818,-6.6185,-6.6244,-6.6283,-6.6399,-6.6496,-6.6578,-6.6634,-6.6738,-6.6855,-6.6894,-6.6894,-6.6894,-6.6894,-6.6953,-6.6992,-6.7344,-6.8008,-6.8359,-6.9004,-6.9668,-7.0273,-7.0762,-7.1074,-7.166,-7.168,-7.1308,-7.123,-7.0996,-7.1543,-7.1621,-7.1797,-7.1855,-7.1816,-7.1758,-7.1777,-7.1719,-7.1484,-7.1483,-7.1597,-7.1636,-7.1441,-7.1792,-7.1733,-7.1948,-7.1987,-4.463,-4.6506,-4.5407,-4.5255,-4.5691,-4.516,-4.571,-4.6999,-4.734,-4.8155,-4.9576,-4.9784,-4.9879,-4.9879,-4.9879,-5.0005,-5.0792,-5.1867,-5.2799,-5.3822,-5.4957,-5.5668,-5.6012,-5.6012,-5.6012,-5.6012,-5.6012,-5.6012,-5.6012,-5.6012,-5.6437,-5.7383,-5.7946,-5.8468,-5.9106,-5.9841,-6.046,-6.0925,-6.1021,-6.1099,-6.1099,-6.1099,-6.1099,-6.1099,-6.1099,-6.1099,-6.1099,-6.1099,-6.1099,-6.1099,-6.1099,-6.1099,-6.1099,-6.1099,-6.1099,-6.1099,-6.1099,-6.1118,-6.1195,-6.1679,-6.2394,-6.3226,-6.3768,-6.4251,-6.4425,-6.4387,-6.4522,-6.5354,-6.5934,-6.6127,-6.6205,-6.6243,-6.6303,-6.636,-6.6476,-6.6555,-6.6595,-6.668,-6.6797,-6.6875,-6.6875,-6.6894,-6.6894,-6.6894,-6.6953,-6.6992,-6.7168,-6.7519,-6.789,-6.8574,-6.9219,-6.9746,-7.0137,-7.0625,-7.0273,-6.9883,-6.9961,-7.0058,-7.0644,-7.1094,-7.1113,-7.1211,-7.1426,-7.1289,-7.0898,-7.0762,-7.0683,-7.0734,-7.0776,-7.0582,-7.0445,-7.1031,-7.1499,-7.1519,-7.1616,-4.444,-4.6203,-4.5729,-4.5729,-4.6,-4.5255,-4.5843,-4.7188,-4.7397,-4.8344,-4.9784,-4.9879,-4.9879,-4.9879,-4.9906,-4.9978,-5.0215,-5.1481,-5.2516,-5.3474,-5.4745,-5.5437,-5.5803,-5.5993,-5.6012,-5.6012,-5.6012,-5.6012,-5.6012,-5.6031,-5.636,-5.6689,-5.7018,-5.7559,-5.8294,-5.9281,-6.0093,-6.0557,-6.0867,-6.1041,-6.1099,-6.1099,-6.1099,-6.1099,-6.1099,-6.1099,-6.1099,-6.1099,-6.1099,-6.1099,-6.1099,-6.1099,-6.1099,-6.1099,-6.1099,-6.1099,-6.1099,-6.1369,-6.166,-6.2085,-6.3013,-6.3961,-6.4677,-6.5044,-6.5238,-6.5238,-6.5489,-6.5973,-6.6089,-6.6205,-6.6205,-6.6244,-6.6282,-6.6331,-6.6409,-6.6503,-6.656,-6.661,-6.6699,-6.6816,-6.6855,-6.6894,-6.6894,-6.6894,-6.6894,-6.6933,-6.6953,-6.707,-6.7305,-6.7656,-6.8281,-6.8847,-6.914,-6.9453,-6.9043,-6.8926,-6.9199,-6.9512,-6.9902,-7.0254,-7.0351,-7.0449,-7.0566,-7.0215,-6.9726,-6.9726,-6.9805,-6.9765,-6.9752,-6.957,-6.9557,-7.0006,-7.0372,-7.0504,-7.0621,-4.3606,-4.5426,-4.6051,-4.6398,-4.6182,-4.545,-4.5956,-4.7308,-4.7397,-4.8325,-4.9671,-4.9879,-4.9879,-4.9879,-4.9906,-4.9906,-5.0259,-5.1135,-5.2084,-5.2996,-5.4168,-5.5036,-5.559,-5.5954,-5.5993,-5.6012,-5.6012,-5.6012,-5.6012,-5.6031,-5.6051,-5.607,-5.6708,-5.7134,-5.7403,-5.8836,-5.9629,-5.9822,-6.0576,-6.1099,-6.1099,-6.1099,-6.1099,-6.1099,-6.1099,-6.1099,-6.1099,-6.1099,-6.1099,-6.1099,-6.1099,-6.1099,-6.1099,-6.1099,-6.1099,-6.1099,-6.1099,-6.1543,-6.2046,-6.253,-6.3478,-6.4348,-6.5083,-6.5489,-6.5721,-6.5799,-6.6011,-6.6069,-6.6166,-6.6205,-6.6205,-6.6224,-6.6264,-6.6283,-6.634,-6.6418,-6.6481,-6.6571,-6.668,-6.6777,-6.6855,-6.6875,-6.6894,-6.6894,-6.6894,-6.6894,-6.6894,-6.6894,-6.6953,-6.7129,-6.748,-6.8047,-6.8183,-6.8437,-6.8535,-6.8496,-6.8769,-6.9062,-6.9258,-6.9355,-6.9414,-6.9531,-6.9648,-6.9101,-6.8535,-6.8808,-6.8945,-6.8789,-6.8691,-6.8761,-6.8795,-6.9023,-6.923,-6.9299,-6.9703,-4.5122,-4.7776,-4.8003,-4.7732,-4.7023,-4.6228,-4.6417,-4.7384,-4.7397,-4.8318,-4.9671,-4.9879,-4.9879,-4.9879,-4.9879,-4.9879,-5.0123,-5.0729,-5.1529,-5.2485,-5.3596,-5.4516,-5.5186,-5.5706,-5.5917,-5.6012,-5.6012,-5.5995,-5.5995,-5.5995,-5.6012,-5.6012,-5.6399,-5.6457,-5.6573,-5.8159,-5.9048,-5.9165,-6.0383,-6.1041,-6.1099,-6.1099,-6.1099,-6.1099,-6.1099,-6.1099,-6.1099,-6.1099,-6.1099,-6.1099,-6.1099,-6.1099,-6.1099,-6.1099,-6.1099,-6.1099,-6.1234,-6.1776,-6.2511,-6.3168,-6.4,-6.4812,-6.547,-6.5876,-6.6127,-6.6185,-6.6205,-6.6205,-6.6205,-6.6205,-6.6205,-6.6224,-6.6243,-6.6243,-6.6263,-6.6321,-6.6398,-6.6539,-6.6657,-6.6738,-6.6816,-6.6875,-6.6894,-6.6894,-6.6894,-6.6894,-6.6894,-6.6894,-6.6894,-6.6992,-6.7012,-6.7383,-6.7265,-6.7441,-6.7715,-6.789,-6.8066,-6.8125,-6.8222,-6.834,-6.8476,-6.8555,-6.8574,-6.7832,-6.7383,-6.7793,-6.793,-6.7519,-6.75,-6.7812,-6.7904,-6.8075,-6.789,-6.7883,-6.8542,-4.4857,-4.7491,-4.7984,-4.7851,-4.7308,-4.6537,-4.6417,-4.6751,-4.7143,-4.8003,-4.9145,-4.9635,-4.9879,-4.9879,-4.9879,-4.9879,-4.9982,-5.0411,-5.1045,-5.1891,-5.2953,-5.3893,-5.467,-5.546,-5.5769,-5.5923,-5.596,-5.596,-5.5959,-5.596,-5.596,-5.5975,-5.5975,-5.6053,-5.6246,-5.7598,-5.8565,-5.87,-6.0248,-6.0944,-6.1079,-6.1099,-6.1099,-6.1099,-6.1099,-6.1099,-6.1099,-6.1099,-6.1099,-6.1099,-6.1099,-6.1099,-6.1099,-6.1099,-6.1331,-6.1582,-6.1872,-6.224,-6.3168,-6.3864,-6.4503,-6.5276,-6.576,-6.6127,-6.6166,-6.6205,-6.6205,-6.6205,-6.6205,-6.6205,-6.6205,-6.6224,-6.6224,-6.6224,-6.6224,-6.6263,-6.6359,-6.6477,-6.6528,-6.6543,-6.668,-6.6894,-6.6894,-6.6894,-6.6894,-6.6894,-6.6894,-6.6894,-6.6894,-6.6894,-6.6894,-6.6894,-6.6894,-6.6894,-6.7187,-6.7246,-6.7226,-6.7246,-6.7383,-6.748,-6.7676,-6.7637,-6.7422,-6.7148,-6.6972,-6.7031,-6.6992,-6.6894,-6.6894,-6.7246,-6.7187,-6.7064,-6.6881,-6.6875,-6.7488,-4.4004,-4.6297,-4.7264,-4.7553,-4.7359,-4.6561,-4.6067,-4.6036,-4.6655,-4.7387,-4.816,-4.9164,-4.9673,-4.9852,-4.9871,-4.9898,-4.9936,-5.005,-5.057,-5.1399,-5.2374,-5.3464,-5.4468,-5.5264,-5.5692,-5.5905,-5.5905,-5.5905,-5.5924,-5.5924,-5.5923,-5.5919,-5.5958,-5.6017,-5.6497,-5.7404,-5.8372,-5.8874,-5.9899,-6.0828,-6.1041,-6.1099,-6.1099,-6.1099,-6.1099,-6.1099,-6.1099,-6.1099,-6.1099,-6.1099,-6.1099,-6.1099,-6.1099,-6.1118,-6.1427,-6.1718,-6.1834,-6.2685,-6.3768,-6.4058,-6.4889,-6.5644,-6.5953,-6.6069,-6.6069,-6.6185,-6.6185,-6.6185,-6.6185,-6.6166,-6.6166,-6.6205,-6.6205,-6.6205,-6.6205,-6.6205,-6.6321,-6.6457,-6.6454,-6.6438,-6.664,-6.6875,-6.6894,-6.6894,-6.6894,-6.6894,-6.6894,-6.6894,-6.6894,-6.6894,-6.6894,-6.6894,-6.6894,-6.6894,-6.6894,-6.6894,-6.6894,-6.6953,-6.7109,-6.6992,-6.6953,-6.7129,-6.7187,-6.7031,-6.6894,-6.6816,-6.6875,-6.6894,-6.6894,-6.6816,-6.6894,-6.6894,-6.6901,-6.6871,-6.6844,-4.427,-4.7245,-4.8079,-4.8337,-4.7961,-4.6599,-4.587,-4.5773,-4.5877,-4.6438,-4.7339,-4.813,-4.8888,-4.975,-4.975,-4.9778,-4.9797,-4.9759,-5.0317,-5.1174,-5.203,-5.3118,-5.4211,-5.5205,-5.573,-5.5885,-5.5885,-5.5885,-5.5865,-5.5885,-5.5905,-5.5885,-5.5885,-5.5962,-5.617,-5.7097,-5.7929,-5.8586,-5.9513,-6.046,-6.0963,-6.106,-6.1099,-6.1099,-6.1099,-6.1099,-6.1099,-6.1099,-6.1099,-6.1099,-6.1099,-6.1099,-6.1099,-6.1118,-6.1369,-6.164,-6.1756,-6.2336,-6.3168,-6.3497,-6.4174,-6.5064,-6.5296,-6.5547,-6.5721,-6.6147,-6.6147,-6.6147,-6.6127,-6.6069,-6.6089,-6.6166,-6.6205,-6.6205,-6.6205,-6.6243,-6.634,-6.6458,-6.6566,-6.6606,-6.6738,-6.6855,-6.6894,-6.6894,-6.6894,-6.6894,-6.6894,-6.6894,-6.6894,-6.6894,-6.6894,-6.6894,-6.6894,-6.6894,-6.6894,-6.6894,-6.6894,-6.6894,-6.6894,-6.6894,-6.6894,-6.6894,-6.6855,-6.6406,-6.6562,-6.666,-6.6719,-6.6523,-6.666,-6.6601,-6.6816,-6.6894,-6.6855,-6.6731,-6.6585]}]]